[[{"header":{"parameterUnit":"m.s-1","parameterCategory":1,"la1":31.0,"la2":29.5877,"lo1":-88.7671,"lo2":-86.6584,"dy":0.0162,"dx":0.0185,"nx":115,"ny":88,"refTime":"2023-08-17T12:00:00:Z","depth":0,"parameterNumber":2,"parameterNumberName":"U-component_of_WINDS"},"data":[0.0,0.0,0.0,0.0,0.0,0.0,0.0,0.0,0.0,0.0,0.0,0.0,0.0,0.0,0.0,0.0,0.0,0.0,0.0,0.0,0.0,0.0,0.0,0.0,0.0,0.0,0.0,0.0,0.0,0.0,0.0,0.0,0.0,0.0,0.0,0.0,0.0,0.0,0.0,0.0,0.0,0.0,0.0,0.0,0.0,0.0,0.0,0.0,0.0,0.0,0.0,0.0,0.0,0.0,0.0,0.0,0.0,0.0,0.0,0.0,0.0,0.0,0.0,0.0,0.0,0.0,0.0,0.0,0.0,0.0,0.0,0.0,0.0,0.0,0.0,0.0,0.0,0.0,0.0,0.0,0.0,0.0,0.0,0.0,0.0,0.0,0.0,0.0,0.0,0.0,0.0,0.0,0.0,0.0,0.0,0.0,0.0,0.0,0.0,0.0,0.0,0.0,0.0,0.0,0.0,0.0,0.0,0.0,0.0,0.0,0.0,0.0,0.0,0.0,0.0,0.0,0.0,0.0,0.0,0.0,0.0,0.0,0.0,0.0,0.0,0.0,0.0,0.0,0.0,0.0,0.0,0.0,0.0,0.0,0.0,0.0,0.0,0.0,0.0,0.0,0.0,0.0,0.0,0.0,0.0,0.0,0.0,0.0,0.0,0.0,0.0,0.0,0.0,0.0,0.0,0.0,0.0,0.0,0.0,0.0,0.0,0.0,0.0,0.0,0.0,0.0,0.0,0.0,0.0,0.0,0.0,0.0,0.0,0.0,0.0,0.0,0.0,0.0,0.0,0.0,0.0,0.0,0.0,0.0,0.0,0.0,0.0,0.0,0.0,0.0,0.0,0.0,0.0,0.0,0.0,0.0,0.0,0.0,0.0,0.0,0.0,0.0,0.0,0.0,0.0,0.0,0.0,0.0,0.0,0.0,0.0,0.0,0.0,0.0,0.0,0.0,0.0,0.0,0.0,0.0,0.0,0.0,0.0,0.0,0.0,0.0,0.0,0.0,0.0,0.0,0.0,0.0,0.0,0.0,0.0,0.0,0.0,0.0,0.0,0.0,0.0,0.0,0.0,0.0,0.0,0.0,0.0,0.0,0.0,0.0,0.0,0.0,0.0,0.0,0.0,0.0,0.0,0.0,0.0,0.0,0.0,0.0,0.0,0.0,0.0,0.0,0.0,0.0,0.0,0.0,0.0,0.0,0.0,0.0,0.0,0.0,0.0,0.0,0.0,0.0,0.0,0.0,0.0,0.0,0.0,0.0,0.0,0.0,0.0,0.0,0.0,0.0,0.0,0.0,0.0,0.0,0.0,0.0,0.0,0.0,0.0,0.0,0.0,0.0,0.0,0.0,0.0,0.0,0.0,0.0,0.0,0.0,0.0,0.0,0.0,0.0,0.0,0.0,0.0,0.0,0.0,0.0,0.0,0.0,0.0,0.0,0.0,0.0,0.0,0.0,0.0,0.0,0.0,0.0,0.0,0.0,0.0,0.0,0.0,0.0,0.0,0.0,0.0,0.0,0.0,0.0,0.0,0.0,0.0,0.0,0.0,0.0,0.0,0.0,0.0,0.0,0.0,0.0,0.0,0.0,0.0,0.0,0.0,0.0,0.0,0.0,0.0,0.0,0.0,0.0,0.0,0.0,0.0,0.0,0.0,0.0,0.0,0.0,0.0,0.0,0.0,0.0,0.0,0.0,0.0,0.0,0.0,0.0,0.0,0.0,0.0,0.0,0.0,0.0,0.0,0.0,0.0,0.0,0.0,0.0,0.0,0.0,0.0,0.0,0.0,0.0,0.0,0.0,0.0,0.0,0.0,0.0,0.0,0.0,0.0,0.0,0.0,0.0,0.0,0.0,0.0,0.0,0.0,0.0,0.0,0.0,0.0,0.0,0.0,0.0,0.0,0.0,0.0,0.0,0.0,0.0,0.0,0.0,0.0,0.0,0.0,0.0,0.0,0.0,0.0,0.0,0.0,0.0,0.0,0.0,0.0,0.0,0.0,0.0,0.0,0.0,0.0,0.0,0.0,0.0,0.0,0.0,0.0,0.0,0.0,0.0,0.0,0.0,0.0,0.0,0.0,0.0,0.0,0.0,0.0,0.0,0.0,0.0,0.0,0.0,0.0,0.0,0.0,0.0,0.0,0.0,0.0,0.0,0.0,0.0,0.0,0.0,0.0,0.0,0.0,0.0,0.0,0.0,0.0,0.0,0.0,0.0,0.0,0.0,0.0,0.0,0.0,0.0,0.0,0.0,0.0,0.0,0.0,0.0,0.0,0.0,0.0,0.0,0.0,0.0,0.0,0.0,0.0,0.0,0.0,0.0,0.0,0.0,0.0,0.0,0.0,0.0,0.0,0.0,0.0,0.0,0.0,0.0,0.0,0.0,0.0,0.0,0.0,0.0,0.0,0.0,0.0,0.0,0.0,0.0,0.0,0.0,0.0,0.0,0.0,0.0,0.0,0.0,0.0,0.0,0.0,0.0,0.0,0.0,0.0,0.0,0.0,0.0,0.0,0.0,0.0,0.0,0.0,0.0,0.0,0.0,0.0,0.0,0.0,0.0,0.0,0.0,0.0,0.0,0.0,0.0,0.0,0.0,0.0,0.0,0.0,0.0,0.0,0.0,0.0,0.0,0.0,0.0,0.0,0.0,0.0,0.0,0.0,0.0,0.0,0.0,0.0,0.0,0.0,0.0,0.0,0.0,0.0,0.0,0.0,0.0,0.0,0.0,0.0,0.0,0.0,0.0,0.0,0.0,0.0,0.0,0.0,0.0,0.0,0.0,0.0,0.0,0.0,0.0,0.0,0.0,0.0,0.0,0.0,0.0,0.0,0.0,0.0,0.0,0.0,0.0,0.0,0.0,0.0,0.0,0.0,0.0,0.0,0.0,0.0,0.0,0.0,0.0,0.0,0.0,0.0,0.0,0.0,0.0,0.0,0.0,0.0,0.0,0.0,0.0,0.0,0.0,0.0,0.0,0.0,0.0,0.0,0.0,0.0,0.0,0.0,0.0,0.0,0.0,0.0,0.0,0.0,0.0,0.0,0.0,0.0,0.0,0.0,0.0,0.0,0.0,0.0,0.0,0.0,0.0,0.0,0.0,0.0,0.0,0.0,0.0,0.0,0.0,0.0,0.0,0.0,0.0,0.0,0.0,0.0,0.0,0.0,0.0,0.0,0.0,0.0,0.0,0.0,0.0,0.0,0.0,0.0,0.0,0.0,0.0,0.0,0.0,0.0,0.0,0.0,0.0,0.0,0.0,0.0,0.0,0.0,0.0,0.0,0.0,0.0,0.0,0.0,0.0,0.0,0.0,0.0,0.0,0.0,0.0,0.0,0.0,0.0,0.0,0.0,0.0,0.0,0.0,0.0,0.0,0.0,0.0,0.0,0.0,0.0,0.0,0.0,0.0,0.0,0.0,0.0,0.0,0.0,0.0,0.0,0.0,0.0,0.0,0.0,0.0,0.0,0.0,0.0,0.0,0.0,0.0,0.0,0.0,0.0,0.0,0.0,0.0,0.0,0.0,0.0,0.0,0.0,0.0,0.0,0.0,0.0,0.0,0.0,0.0,0.0,0.0,0.0,0.0,0.0,0.0,0.0,0.0,0.0,0.0,0.0,0.0,0.0,0.0,0.0,0.0,0.0,0.0,0.0,0.0,0.0,0.0,0.0,0.0,0.0,0.0,0.0,0.0,0.0,0.0,0.0,0.0,0.0,0.0,0.0,0.0,0.0,0.0,0.0,0.0,0.0,0.0,0.0,0.0,0.0,0.0,0.0,0.0,0.0,0.0,0.0,0.0,0.0,0.0,0.0,0.0,0.0,0.0,0.0,0.0,0.0,0.0,0.0,0.0,0.0,0.0,0.0,0.0,0.0,0.0,0.0,0.0,0.0,0.0,0.0,0.0,0.0,0.0,0.0,0.0,0.0,0.0,0.0,0.0,0.0,0.0,0.0,0.0,0.0,0.0,0.0,0.0,0.0,0.0,0.0,0.0,0.0,0.0,0.0,0.0,0.0,0.0,0.0,0.0,0.0,0.0,0.0,0.0,0.0,0.0,0.0,0.0,0.0,0.0,0.0,0.0,0.0,0.0,0.0,0.0,0.0,0.0,0.0,0.0,0.0,0.0,0.0,0.0,0.0,0.0,0.0,0.0,0.0,0.0,0.0,0.0,0.0,0.0,0.0,0.0,0.0,0.0,0.0,0.0,0.0,0.0,0.0,0.0,0.0,0.0,0.0,0.0,0.0,0.0,0.0,0.0,0.0,0.0,-1.5463,0.0,0.0,0.0,0.0,0.0,0.0,0.0,0.0,0.0,0.0,0.0,0.0,0.0,0.0,0.0,0.0,0.0,0.0,0.0,0.0,0.0,0.0,0.0,0.0,0.0,0.0,0.0,0.0,0.0,0.0,0.0,0.0,0.0,0.0,0.0,0.0,0.0,0.0,0.0,0.0,0.0,0.0,0.0,0.0,0.0,0.0,0.0,0.0,0.0,0.0,0.0,0.0,0.0,0.0,0.0,0.0,0.0,0.0,0.0,0.0,0.0,0.0,0.0,0.0,0.0,0.0,0.0,0.0,0.0,0.0,0.0,0.0,0.0,0.0,0.0,0.0,0.0,0.0,0.0,0.0,0.0,0.0,0.0,0.0,0.0,0.0,0.0,0.0,0.0,0.0,0.0,0.0,0.0,0.0,0.0,0.0,0.0,0.0,0.0,0.0,0.0,0.0,0.0,0.0,0.0,0.0,0.0,0.0,0.0,0.0,-1.5018,-1.612,-1.4225,-1.4131,-1.6063,0.0,0.0,0.0,0.0,0.0,0.0,0.0,0.0,0.0,0.0,0.0,0.0,0.0,0.0,0.0,0.0,0.0,0.0,0.0,0.0,0.0,0.0,0.0,0.0,0.0,0.0,0.0,0.0,0.0,0.0,0.0,0.0,0.0,0.0,0.0,0.0,0.0,0.0,0.0,0.0,0.0,0.0,0.0,0.0,0.0,0.0,0.0,0.0,0.0,0.0,0.0,0.0,0.0,0.0,0.0,0.0,0.0,0.0,0.0,0.0,0.0,0.0,0.0,0.0,0.0,0.0,0.0,0.0,0.0,0.0,0.0,0.0,0.0,0.0,0.0,0.0,0.0,0.0,0.0,0.0,0.0,0.0,0.0,0.0,0.0,0.0,0.0,0.0,0.0,0.0,0.0,0.0,0.0,0.0,0.0,0.0,0.0,0.0,0.0,0.0,0.0,0.0,0.0,0.0,0.0,0.0,0.0,0.0,0.0,0.0,0.0,0.0,-1.4261,-1.409,-1.6351,0.0,0.0,0.0,0.0,0.0,0.0,0.0,0.0,0.0,0.0,0.0,0.0,0.0,0.0,0.0,0.0,0.0,0.0,0.0,0.0,0.0,0.0,0.0,0.0,0.0,0.0,0.0,0.0,0.0,0.0,0.0,0.0,0.0,0.0,0.0,0.0,0.0,0.0,0.0,0.0,0.0,0.0,0.0,0.0,0.0,0.0,0.0,0.0,0.0,0.0,0.0,0.0,0.0,0.0,0.0,0.0,0.0,0.0,0.0,0.0,0.0,0.0,0.0,0.0,0.0,0.0,0.0,0.0,0.0,0.0,0.0,0.0,0.0,0.0,0.0,0.0,0.0,0.0,0.0,0.0,0.0,0.0,0.0,0.0,0.0,0.0,0.0,0.0,0.0,0.0,0.0,0.0,0.0,0.0,0.0,0.0,0.0,0.0,0.0,0.0,0.0,0.0,0.0,0.0,0.0,0.0,0.0,0.0,0.0,0.0,-1.6192,-1.6922,-1.6308,0.0,-1.6486,0.0,0.0,0.0,0.0,0.0,0.0,0.0,0.0,0.0,0.0,0.0,0.0,0.0,0.0,0.0,0.0,0.0,0.0,0.0,0.0,0.0,0.0,0.0,0.0,0.0,0.0,0.0,0.0,0.0,0.0,0.0,0.0,0.0,0.0,0.0,0.0,0.0,0.0,0.0,0.0,0.0,0.0,0.0,0.0,0.0,0.0,0.0,0.0,0.0,0.0,0.0,0.0,0.0,0.0,0.0,0.0,0.0,0.0,0.0,0.0,0.0,0.0,0.0,0.0,0.0,0.0,0.0,0.0,0.0,0.0,0.0,0.0,0.0,0.0,0.0,0.0,0.0,0.0,0.0,0.0,0.0,0.0,0.0,0.0,0.0,0.0,0.0,0.0,0.0,0.0,0.0,0.0,0.0,0.0,0.0,0.0,0.0,0.0,0.0,0.0,0.0,0.0,0.0,0.0,0.0,0.0,0.0,0.0,0.0,0.0,-1.6243,-1.7147,-1.6849,-1.6471,0.0,0.0,0.0,0.0,0.0,0.0,0.0,0.0,0.0,0.0,0.0,0.0,0.0,0.0,0.0,0.0,0.0,0.0,0.0,0.0,0.0,0.0,0.0,0.0,0.0,0.0,0.0,0.0,0.0,0.0,0.0,0.0,0.0,0.0,0.0,0.0,0.0,0.0,0.0,0.0,0.0,0.0,0.0,0.0,0.0,0.0,0.0,0.0,0.0,0.0,0.0,0.0,0.0,0.0,0.0,0.0,0.0,0.0,0.0,0.0,0.0,0.0,0.0,0.0,0.0,0.0,0.0,0.0,0.0,0.0,0.0,0.0,0.0,0.0,0.0,0.0,0.0,0.0,0.0,0.0,0.0,0.0,0.0,0.0,0.0,0.0,0.0,0.0,0.0,0.0,0.0,0.0,0.0,0.0,0.0,0.0,0.0,0.0,0.0,0.0,0.0,0.0,0.0,0.0,0.0,0.0,0.0,0.0,0.0,0.0,-1.561,-1.5847,-1.6653,-1.6471,-1.6051,-1.55,0.0,0.0,0.0,0.0,0.0,0.0,0.0,0.0,0.0,0.0,0.0,0.0,0.0,0.0,0.0,0.0,0.0,0.0,0.0,0.0,0.0,0.0,0.0,0.0,0.0,0.0,0.0,0.0,0.0,0.0,0.0,0.0,0.0,0.0,0.0,0.0,0.0,0.0,0.0,0.0,0.0,0.0,0.0,0.0,0.0,0.0,0.0,0.0,0.0,0.0,0.0,0.0,0.0,0.0,0.0,0.0,0.0,0.0,0.0,0.0,0.0,0.0,0.0,0.0,0.0,0.0,0.0,0.0,0.0,0.0,0.0,0.0,0.0,0.0,0.0,0.0,0.0,0.0,0.0,0.0,0.0,0.0,0.0,0.0,0.0,0.0,0.0,0.0,0.0,0.0,0.0,0.0,0.0,0.0,0.0,0.0,0.0,0.0,0.0,0.0,0.0,0.0,0.0,0.0,0.0,0.0,0.0,0.0,-1.6206,-1.5341,-1.5008,-1.5332,-1.5049,-1.5071,0.0,0.0,0.0,0.0,0.0,0.0,0.0,0.0,0.0,0.0,0.0,0.0,0.0,0.0,0.0,0.0,0.0,0.0,0.0,0.0,0.0,0.0,0.0,0.0,0.0,0.0,0.0,0.0,0.0,0.0,0.0,0.0,0.0,0.0,0.0,0.0,0.0,0.0,0.0,0.0,0.0,0.0,0.0,0.0,0.0,0.0,0.0,0.0,0.0,0.0,0.0,0.0,0.0,0.0,0.0,0.0,0.0,0.0,0.0,0.0,0.0,0.0,0.0,0.0,0.0,0.0,0.0,0.0,0.0,0.0,0.0,0.0,0.0,0.0,0.0,0.0,0.0,0.0,0.0,0.0,0.0,0.0,0.0,0.0,0.0,0.0,0.0,0.0,0.0,0.0,0.0,0.0,0.0,0.0,0.0,0.0,0.0,0.0,0.0,0.0,0.0,0.0,0.0,0.0,0.0,0.0,0.0,0.0,0.0,-1.5339,-1.5636,-1.5604,-1.5276,-1.5382,-1.5314,0.0,0.0,0.0,0.0,0.0,0.0,0.0,0.0,0.0,0.0,0.0,0.0,0.0,0.0,0.0,0.0,0.0,0.0,0.0,0.0,0.0,0.0,0.0,0.0,0.0,0.0,0.0,0.0,0.0,0.0,0.0,0.0,0.0,0.0,0.0,0.0,0.0,0.0,0.0,0.0,0.0,0.0,0.0,0.0,0.0,0.0,0.0,0.0,0.0,0.0,0.0,0.0,0.0,0.0,0.0,0.0,0.0,0.0,0.0,0.0,0.0,0.0,0.0,0.0,0.0,0.0,0.0,0.0,0.0,0.0,0.0,0.0,0.0,0.0,0.0,0.0,0.0,0.0,0.0,0.0,0.0,0.0,0.0,0.0,0.0,0.0,0.0,0.0,0.0,0.0,0.0,0.0,0.0,0.0,0.0,0.0,0.0,0.0,0.0,0.0,0.0,0.0,0.0,0.0,0.0,0.0,0.0,0.0,0.0,-1.4665,0.0,-1.5424,-1.4994,-1.5202,-1.5101,0.0,0.0,0.0,0.0,0.0,0.0,0.0,0.0,0.0,0.0,0.0,0.0,0.0,0.0,0.0,0.0,0.0,0.0,0.0,0.0,0.0,0.0,0.0,0.0,0.0,0.0,0.0,0.0,0.0,0.0,0.0,0.0,0.0,0.0,0.0,0.0,0.0,0.0,0.0,0.0,0.0,0.0,0.0,0.0,0.0,0.0,0.0,0.0,0.0,0.0,0.0,0.0,0.0,0.0,0.0,0.0,0.0,0.0,0.0,0.0,0.0,0.0,0.0,0.0,0.0,0.0,0.0,0.0,0.0,0.0,0.0,0.0,0.0,0.0,0.0,0.0,0.0,0.0,0.0,0.0,0.0,0.0,0.0,0.0,0.0,0.0,0.0,0.0,0.0,0.0,0.0,0.0,0.0,0.0,0.0,0.0,0.0,0.0,0.0,0.0,0.0,0.0,0.0,0.0,0.0,0.0,0.0,0.0,-1.4314,-1.43,-1.436,-1.4433,-1.4327,-1.4373,-1.436,0.0,0.0,0.0,0.0,0.0,0.0,0.0,0.0,0.0,0.0,0.0,0.0,0.0,0.0,0.0,0.0,0.0,0.0,0.0,0.0,0.0,0.0,0.0,0.0,0.0,0.0,0.0,0.0,0.0,0.0,0.0,0.0,0.0,0.0,0.0,0.0,0.0,0.0,0.0,0.0,0.0,0.0,0.0,0.0,0.0,0.0,0.0,0.0,0.0,0.0,0.0,0.0,0.0,0.0,0.0,0.0,0.0,0.0,0.0,0.0,0.0,0.0,0.0,0.0,0.0,0.0,0.0,0.0,0.0,0.0,0.0,0.0,0.0,0.0,0.0,0.0,0.0,0.0,0.0,0.0,0.0,0.0,0.0,0.0,0.0,0.0,0.0,0.0,0.0,0.0,0.0,0.0,0.0,0.0,0.0,0.0,0.0,0.0,0.0,0.0,0.0,0.0,0.0,0.0,0.0,0.0,0.0,0.0,0.0,-1.4276,-1.4694,-1.5148,-1.5494,-1.4734,-1.4884,0.0,0.0,0.0,0.0,0.0,0.0,0.0,0.0,0.0,0.0,0.0,0.0,0.0,0.0,0.0,0.0,0.0,0.0,0.0,0.0,0.0,0.0,0.0,0.0,0.0,0.0,0.0,0.0,0.0,0.0,0.0,0.0,0.0,0.0,0.0,0.0,0.0,0.0,0.0,0.0,0.0,0.0,0.0,0.0,0.0,0.0,0.0,0.0,0.0,0.0,0.0,0.0,0.0,0.0,0.0,0.0,0.0,0.0,0.0,0.0,0.0,0.0,0.0,0.0,0.0,0.0,0.0,0.0,0.0,0.0,0.0,0.0,0.0,0.0,0.0,0.0,0.0,0.0,0.0,0.0,0.0,0.0,0.0,0.0,0.0,0.0,0.0,0.0,0.0,0.0,0.0,0.0,0.0,0.0,0.0,0.0,0.0,0.0,0.0,0.0,0.0,0.0,0.0,0.0,0.0,0.0,0.0,0.0,0.0,-1.4642,-1.5407,-1.6037,-1.643,-1.5698,-1.5725,-1.6607,0.0,0.0,0.0,0.0,0.0,0.0,0.0,0.0,0.0,0.0,0.0,0.0,0.0,0.0,0.0,0.0,0.0,0.0,0.0,0.0,0.0,0.0,0.0,0.0,0.0,0.0,0.0,0.0,0.0,0.0,0.0,0.0,0.0,0.0,0.0,0.0,0.0,0.0,0.0,0.0,0.0,0.0,0.0,0.0,0.0,0.0,0.0,0.0,0.0,0.0,0.0,0.0,0.0,0.0,0.0,0.0,0.0,0.0,0.0,0.0,0.0,0.0,0.0,0.0,0.0,0.0,0.0,0.0,0.0,0.0,0.0,0.0,0.0,0.0,0.0,0.0,0.0,0.0,0.0,0.0,0.0,0.0,0.0,0.0,0.0,0.0,0.0,0.0,0.0,0.0,0.0,0.0,0.0,0.0,0.0,0.0,0.0,0.0,0.0,0.0,0.0,0.0,0.0,0.0,0.0,0.0,0.0,0.0,-1.5325,-1.6545,-1.7165,-1.7095,-1.7054,-1.681,0.0,0.0,0.0,0.0,0.0,0.0,0.0,0.0,0.0,0.0,0.0,0.0,0.0,0.0,0.0,0.0,0.0,0.0,0.0,0.0,0.0,0.0,0.0,0.0,0.0,0.0,0.0,0.0,0.0,0.0,0.0,0.0,0.0,0.0,0.0,0.0,0.0,0.0,0.0,0.0,0.0,0.0,0.0,0.0,0.0,0.0,0.0,0.0,0.0,0.0,0.0,0.0,0.0,0.0,0.0,0.0,0.0,0.0,0.0,0.0,0.0,0.0,0.0,0.0,0.0,0.0,0.0,0.0,0.0,0.0,0.0,0.0,0.0,0.0,0.0,0.0,0.0,0.0,0.0,0.0,0.0,0.0,0.0,0.0,0.0,0.0,0.0,0.0,0.0,0.0,0.0,0.0,0.0,0.0,0.0,0.0,0.0,0.0,0.0,0.0,0.0,0.0,0.0,0.0,0.0,0.0,0.0,0.0,0.0,-1.7777,-1.9218,-1.9378,-1.8232,-1.7651,-1.7544,0.0,0.0,0.0,0.0,0.0,0.0,0.0,0.0,0.0,0.0,0.0,0.0,0.0,0.0,0.0,0.0,0.0,0.0,0.0,0.0,0.0,0.0,0.0,0.0,0.0,0.0,0.0,0.0,0.0,0.0,0.0,0.0,0.0,0.0,0.0,0.0,0.0,0.0,0.0,0.0,0.0,0.0,0.0,0.0,0.0,0.0,0.0,0.0,0.0,0.0,0.0,0.0,0.0,0.0,0.0,0.0,0.0,0.0,0.0,0.0,0.0,0.0,0.0,0.0,0.0,0.0,0.0,0.0,0.0,0.0,0.0,0.0,0.0,0.0,0.0,0.0,0.0,0.0,0.0,0.0,0.0,0.0,0.0,0.0,0.0,0.0,0.0,0.0,0.0,0.0,0.0,0.0,0.0,0.0,0.0,0.0,0.0,0.0,0.0,0.0,0.0,0.0,0.0,0.0,0.0,0.0,0.0,0.0,-1.7439,-1.827,-1.9973,-2.0568,-1.9914,-1.9481,-1.8996,0.0,0.0,0.0,0.0,0.0,0.0,0.0,0.0,0.0,0.0,0.0,0.0,0.0,0.0,0.0,0.0,0.0,0.0,0.0,0.0,0.0,0.0,0.0,0.0,0.0,0.0,0.0,0.0,0.0,0.0,0.0,0.0,0.0,0.0,0.0,0.0,0.0,0.0,0.0,0.0,0.0,0.0,0.0,0.0,0.0,0.0,0.0,0.0,0.0,0.0,0.0,0.0,0.0,0.0,0.0,0.0,0.0,0.0,0.0,0.0,0.0,0.0,0.0,0.0,0.0,0.0,0.0,0.0,0.0,0.0,0.0,0.0,0.0,0.0,0.0,0.0,0.0,0.0,0.0,0.0,0.0,0.0,0.0,0.0,0.0,0.0,0.0,0.0,0.0,0.0,0.0,0.0,0.0,0.0,0.0,0.0,0.0,0.0,0.0,0.0,0.0,0.0,0.0,0.0,0.0,0.0,0.0,0.0,-1.6883,-1.7654,-1.9718,-2.1087,-2.1734,-2.1607,-2.0528,0.0,0.0,0.0,0.0,0.0,0.0,0.0,0.0,0.0,0.0,0.0,0.0,0.0,0.0,0.0,0.0,0.0,0.0,0.0,0.0,0.0,0.0,0.0,0.0,0.0,0.0,0.0,0.0,0.0,0.0,0.0,0.0,0.0,0.0,0.0,0.0,0.0,0.0,0.0,0.0,0.0,0.0,0.0,0.0,0.0,0.0,0.0,0.0,0.0,0.0,0.0,0.0,0.0,0.0,0.0,0.0,0.0,0.0,0.0,0.0,0.0,0.0,0.0,0.0,0.0,0.0,0.0,0.0,0.0,0.0,0.0,0.0,0.0,0.0,0.0,0.0,0.0,0.0,0.0,0.0,0.0,0.0,0.0,0.0,0.0,0.0,0.0,0.0,0.0,0.0,0.0,0.0,0.0,0.0,0.0,0.0,0.0,0.0,0.0,0.0,0.0,0.0,0.0,0.0,0.0,0.0,0.0,0.0,-1.6918,-1.7584,-2.0027,-2.1592,-2.2065,-2.1326,-2.0135,0.0,0.0,0.0,0.0,0.0,0.0,0.0,0.0,0.0,0.0,0.0,0.0,0.0,0.0,0.0,0.0,0.0,0.0,0.0,0.0,0.0,0.0,0.0,0.0,0.0,0.0,0.0,0.0,0.0,0.0,0.0,0.0,0.0,0.0,0.0,0.0,0.0,0.0,0.0,0.0,0.0,0.0,0.0,0.0,0.0,0.0,0.0,0.0,-0.5791,0.0,0.0,0.0,0.0,0.0,0.0,0.0,0.0,0.0,0.0,0.0,0.0,0.0,0.0,0.0,0.0,0.0,0.0,0.0,0.0,0.0,0.0,0.0,0.0,0.0,0.0,0.0,0.0,0.0,0.0,0.0,0.0,0.0,0.0,0.0,0.0,0.0,0.0,0.0,0.0,0.0,0.0,0.0,0.0,0.0,0.0,0.0,0.0,0.0,0.0,0.0,0.0,0.0,0.0,0.0,0.0,0.0,0.0,0.0,-1.7103,-1.8221,-2.0314,-2.1853,-2.2502,-2.1339,-2.0169,0.0,0.0,0.0,0.0,0.0,0.0,0.0,0.0,0.0,0.0,0.0,0.0,0.0,0.0,0.0,0.0,0.0,0.0,0.0,0.0,0.0,0.0,0.0,0.0,0.0,0.0,0.0,0.0,0.0,0.0,0.0,0.0,0.0,0.0,0.0,0.0,0.0,0.0,0.0,0.0,0.0,0.0,0.0,0.0,0.0,0.0,0.0,0.0,0.0,0.0,0.0,0.0,0.0,0.0,0.0,0.0,0.0,0.0,0.0,0.0,0.0,0.0,0.0,0.0,0.0,0.0,0.0,0.0,0.0,0.0,0.0,0.0,0.0,0.0,0.0,0.0,0.0,0.0,0.0,0.0,0.0,0.0,0.0,0.0,0.0,0.0,0.0,0.0,0.0,0.0,0.0,0.0,0.0,0.0,0.0,0.0,0.0,0.0,0.0,0.0,0.0,0.0,0.0,0.0,0.0,0.0,0.0,-1.612,-1.7335,-1.8817,-2.0429,-2.174,-2.2737,-2.1425,-2.0391,-1.98,0.0,0.0,0.0,0.0,0.0,0.0,0.0,0.0,0.0,0.0,0.0,0.0,0.0,0.0,0.0,0.0,0.0,0.0,0.0,0.0,0.0,0.0,0.0,0.0,0.0,0.0,0.0,0.0,0.0,0.0,0.0,0.0,0.0,0.0,0.0,0.0,0.0,0.0,-0.7554,-0.7997,0.0,0.0,0.0,0.0,0.0,0.0,0.0,0.0,-0.6179,0.0,0.0,0.0,0.0,0.0,0.0,0.0,0.0,0.0,0.0,0.0,0.0,0.0,0.0,0.0,0.0,0.0,0.0,0.0,0.0,0.0,0.0,0.0,0.0,0.0,0.0,0.0,0.0,0.0,0.0,0.0,0.0,0.0,0.0,0.0,0.0,0.0,0.0,0.0,0.0,0.0,0.0,0.0,0.0,0.0,0.0,0.0,0.0,0.0,0.0,0.0,0.0,0.0,0.0,0.0,0.0,-1.5116,-1.6459,-1.7487,-1.8162,-1.973,-2.0842,-2.1381,-2.0831,-2.0301,-1.9666,0.0,0.0,0.0,0.0,0.0,0.0,0.0,0.0,0.0,0.0,0.0,0.0,0.0,0.0,0.0,0.0,0.0,0.0,0.0,0.0,0.0,0.0,0.0,0.0,0.0,0.0,0.0,0.0,0.0,0.0,0.0,0.0,0.0,0.0,0.0,0.0,0.0,0.0,0.0,-0.7829,-0.7926,0.0,0.0,0.0,0.0,0.0,0.0,0.0,0.0,-0.6848,0.0,0.0,0.0,0.0,0.0,0.0,0.0,0.0,0.0,0.0,0.0,0.0,0.0,0.0,0.0,0.0,0.0,0.0,0.0,0.0,0.0,0.0,0.0,0.0,0.0,0.0,0.0,0.0,0.0,0.0,0.0,0.0,0.0,0.0,0.0,0.0,0.0,0.0,0.0,0.0,0.0,0.0,0.0,0.0,0.0,0.0,0.0,0.0,0.0,0.0,0.0,0.0,0.0,0.0,0.0,-1.5869,-1.6798,-1.7628,-1.8359,-1.9957,-2.0756,-2.071,-2.01,-1.9574,0.0,0.0,0.0,0.0,0.0,0.0,0.0,0.0,0.0,0.0,0.0,0.0,0.0,0.0,0.0,0.0,0.0,0.0,0.0,0.0,0.0,0.0,0.0,0.0,0.0,0.0,0.0,0.0,0.0,0.0,0.0,0.0,0.0,0.0,0.0,0.0,0.0,0.0,0.0,0.0,-0.7918,-0.7858,-0.8087,0.0,0.0,0.0,0.0,0.0,0.0,-0.7563,-0.738,0.0,0.0,0.0,0.0,0.0,0.0,0.0,0.0,0.0,0.0,0.0,0.0,0.0,0.0,0.0,0.0,0.0,0.0,0.0,0.0,0.0,0.0,0.0,0.0,0.0,0.0,0.0,0.0,0.0,0.0,0.0,0.0,0.0,0.0,0.0,0.0,0.0,0.0,0.0,0.0,0.0,0.0,0.0,0.0,0.0,0.0,0.0,0.0,0.0,0.0,0.0,0.0,0.0,0.0,0.0,-1.6503,-1.7027,-1.7682,-1.8534,-1.9873,-2.0444,-2.0034,-1.9148,-1.8725,0.0,0.0,0.0,0.0,0.0,0.0,0.0,0.0,0.0,0.0,0.0,0.0,0.0,0.0,0.0,0.0,0.0,0.0,0.0,0.0,0.0,0.0,0.0,0.0,0.0,0.0,0.0,0.0,0.0,0.0,0.0,0.0,0.0,0.0,0.0,0.0,0.0,0.0,0.0,0.0,0.0,-0.8127,-0.839,-0.8731,0.0,0.0,0.0,0.0,-0.8834,-0.8119,0.0,0.0,0.0,0.0,0.0,0.0,0.0,0.0,0.0,0.0,0.0,0.0,0.0,0.0,0.0,0.0,0.0,0.0,0.0,0.0,0.0,0.0,0.0,0.0,0.0,0.0,0.0,0.0,0.0,0.0,0.0,0.0,0.0,0.0,0.0,0.0,0.0,0.0,0.0,0.0,0.0,0.0,0.0,0.0,0.0,0.0,0.0,0.0,0.0,0.0,0.0,0.0,0.0,0.0,0.0,0.0,-1.6514,-1.7027,-1.7529,-1.8075,-1.8649,-1.8951,-1.8874,-1.7961,-1.7676,0.0,0.0,0.0,0.0,0.0,0.0,0.0,0.0,0.0,0.0,0.0,0.0,0.0,0.0,0.0,0.0,0.0,0.0,0.0,0.0,0.0,0.0,0.0,0.0,0.0,0.0,0.0,0.0,0.0,0.0,0.0,0.0,0.0,0.0,0.0,0.0,0.0,0.0,0.0,0.0,0.0,-0.8683,-0.8454,-0.8929,-0.9239,0.0,0.0,-0.9136,-0.8937,-0.8532,0.0,0.0,0.0,0.0,0.0,0.0,0.0,0.0,0.0,0.0,0.0,0.0,0.0,0.0,0.0,0.0,0.0,0.0,0.0,0.0,0.0,0.0,0.0,0.0,0.0,0.0,0.0,0.0,0.0,0.0,0.0,0.0,0.0,0.0,0.0,0.0,0.0,0.0,0.0,0.0,0.0,0.0,0.0,0.0,0.0,0.0,0.0,0.0,0.0,0.0,0.0,0.0,0.0,0.0,0.0,-1.6155,-1.6918,-1.6885,-1.7224,-1.7988,-1.8458,-1.8567,-1.8316,-1.7355,-1.7082,0.0,0.0,0.0,0.0,0.0,0.0,0.0,0.0,0.0,0.0,0.0,0.0,0.0,0.0,0.0,0.0,0.0,0.0,0.0,0.0,0.0,0.0,0.0,0.0,0.0,0.0,0.0,0.0,0.0,0.0,0.0,0.0,0.0,0.0,0.0,0.0,0.0,0.0,0.0,0.0,0.0,0.0,-0.8675,-0.8985,0.0,0.0,0.0,-0.9811,-0.9271,0.0,0.0,0.0,0.0,0.0,0.0,0.0,0.0,0.0,0.0,0.0,0.0,0.0,0.0,0.0,0.0,0.0,0.0,0.0,0.0,0.0,0.0,0.0,0.0,0.0,0.0,0.0,0.0,0.0,0.0,0.0,0.0,0.0,0.0,0.0,0.0,0.0,0.0,0.0,0.0,0.0,0.0,0.0,0.0,0.0,0.0,0.0,0.0,0.0,0.0,0.0,0.0,0.0,0.0,0.0,0.0,0.0,-1.7301,-1.6776,-1.694,-1.7791,-1.8152,-1.8174,-1.7824,-1.6972,0.0,0.0,0.0,0.0,0.0,0.0,0.0,0.0,0.0,0.0,0.0,0.0,0.0,0.0,0.0,0.0,0.0,0.0,0.0,0.0,0.0,0.0,0.0,0.0,0.0,0.0,0.0,-1.1244,0.0,0.0,0.0,0.0,0.0,0.0,0.0,0.0,0.0,0.0,0.0,0.0,0.0,0.0,-0.8699,-0.8881,-0.9009,-0.9072,0.0,0.0,-1.0194,-0.9731,-0.9438,-0.9453,0.0,0.0,0.0,0.0,0.0,0.0,0.0,0.0,0.0,0.0,0.0,0.0,0.0,0.0,0.0,0.0,0.0,0.0,0.0,0.0,0.0,0.0,0.0,0.0,0.0,0.0,0.0,0.0,0.0,0.0,0.0,0.0,0.0,0.0,0.0,0.0,0.0,0.0,0.0,0.0,0.0,0.0,0.0,0.0,0.0,0.0,0.0,0.0,0.0,0.0,0.0,0.0,0.0,0.0,0.0,-1.7234,-1.6776,-1.6787,-1.7311,-1.7355,-1.7355,-1.7311,-1.6809,-1.6754,0.0,0.0,0.0,0.0,0.0,0.0,0.0,0.0,0.0,0.0,0.0,0.0,0.0,0.0,0.0,0.0,0.0,0.0,0.0,0.0,0.0,0.0,0.0,0.0,0.0,0.0,0.0,0.0,0.0,0.0,0.0,0.0,0.0,0.0,0.0,0.0,0.0,0.0,0.0,0.0,0.0,-0.9223,-0.8945,-0.9009,-0.9152,0.0,0.0,-0.9987,-1.0386,-0.9565,-0.9279,-1.0314,0.0,0.0,0.0,0.0,0.0,0.0,0.0,0.0,0.0,0.0,0.0,0.0,0.0,0.0,0.0,0.0,0.0,0.0,0.0,0.0,0.0,0.0,0.0,0.0,0.0,0.0,0.0,0.0,0.0,0.0,0.0,0.0,0.0,0.0,0.0,0.0,0.0,0.0,0.0,0.0,0.0,0.0,0.0,0.0,0.0,0.0,0.0,0.0,0.0,0.0,0.0,0.0,0.0,-1.6765,-1.7312,-1.6776,-1.6765,-1.7256,-1.7278,-1.7278,-1.7278,-1.6787,-1.6612,0.0,0.0,0.0,0.0,0.0,0.0,0.0,0.0,0.0,0.0,0.0,0.0,0.0,0.0,0.0,0.0,0.0,0.0,0.0,0.0,0.0,0.0,0.0,0.0,0.0,0.0,0.0,0.0,-1.0247,-0.9643,-0.9208,0.0,0.0,0.0,0.0,0.0,0.0,0.0,0.0,0.0,0.0,-0.912,-0.9191,-0.8889,0.0,0.0,-0.9199,-0.9445,-0.926,-0.9382,-0.9596,-0.9779,-0.9946,0.0,0.0,0.0,0.0,0.0,0.0,0.0,0.0,0.0,0.0,0.0,0.0,0.0,0.0,0.0,0.0,0.0,0.0,0.0,0.0,0.0,0.0,0.0,0.0,0.0,0.0,0.0,0.0,0.0,0.0,0.0,0.0,0.0,0.0,0.0,0.0,0.0,0.0,0.0,0.0,0.0,0.0,0.0,0.0,0.0,0.0,0.0,0.0,0.0,0.0,0.0,0.0,-1.6918,-1.7278,-1.6929,-1.6918,-1.7278,-1.7278,-1.7278,-1.7267,-1.6929,-1.6754,0.0,0.0,0.0,0.0,0.0,0.0,0.0,0.0,0.0,0.0,0.0,0.0,0.0,0.0,0.0,0.0,0.0,0.0,0.0,0.0,0.0,0.0,0.0,0.0,0.0,0.0,0.0,0.0,-1.0542,-0.9818,-0.9073,0.0,0.0,0.0,0.0,0.0,0.0,0.0,0.0,0.0,0.0,-0.9136,-0.9358,-0.9093,-0.8842,-0.9021,-0.9644,-0.9906,-0.93,-0.9684,-1.0033,-0.9898,0.0,0.0,0.0,0.0,0.0,0.0,0.0,0.0,0.0,0.0,0.0,0.0,0.0,0.0,0.0,0.0,0.0,0.0,0.0,0.0,0.0,0.0,0.0,0.0,0.0,0.0,0.0,0.0,0.0,0.0,-2.1093,0.0,0.0,0.0,0.0,0.0,0.0,0.0,0.0,0.0,0.0,0.0,0.0,0.0,0.0,0.0,0.0,0.0,0.0,0.0,0.0,0.0,0.0,-1.7267,-1.7278,-1.7256,-1.7267,-1.7278,-1.7278,-1.7278,-1.7278,-1.7267,-1.7256,-1.7245,0.0,0.0,0.0,0.0,0.0,0.0,0.0,0.0,0.0,0.0,0.0,0.0,0.0,0.0,0.0,0.0,0.0,0.0,0.0,0.0,0.0,0.0,0.0,0.0,0.0,0.0,-1.2615,-1.1374,-1.0182,0.0,0.0,0.0,0.0,0.0,0.0,0.0,0.0,0.0,0.0,-0.962,-0.939,-0.9414,-0.9635,-0.9907,-1.0354,-1.1208,-1.1615,-1.0939,-1.0629,-1.0574,0.0,0.0,0.0,0.0,0.0,0.0,0.0,0.0,0.0,0.0,0.0,0.0,0.0,0.0,0.0,0.0,0.0,0.0,0.0,0.0,0.0,0.0,0.0,0.0,0.0,0.0,0.0,-2.2462,-2.2504,0.0,0.0,0.0,0.0,0.0,0.0,0.0,0.0,0.0,0.0,0.0,-1.9549,-1.9493,0.0,0.0,0.0,0.0,0.0,0.0,0.0,0.0,0.0,0.0,0.0,0.0,-1.7278,-1.7278,-1.7278,-1.7278,-1.7278,-1.7278,-1.7278,-1.7278,-1.7278,-1.7278,-1.7278,0.0,0.0,0.0,0.0,0.0,0.0,0.0,0.0,0.0,0.0,0.0,0.0,0.0,0.0,0.0,0.0,0.0,0.0,0.0,0.0,0.0,0.0,0.0,0.0,0.0,-1.1693,0.0,0.0,0.0,0.0,0.0,0.0,0.0,0.0,0.0,0.0,0.0,-1.051,-1.0629,-1.0121,-0.9835,-1.013,-1.0234,-1.0178,0.0,0.0,0.0,0.0,0.0,0.0,0.0,0.0,0.0,0.0,0.0,0.0,0.0,0.0,-0.9028,-0.8184,-0.7991,-0.7922,-0.7471,0.0,0.0,0.0,0.0,0.0,0.0,0.0,0.0,0.0,0.0,0.0,0.0,0.0,0.0,-2.2354,0.0,-2.19,0.0,0.0,0.0,0.0,0.0,0.0,0.0,0.0,-1.9287,-1.9629,-2.0486,-2.0445,-2.0336,0.0,-2.05,-2.0325,0.0,0.0,0.0,0.0,0.0,0.0,0.0,0.0,-1.7857,-1.7551,-1.7682,-1.7682,-1.754,-1.7529,-1.7453,-1.7289,-1.7278,-1.7278,-1.7278,-1.6961,-1.6787,0.0,0.0,0.0,0.0,0.0,0.0,0.0,0.0,0.0,0.0,0.0,0.0,0.0,0.0,0.0,0.0,0.0,0.0,0.0,0.0,0.0,0.0,0.0,-1.2047,0.0,0.0,0.0,0.0,0.0,0.0,0.0,0.0,0.0,-1.0852,-1.0881,-1.0921,-1.0979,-1.0597,-1.0383,-1.0621,0.0,0.0,0.0,0.0,0.0,0.0,0.0,-1.0732,-1.0971,-1.1098,-1.1075,-1.0672,-1.0472,-1.0222,-0.9826,0.0,0.0,-0.8707,-0.849,-0.838,-0.811,-0.7839,-0.7678,-0.76,-0.7459,-0.7245,0.0,0.0,0.0,0.0,0.0,0.0,0.0,0.0,-2.1147,-2.1881,0.0,-2.1629,0.0,0.0,0.0,0.0,0.0,-1.8862,0.0,0.0,-2.0052,-2.0489,-2.1081,-2.1909,-2.2106,-2.1723,-2.2553,-2.2488,-2.1516,-1.9714,0.0,0.0,0.0,0.0,0.0,0.0,-1.8938,-1.8075,-1.8447,-1.8469,-1.8043,-1.8032,-1.7802,-1.7366,-1.7311,-1.7322,-1.7311,-1.7278,-1.7278,-1.7278,-1.7267,0.0,0.0,0.0,0.0,0.0,0.0,0.0,0.0,0.0,0.0,0.0,0.0,0.0,0.0,0.0,0.0,0.0,0.0,0.0,0.0,-1.3344,0.0,0.0,0.0,0.0,0.0,0.0,0.0,0.0,0.0,0.0,-1.1527,-1.1495,-1.1376,-1.1074,0.0,0.0,0.0,0.0,-1.1614,-1.1916,-1.2297,-1.2393,-1.2019,-1.1972,-1.1972,-1.1988,0.0,0.0,-1.0336,-1.1141,-1.1267,-0.9265,-1.005,-1.063,-0.9726,-0.8891,-0.8352,-0.8299,-0.8134,-0.7936,-0.7936,-0.7958,-0.7838,-2.4716,0.0,0.0,0.0,0.0,-2.3602,-2.3973,-2.4432,-2.4093,-2.3777,-2.3471,-2.2717,0.0,0.0,0.0,0.0,0.0,0.0,-2.1538,-2.1974,-2.2116,-2.2433,-2.2914,-2.3198,-2.3252,-2.3132,-2.3394,-2.3023,-2.2095,-2.1199,-2.0718,-2.0642,0.0,0.0,0.0,0.0,-1.8763,-1.8523,-1.8622,-1.8622,-1.8501,-1.849,-1.8425,-1.8283,-1.7966,-1.7802,-1.7791,-1.7464,-1.7278,-1.7278,-1.7278,0.0,0.0,0.0,0.0,0.0,0.0,0.0,0.0,0.0,0.0,0.0,0.0,0.0,0.0,0.0,0.0,0.0,0.0,0.0,-1.2763,-1.3006,-1.2958,0.0,0.0,0.0,0.0,0.0,0.0,0.0,0.0,0.0,-1.227,-1.1797,-1.1551,0.0,0.0,-1.1439,-1.1694,-1.1805,-1.1813,-1.1662,-1.1948,0.0,0.0,-1.1646,-1.1725,-1.198,-1.2146,-1.2198,-1.1949,-1.2192,-1.2208,-1.1525,-1.1509,-1.1341,-1.0656,-0.9455,-0.864,-0.8569,-0.8645,-0.8653,-0.8487,-0.8556,-0.8498,-2.7031,-2.5633,-2.4585,-2.4388,-2.477,-2.4967,-2.5262,-2.559,-2.5306,-2.5164,-2.5076,-2.405,-2.3471,-2.3241,-2.2193,0.0,0.0,0.0,-2.2848,-2.3296,-2.3493,-2.3853,-2.4301,-2.4497,-2.4486,-2.4301,-2.4301,-2.3908,-2.3176,-2.2477,-2.2106,-2.1953,0.0,0.0,-1.9714,-1.9604,-1.9353,-1.9004,-1.9168,-1.9179,-1.8982,-1.8785,-1.8698,-1.8687,-1.8414,-1.8196,-1.8021,-1.7726,-1.7475,-1.7289,-1.7278,-1.7278,0.0,0.0,0.0,0.0,0.0,0.0,0.0,0.0,0.0,0.0,0.0,-1.5018,0.0,0.0,0.0,0.0,-1.3238,-1.2969,-1.292,-1.3014,0.0,0.0,0.0,0.0,0.0,0.0,0.0,-1.2194,-1.2234,-1.2321,-1.2581,-1.2186,-1.1996,-1.2202,-1.2051,-1.1996,-1.2202,0.0,-1.2162,-1.1948,-1.2091,-1.2154,-1.1948,-1.1916,-1.1988,-1.2194,-1.2409,-1.249,-1.2313,-1.2436,-1.2428,-1.2058,-1.1809,-1.1553,-1.1045,-1.0247,-0.9478,-0.912,-0.9124,-0.9164,-0.8988,-0.911,-0.9041,-2.897,-2.8648,-2.6911,-2.5884,-2.5448,-2.5884,-2.5841,-2.5459,-2.5437,-2.6114,-2.7151,-2.5437,-2.5098,-2.5721,-2.3973,0.0,-2.3176,-2.3176,-2.3449,-2.3908,-2.4388,-2.4825,-2.524,-2.5677,-2.5666,-2.5229,-2.5229,-2.4989,-2.4497,-2.358,-2.3307,-2.3613,-2.1865,-2.0762,-2.0292,-2.0686,-2.0424,-1.9561,-1.9868,-1.9868,-1.9484,-1.9037,-1.8807,-1.8807,-1.8763,-1.8534,-1.8097,-1.8021,-1.777,-1.7322,-1.7278,-1.7278,-1.7278,0.0,0.0,0.0,0.0,0.0,0.0,0.0,0.0,0.0,0.0,0.0,0.0,0.0,0.0,0.0,-1.4121,0.0,-1.3359,-1.3287,0.0,0.0,0.0,-1.2061,-1.2137,-1.2118,-1.2186,-1.2581,0.0,0.0,-1.2621,-1.2621,-1.2621,-1.2621,-1.2621,-1.2621,-1.2621,-1.2613,-1.2621,-1.2581,-1.2613,-1.2621,-1.2557,-1.2565,-1.2565,-1.2581,-1.2621,-1.2436,-1.2058,-1.2251,-1.2182,-1.1428,-1.1428,-1.1545,-1.1178,-1.1087,-1.0737,-0.9831,-0.9594,-0.9536,-0.9466,-0.9472,-0.9408,-2.9969,-2.9281,-2.8822,-2.8145,-2.737,-2.7479,-2.7676,-2.7861,-2.7523,-2.7348,-2.7261,-2.6474,-2.583,-2.5317,-2.4869,-2.465,-2.465,-2.4661,-2.4912,-2.5382,-2.5502,-2.5622,-2.5732,-2.5852,-2.5841,-2.5732,-2.5732,-2.548,-2.5,-2.4421,-2.3809,-2.3165,-2.2368,-2.1909,-2.1789,-2.1177,-2.0807,-2.0511,-2.0271,-2.0031,-1.9911,-1.9791,-1.9748,-1.9737,-1.9441,-1.9015,-1.8545,-1.8185,-1.7781,-1.7311,-1.7278,-1.7278,-1.7289,-1.7628,0.0,0.0,0.0,0.0,0.0,0.0,0.0,0.0,0.0,-1.5866,-1.4924,0.0,-1.4744,0.0,-1.4752,-1.4582,-1.382,-1.378,0.0,0.0,-1.3249,-1.3161,-1.3322,-1.3022,-1.2708,-1.2613,-1.2621,-1.2621,-1.2621,-1.2621,-1.2621,-1.2621,-1.2621,-1.2621,-1.2621,-1.2621,-1.2621,-1.2621,-1.2621,-1.2621,-1.2621,-1.2621,-1.2621,-1.2621,-1.2621,-1.256,-1.2428,-1.2498,-1.2498,-1.2305,-1.2243,-1.2305,-1.2182,-1.1615,-1.1115,-1.0989,-1.0555,-0.9989,-0.9612,-0.9478,-0.9478,-3.0592,-3.0078,-2.9663,-2.9172,-2.8669,-2.8451,-2.8517,-2.8735,-2.8473,-2.8211,-2.7927,-2.7468,-2.6835,-2.6125,-2.5917,-2.5819,-2.5819,-2.5819,-2.5972,-2.6223,-2.6223,-2.6223,-2.6212,-2.6005,-2.5895,-2.5895,-2.5895,-2.5764,-2.548,-2.5022,-2.4497,-2.3962,-2.3285,-2.2947,-2.2903,-2.1778,-2.1188,-2.1188,-2.0708,-2.0369,-2.0096,-2.0085,-2.0085,-2.0074,-1.9824,-1.9506,-1.9026,-1.8763,-1.8414,-1.7933,-1.7901,-1.7901,-1.7912,-1.8163,-1.8196,0.0,0.0,0.0,0.0,0.0,0.0,0.0,0.0,0.0,0.0,0.0,-1.4967,-1.4451,-1.4855,-1.4699,-1.36,-1.3639,-1.3673,-1.3355,-1.3211,-1.3164,-1.3285,-1.2989,-1.2752,-1.2621,-1.2621,-1.2621,-1.2621,-1.2621,-1.2621,-1.2621,-1.2621,-1.2621,-1.2621,-1.2621,-1.2621,-1.2621,-1.2621,-1.2621,-1.2621,-1.2621,-1.2621,-1.2621,-1.2621,-1.2621,-1.2621,-1.2621,-1.2621,-1.2621,-1.2621,-1.2621,-1.256,-1.1934,-1.1365,-1.1156,-1.0622,-1.0158,-1.0148,-1.0071,-1.0013,-3.0941,-3.081,-2.9947,-2.9532,-2.9445,-2.8953,-2.885,-2.885,-2.885,-2.885,-2.8735,-2.832,-2.7894,-2.7468,-2.702,-2.6813,-2.6813,-2.6682,-2.6627,-2.6627,-2.6627,-2.6594,-2.6518,-2.6168,-2.5961,-2.5895,-2.5895,-2.5895,-2.5884,-2.5469,-2.524,-2.5142,-2.4268,-2.3787,-2.3678,-2.2422,-2.1701,-2.1581,-2.1235,-2.0718,-2.0183,-2.0172,-2.0216,-2.0085,-2.0085,-1.9857,-1.9452,-1.943,-1.9189,-1.8731,-1.8698,-1.8698,-1.8698,-1.8742,-1.8753,0.0,-1.8753,0.0,0.0,0.0,0.0,0.0,0.0,0.0,0.0,-1.5882,-1.4974,-1.4377,-1.4854,-1.4657,-1.3462,-1.3595,-1.3542,-1.2997,-1.2943,-1.2911,-1.2707,-1.2755,-1.2779,-1.2629,-1.2639,-1.2687,-1.2709,-1.2693,-1.2631,-1.2647,-1.2661,-1.2621,-1.2621,-1.2621,-1.2621,-1.2621,-1.2621,-1.2621,-1.2621,-1.2621,-1.2621,-1.2621,-1.2621,-1.2621,-1.2621,-1.2621,-1.2621,-1.2621,-1.2621,-1.2605,-1.2549,-1.2097,-1.1581,-1.12,-1.0457,-1.0013,-1.0416,-1.0479,-1.0553,-3.1258,-3.0854,-3.0308,-2.9849,-2.9445,-2.8953,-2.885,-2.885,-2.885,-2.885,-2.8746,-2.8659,-2.8571,-2.8451,-2.7981,-2.7774,-2.773,-2.6977,-2.6627,-2.6627,-2.6627,-2.642,-2.607,-2.6354,-2.6278,-2.5917,-2.5895,-2.5895,-2.5895,-2.5808,-2.5568,-2.5164,-2.4628,-2.4148,-2.3645,0.0,0.0,0.0,-2.1505,-2.1221,-2.0751,-2.0729,-2.0533,-2.0107,-2.0085,0.0,-1.9452,-1.943,-1.9189,-1.8731,-1.8698,0.0,0.0,0.0,0.0,0.0,0.0,0.0,0.0,0.0,0.0,0.0,-1.7742,-1.7056,-1.6092,-1.5753,-1.5533,-1.5396,-1.5506,-1.5478,-1.5214,-1.5269,-1.5069,-1.4693,-1.4886,-1.4584,-1.3333,-1.3735,-1.3822,-1.2755,-1.3044,-1.3282,-1.3028,-1.2996,-1.2981,-1.2957,-1.2742,-1.2637,-1.2621,-1.2621,-1.2621,-1.2621,-1.2621,-1.2621,-1.2621,-1.2621,-1.2621,-1.2621,-1.2621,-1.2621,-1.2621,-1.2621,-1.2621,-1.2621,-1.2621,-1.2493,-1.2134,-1.1696,-1.1406,-1.1403,-1.0457,-0.9603,-0.9522,-0.9768,-0.9926,-3.1476,0.0,-3.0745,-3.0275,0.0,-2.9325,-2.8975,-2.885,-2.885,-2.885,-2.885,-2.885,-2.885,-2.8724,-2.8254,-2.7945,-2.8014,-2.7534,-2.7326,-2.7326,-2.7326,-2.7195,-2.6944,-2.6725,-2.6507,-2.6267,-2.6016,-2.5895,-2.5895,-2.5895,-2.5775,-2.5524,-2.5054,-2.4585,-2.4093,-2.3372,-2.2652,-2.1964,-2.1942,-2.1712,-2.1243,-2.1221,-2.0992,-2.0522,0.0,0.0,0.0,0.0,0.0,0.0,0.0,0.0,0.0,0.0,0.0,-1.943,-1.9637,-1.967,-1.9441,-1.9156,-1.8913,-1.8551,-1.7856,-1.7169,-1.6694,-1.6485,-1.6211,-1.6019,-1.6001,-1.5853,-1.5522,-1.544,-1.5301,-1.4976,-1.5106,-1.4909,-1.4469,-1.4543,-1.4416,-1.3778,-1.3778,-1.3719,-1.3354,-1.3179,-1.3092,-1.3068,-1.279,-1.2621,-1.2621,-1.2621,-1.2621,-1.2621,-1.2621,-1.2621,-1.2621,-1.2621,-1.2621,-1.2621,-1.2621,-1.2621,-1.2621,-1.2621,-1.2621,-1.2621,-1.2621,-1.2437,-1.1837,-1.1503,-1.1263,-1.1104,-1.0324,-0.9591,-0.9382,-0.9775,-1.025,-3.1618,-3.1575,-3.1094,-3.0624,-3.0177,-2.9696,-2.9205,-2.885,0.0,0.0,0.0,-2.885,-2.885,-2.8724,-2.8342,-2.8178,-2.8156,-2.808,-2.7945,-2.7945,-2.7945,-2.8003,-2.7872,-2.7119,-2.6704,-2.6605,-2.6136,-2.5895,-2.5895,-2.5895,-2.5895,-2.5852,-2.5415,-2.4902,-2.4344,-2.3536,-2.2903,-2.2466,-2.2433,-2.2204,-2.1734,-2.1723,-2.1483,-2.107,-2.1059,-2.0806,-2.0357,-2.0402,-2.0292,-2.0282,-2.0282,-2.0216,-2.0271,-2.0129,-2.0129,-2.026,-2.0194,-2.0085,-2.0085,-2.0085,-1.9736,-1.8854,-1.791,-1.7373,-1.7569,-1.7176,-1.6771,-1.645,-1.6422,-1.6151,-1.5561,-1.5525,-1.5384,-1.5045,-1.4979,-1.5123,-1.5303,-1.5025,-1.4689,-1.4547,-1.4295,-1.4162,-1.3747,-1.3394,-1.3179,-1.3124,-1.2838,-1.2621,-1.2621,-1.2621,-1.2621,-1.2621,-1.2621,-1.2621,-1.2621,-1.2621,-1.2621,-1.2621,-1.2621,-1.2621,-1.2621,-1.2621,-1.2621,-1.2621,-1.2589,-1.2186,-1.1662,-1.136,-1.1133,-1.0816,-1.0151,-0.9691,-0.9807,-1.0024,-1.0431,-3.1618,-3.1575,-3.1094,-3.0635,-3.0177,-2.9685,-2.9216,-2.8861,-2.885,-2.885,-2.885,-2.885,-2.885,-2.885,-2.868,-2.8659,-2.8626,-2.8222,-2.7945,0.0,-2.7945,-2.7818,-2.7424,-2.7282,-2.7009,-2.6616,-2.6136,-2.5895,-2.5895,-2.5895,-2.5895,-2.5841,-2.5404,-2.4727,-2.3897,-2.37,-2.3383,-2.2925,-2.2892,-2.2684,-2.2226,-2.2204,-2.1974,-2.1527,-2.1483,-2.1461,-2.1385,-2.1374,-2.1188,-2.0795,-2.0762,-2.0762,-2.0751,-2.038,-2.0325,-2.0697,-2.038,-2.0085,-2.0096,-2.0085,-2.0009,-1.9868,-1.932,-1.8442,-1.7107,-1.6978,-1.6881,-1.6817,-1.6807,-1.6807,-1.6674,-1.6638,-1.6405,-1.6078,-1.6104,-1.5791,-1.5035,-1.5074,-1.48,-1.3985,-1.4234,-1.4417,-1.4061,-1.3735,-1.3505,-1.3418,-1.2941,-1.2621,-1.2621,-1.2621,-1.2621,-1.2621,-1.2621,-1.2621,-1.2621,-1.2621,-1.2621,-1.2621,-1.2621,-1.2621,-1.2621,-1.2597,-1.2581,-1.2605,-1.2313,-1.1956,-1.1527,-1.1225,-1.1005,-1.0653,-1.0151,-0.9956,-1.0225,-1.0142,-0.9978,-3.1618,-3.1564,-3.1105,-3.0777,-3.0526,-2.9794,-2.9205,-2.8861,-2.885,-2.885,-2.885,-2.885,-2.885,-2.885,-2.885,-2.885,-2.8839,-2.8528,-2.8429,-2.8429,-2.8429,-2.8309,-2.8058,-2.7555,-2.7195,-2.6966,-2.6245,-2.5895,-2.5895,-2.5895,-2.5895,-2.5874,-2.5415,-2.4825,-2.417,-2.3864,-2.3482,-2.3012,-2.3001,-2.2892,-2.2695,-2.2684,-2.2455,-2.1996,-2.1985,-2.1854,-2.1603,-2.1603,-2.1494,-2.1254,-2.1265,-2.1254,-2.1243,-2.1057,-2.1024,-2.1232,-2.1046,-2.0806,-2.0544,-1.9997,-1.966,-1.966,-1.9177,-1.8566,-1.7833,-1.7501,-1.7235,-1.6908,-1.6908,-1.6908,-1.6908,-1.6908,-1.6839,-1.663,-1.663,-1.6332,-1.5713,-1.5721,-1.5415,-1.4653,-1.4709,-1.4783,-1.4418,-1.4093,-1.3783,-1.3584,-1.2989,-1.2637,-1.2621,-1.2621,-1.2621,-1.2621,-1.2621,-1.2621,-1.2621,-1.2621,-1.2621,-1.2621,-1.2621,-1.2621,-1.2605,-1.2432,-1.2266,-1.2254,-1.2067,-1.1725,-1.1138,-1.132,-1.1185,-1.0629,-1.0533,-1.0512,-1.049,-1.03,-1.0198,-3.1618,-3.1586,-3.1214,-3.0996,-3.0799,-2.9893,-2.9259,-2.8921,-2.8905,-2.885,-2.885,-2.885,-2.885,-2.885,-2.885,-2.885,-2.885,-2.885,-2.885,-2.885,-2.885,-2.885,-2.8659,-2.7763,-2.7315,-2.7206,-2.6343,-2.5895,-2.5895,-2.5895,-2.5895,-2.5863,-2.5524,-2.5109,-2.465,-2.4148,-2.3656,-2.3198,-2.3067,-2.3001,-2.3001,-2.3001,-2.2826,-2.251,-2.2466,-2.2291,-2.1931,-2.1909,-2.1854,-2.1756,-2.1745,-2.1745,-2.1745,-2.1647,-2.1636,-2.1723,-2.1647,-2.1428,-2.1035,-2.021,-1.9666,-1.9666,-1.9029,-1.8633,-1.8442,-1.8037,-1.751,-1.7176,-1.6978,-1.6908,-1.6908,-1.6908,-1.6908,-1.6908,-1.6839,-1.6551,-1.6272,-1.6132,-1.5771,-1.5204,-1.5062,-1.4919,-1.4649,-1.4331,-1.3942,-1.3473,-1.2941,-1.2653,-1.2621,-1.2621,-1.2621,-1.2621,-1.2621,-1.2621,-1.2621,-1.2621,-1.2621,-1.2621,-1.2621,-1.2621,-1.2512,-1.2258,-1.1932,-1.1789,-1.1725,-1.1487,-1.0929,-1.1185,-1.1376,-1.0875,-1.0883,-1.0852,-1.0542,-1.047,-1.0462,-3.1618,-3.1618,-3.1553,-3.1302,-3.0788,-2.9893,-2.9456,-2.9347,-2.8953,-2.885,-2.885,-2.885,-2.885,-2.885,-2.885,-2.885,-2.885,-2.885,-2.885,-2.885,-2.885,-2.885,-2.868,-2.7774,-2.7315,-2.7217,-2.6387,-2.5972,-2.595,-2.5906,-2.5895,-2.5895,-2.5852,-2.5579,-2.5109,-2.4639,-2.4159,-2.3667,-2.323,-2.3001,-2.3001,-2.3001,-2.299,-2.2947,-2.2925,-2.2914,-2.2805,-2.287,-2.2673,-2.2302,-2.2248,-2.2248,-2.2215,-2.1843,-2.18,-2.2193,-2.1854,-2.1559,-2.1505,-2.1068,-2.0717,-2.0684,-1.9828,-1.9065,-1.8586,-1.8046,-1.7716,-1.7579,-1.7176,-1.6908,-1.6908,-1.6908,-1.6908,-1.6908,-1.663,-1.6202,-1.5912,-1.5551,-1.5133,-1.4705,-1.4713,-1.4633,-1.4601,-1.4307,-1.3839,-1.3267,-1.2838,-1.2621,-1.2621,-1.2621,-1.2621,-1.2621,-1.2621,-1.2621,-1.2621,-1.2621,-1.2621,-1.2621,-1.2621,-1.2621,-1.2549,-1.225,-1.1892,-1.1614,-1.1304,-1.1217,-1.1138,-1.1169,-1.1249,-1.1257,-1.1114,-1.0891,-1.0574,-1.0522,-1.0522,-3.1618,-3.1597,-3.1313,-3.0919,-3.0461,-3.0067,-2.9751,-2.9434,-2.8964,-2.885,-2.885,-2.885,-2.885,-2.885,-2.885,-2.885,-2.885,-2.885,-2.885,-2.885,-2.885,-2.885,-2.868,-2.8069,-2.7741,-2.7697,-2.7053,-2.6605,-2.6321,-2.6037,-2.5895,-2.5895,-2.5895,-2.5655,-2.5164,-2.4716,-2.4246,-2.3744,-2.3252,-2.3001,-2.3001,-2.3001,-2.3001,-2.3001,-2.3001,-2.3001,-2.3001,-2.3001,-2.2914,-2.2739,-2.2717,-2.2728,-2.2717,-2.2531,-2.251,-2.2673,-2.228,-2.2018,-2.2018,-2.157,-2.1286,-2.1297,-2.0625,-2.0143,-1.9921,-1.9142,-1.8499,-1.8104,-1.7364,-1.6908,-1.6908,-1.6908,-1.6908,-1.6908,-1.676,-1.6482,-1.6123,-1.5771,-1.5417,-1.4991,-1.4784,-1.4569,-1.4482,-1.414,-1.3632,-1.3155,-1.279,-1.2637,-1.2621,-1.2621,-1.2621,-1.2621,-1.2621,-1.2621,-1.2621,-1.2621,-1.2621,-1.2621,-1.2621,-1.2621,-1.2581,-1.2258,-1.1916,-1.1686,-1.1574,-1.1447,-1.1376,-1.171,-1.19,-1.1686,-1.1225,-1.0891,-1.0534,-1.0522,-1.0522,-3.1618,-3.1575,-3.1225,-3.0821,-3.0395,-3.0264,-2.9936,-2.9445,-2.8964,-2.885,-2.885,-2.885,-2.885,-2.885,-2.885,-2.885,-2.885,-2.885,-2.885,-2.885,-2.885,-2.885,-2.8713,-2.8265,-2.7945,-2.796,-2.7534,-2.714,-2.678,-2.6343,-2.6092,-2.6092,-2.5972,-2.5732,-2.5349,-2.4814,-2.4312,-2.3919,-2.334,-2.3001,-2.3001,-2.3001,-2.3001,-2.3001,-2.3001,-2.3001,-2.3001,-2.3001,-2.3001,-2.3001,-2.3001,-2.3001,-2.3001,-2.3001,-2.3001,-2.2979,-2.2695,-2.251,-2.251,-2.2062,-2.1778,-2.1756,-2.1261,-2.0787,-2.0547,-1.9697,-1.8843,-1.824,-1.7432,-1.6908,-1.6908,-1.6908,-1.6908,-1.6908,-1.6839,-1.6551,-1.6202,-1.5833,-1.548,-1.5062,-1.4705,-1.4569,-1.4474,-1.4061,-1.3497,-1.3267,-1.2916,-1.2621,-1.2621,-1.2621,-1.2621,-1.2621,-1.2621,-1.2621,-1.2621,-1.2621,-1.2621,-1.2621,-1.2621,-1.2621,-1.2597,-1.2242,-1.2019,-1.186,-1.1916,-1.1892,-1.1725,-1.2067,-1.2242,-1.1694,-1.1289,-1.0971,-1.055,-1.0545,-1.0522,-3.1618,-3.1618,-3.1597,-3.1291,-3.0832,-3.0395,-2.9936,-2.9445,-2.8964,-2.885,-2.885,-2.885,-2.885,-2.885,-2.885,-2.885,-2.885,-2.885,-2.885,-2.885,-2.885,-2.885,-2.8713,-2.8265,-2.8058,-2.8069,-2.7676,-2.7381,-2.7272,-2.6802,-2.6594,-2.6562,-2.6125,-2.5884,-2.571,-2.4956,-2.4486,-2.4366,-2.3569,-2.3034,-2.3023,-2.3023,-2.3023,-2.3001,-2.3001,-2.3001,-2.3001,-2.3001,-2.3001,-2.3001,-2.3001,-2.3001,-2.3001,-2.3001,-2.3001,-2.299,-2.2968,-2.2947,-2.2892,-2.2521,-2.228,-2.2143,-2.1353,-2.0656,-2.0318,-1.9302,-1.8527,-1.7823,-1.743,-1.7084,-1.6908,-1.6908,-1.6908,-1.6839,-1.6551,-1.6193,-1.5903,-1.5559,-1.5062,-1.4776,-1.4641,-1.4545,-1.4601,-1.4029,-1.3664,-1.3425,-1.2981,-1.2637,-1.2621,-1.2621,-1.2621,-1.2621,-1.2621,-1.2621,-1.2621,-1.2621,-1.2621,-1.2621,-1.2621,-1.2621,-1.244,-1.2297,-1.2146,-1.1996,-1.1892,-1.1876,-1.1964,-1.1972,-1.194,-1.1686,-1.1519,-1.1193,-1.0701,-1.0526,-1.0522,-3.1618,-3.1618,-3.1618,-3.1334,-3.0865,-3.0406,-2.9925,-2.9445,-2.8964,-2.885,-2.885,-2.885,-2.885,-2.885,-2.885,-2.885,-2.885,-2.885,-2.885,-2.885,-2.885,-2.885,-2.8735,-2.8571,-2.8495,-2.8462,-2.832,-2.808,-2.7708,-2.7009,-2.6627,-2.6551,-2.6136,-2.5895,-2.5775,-2.5262,-2.4923,-2.4858,-2.4268,-2.3798,-2.3482,-2.3471,-2.3318,-2.3023,-2.3001,-2.3001,-2.3001,-2.3001,-2.3001,-2.3001,-2.3001,-2.3001,-2.3001,-2.3001,-2.3001,-2.3001,-2.3001,-2.3001,-2.2979,-2.2848,-2.2761,-2.2622,-2.1517,-2.1044,-2.1144,-2.024,-1.9241,-1.8765,-1.8527,-1.8033,-1.7102,-1.6908,-1.676,-1.6551,-1.6412,-1.6132,-1.5833,-1.548,-1.5133,-1.4991,-1.4776,-1.449,-1.4347,-1.4069,-1.3839,-1.3584,-1.3187,-1.2853,-1.2615,-1.2629,-1.2645,-1.2629,-1.2621,-1.2621,-1.2621,-1.2621,-1.2621,-1.2621,-1.2621,-1.2621,-1.2549,-1.2525,-1.2345,-1.2321,-1.2115,-1.2107,-1.2282,-1.2274,-1.2131,-1.1821,-1.1662,-1.1312,-1.0899,-1.0613,-1.0545,-3.1618,-3.1618,-3.1618,-3.1258,-3.0668,-3.0351,-2.9838,-2.9248,-2.8899,-2.885,-2.885,-2.885,-2.885,-2.885,-2.885,-2.885,-2.885,-2.885,-2.885,-2.885,-2.885,-2.885,-2.885,-2.885,-2.885,-2.885,-2.885,-2.8582,-2.8222,-2.7468,-2.7009,-2.6824,-2.6365,-2.6048,-2.5852,-2.5415,-2.5175,-2.5087,-2.4727,-2.4235,-2.3798,-2.3733,-2.3504,-2.3088,-2.3001,-2.3001,-2.3001,-2.3001,-2.3001,-2.3001,-2.3001,-2.3001,-2.3001,-2.3001,-2.3001,-2.3001,-2.3001,-2.3001,-2.3001,-2.3001,-2.3001,-2.2979,-2.2153,-2.18,-2.2197,-2.1186,-2.0232,-1.9565,-1.9023,-1.8337,-1.7427,-1.6991,-1.6769,-1.6342,-1.6202,-1.5982,-1.5621,-1.5196,-1.5062,-1.4919,-1.4776,-1.4522,-1.4323,-1.4188,-1.4005,-1.3767,-1.3465,-1.3124,-1.2822,-1.2766,-1.2765,-1.2661,-1.2629,-1.2621,-1.2621,-1.2621,-1.2621,-1.2621,-1.2621,-1.2621,-1.2621,-1.2621,-1.2621,-1.2621,-1.2621,-1.2621,-1.2621,-1.2621,-1.2321,-1.1972,-1.1654,-1.132,-1.0963,-1.0621,-1.0518,-3.1618,-3.1618,-3.1618,-3.1127,-3.0384,-3.034,-2.9759,-2.9047,-2.8872,-2.8932,-2.885,-2.885,-2.885,-2.885,-2.885,-2.885,-2.885,-2.885,-2.885,-2.885,-2.885,-2.885,-2.885,-2.885,-2.885,-2.885,-2.885,-2.885,-2.8659,-2.8145,-2.7687,-2.7272,-2.6791,-2.631,-2.5906,-2.548,-2.5218,-2.5153,-2.4836,-2.4334,-2.382,-2.3798,-2.3547,-2.3067,-2.3001,-2.3001,-2.3001,-2.3001,-2.3001,-2.3001,-2.3001,-2.3001,-2.3001,-2.3001,-2.3001,-2.3001,-2.3001,-2.3001,-2.3001,-2.3001,-2.3001,-2.2968,-2.285,-2.2505,-2.2277,-2.1792,-2.0948,-1.9929,-1.9059,-1.8218,-1.7555,-1.704,-1.6621,-1.6342,-1.6053,-1.5692,-1.5275,-1.4848,-1.4569,-1.4633,-1.4569,-1.4569,-1.449,-1.4371,-1.4172,-1.4077,-1.3815,-1.3505,-1.3219,-1.3171,-1.302,-1.2734,-1.2645,-1.2621,-1.2621,-1.2621,-1.2621,-1.2621,-1.2621,-1.2621,-1.2621,-1.2621,-1.2621,-1.2621,-1.2621,-1.2621,-1.2597,-1.2565,-1.2289,-1.1964,-1.1654,-1.136,-1.1066,-1.0772,-1.0542,-3.1618,-3.1618,-3.1618,-3.1269,-3.0756,-3.1002,-3.0477,-2.9415,-2.9631,-2.9382,-2.8943,-2.885,-2.885,-2.885,-2.885,-2.885,-2.885,-2.885,-2.885,-2.885,-2.885,-2.885,-2.885,-2.885,-2.885,-2.885,-2.885,-2.885,-2.8669,-2.8276,-2.7785,-2.7315,-2.6856,-2.6376,-2.5917,-2.5742,-2.5677,-2.5655,-2.5535,-2.5087,-2.4344,-2.4257,-2.3853,-2.3099,-2.3001,-2.3001,-2.3001,-2.3001,-2.3001,-2.3001,-2.3001,-2.3001,-2.3001,-2.3001,-2.3001,-2.3001,-2.3001,-2.3001,-2.3001,-2.3001,-2.3001,-2.2861,-2.2412,-2.2347,-2.2559,-2.2017,-2.1209,-2.0406,-1.9588,-1.8658,-1.7639,-1.6634,-1.6132,-1.5974,-1.5833,-1.548,-1.4919,-1.4705,-1.4641,-1.4569,-1.4569,-1.4569,-1.4553,-1.4419,-1.445,-1.4418,-1.4156,-1.3878,-1.3775,-1.3505,-1.3227,-1.2965,-1.279,-1.2629,-1.2621,-1.2621,-1.2621,-1.2621,-1.2621,-1.2621,-1.2621,-1.2621,-1.2621,-1.2621,-1.2621,-1.2613,-1.2581,-1.2377,-1.2162,-1.194,-1.1638,-1.1392,-1.1232,-1.0953,-1.0641,-3.1618,-3.1618,-3.1618,-3.1537,-3.156,-3.1809,-3.1601,-3.091,-3.0583,-3.0182,-2.9617,-2.8998,-2.885,-2.885,-2.885,-2.885,-2.885,-2.885,-2.885,-2.885,-2.885,-2.885,-2.885,-2.885,-2.885,-2.885,-2.885,-2.885,-2.8735,-2.844,-2.7971,-2.7359,-2.702,-2.654,-2.5972,-2.5895,-2.5895,-2.5895,-2.5874,-2.5448,-2.4683,-2.4486,-2.4006,-2.3165,-2.3001,-2.3001,-2.3001,-2.3001,-2.3001,-2.3001,-2.3001,-2.3001,-2.3001,-2.3001,-2.3001,-2.3001,-2.3001,-2.3001,-2.3001,-2.3001,-2.3001,-2.2861,-2.2412,-2.2295,-2.2733,-2.2295,-2.1734,-2.0917,-2.0116,-1.9078,-1.7697,-1.6634,-1.5938,-1.5621,-1.5551,-1.5267,-1.4705,-1.4569,-1.4569,-1.4569,-1.4569,-1.4569,-1.4569,-1.4569,-1.4569,-1.453,-1.445,-1.422,-1.4132,-1.3942,-1.3632,-1.3227,-1.2782,-1.2631,-1.2637,-1.2621,-1.2621,-1.2621,-1.2621,-1.2621,-1.2621,-1.2621,-1.2621,-1.2621,-1.2621,-1.2621,-1.2589,-1.225,-1.2011,-1.1797,-1.1582,-1.1201,-1.0953,-1.0777,-1.053,-3.1618,-3.1629,-3.1721,-3.2062,-3.2523,-3.2711,-3.2853,-3.285,-3.1762,-3.1021,-3.0536,-2.9364,-2.885,-2.885,-2.885,-2.885,-2.885,-2.885,-2.885,-2.885,-2.885,-2.885,-2.885,-2.885,-2.885,-2.885,-2.885,-2.885,-2.8839,-2.8702,-2.8276,-2.749,-2.7282,-2.6856,-2.6157,-2.5939,-2.5895,-2.5895,-2.5895,-2.5437,-2.4552,-2.4486,-2.4017,-2.3067,-2.3001,-2.3001,-2.3001,-2.3001,-2.3001,-2.3001,-2.3001,-2.3001,-2.3001,-2.3001,-2.3001,-2.3001,-2.3001,-2.3001,-2.3001,-2.3001,-2.3001,-2.299,-2.2957,-2.3001,-2.2968,-2.2861,-2.2371,-2.1349,-2.0414,-1.933,-1.7908,-1.6857,-1.6114,-1.5409,-1.5267,-1.4991,-1.4633,-1.4569,-1.4569,-1.4569,-1.4569,-1.4569,-1.4569,-1.4569,-1.4569,-1.4561,-1.4537,-1.445,-1.4331,-1.4196,-1.4029,-1.3561,-1.2965,-1.2703,-1.2709,-1.2621,-1.2621,-1.2621,-1.2621,-1.2621,-1.2621,-1.2621,-1.2621,-1.2621,-1.2621,-1.2621,-1.2533,-1.221,-1.198,-1.1789,-1.1439,-1.0947,-1.0724,-1.0697,-1.0577,-3.1618,-3.1721,-3.2409,-3.2921,-3.3146,-3.4138,-3.4044,-3.3256,-3.2452,-3.1489,-3.0411,-2.9265,-2.885,-2.885,-2.885,-2.885,-2.885,-2.885,-2.885,-2.885,-2.885,-2.885,-2.885,-2.885,-2.885,-2.885,-2.885,-2.885,-2.885,-2.885,-2.8429,-2.785,-2.7446,-2.7031,-2.6485,-2.607,-2.5917,-2.5895,-2.5895,-2.5437,-2.4639,-2.4486,-2.4006,-2.3121,-2.3001,-2.3001,-2.3001,-2.3001,-2.3001,-2.3001,-2.3001,-2.3001,-2.3001,-2.3001,-2.3001,-2.3001,-2.3001,-2.3001,-2.3001,-2.3001,-2.3001,-2.3001,-2.3001,-2.3001,-2.3001,-2.3001,-2.2542,-2.1631,-2.0592,-1.962,-1.8768,-1.75,-1.6456,-1.5692,-1.5133,-1.4713,-1.4633,-1.4569,-1.4569,-1.4569,-1.4569,-1.4569,-1.4569,-1.4569,-1.4569,-1.4569,-1.4561,-1.4617,-1.4435,-1.4458,-1.4299,-1.3767,-1.3243,-1.2925,-1.2773,-1.2677,-1.2621,-1.2621,-1.2621,-1.2621,-1.2621,-1.2621,-1.2621,-1.2621,-1.2621,-1.2621,-1.2501,-1.2258,-1.2035,-1.1733,-1.1304,-1.086,-1.0899,-1.086,-1.0721,-3.1823,-3.2319,-3.2901,-3.3697,-3.4533,-3.538,-3.5133,-3.4232,-3.3588,-3.2328,-3.0709,-2.9714,-2.9209,-2.885,-2.885,-2.885,-2.885,-2.885,-2.885,-2.885,-2.885,-2.885,-2.885,-2.885,-2.885,-2.885,-2.885,-2.885,-2.885,-2.885,-2.8495,-2.8025,-2.7545,-2.7086,-2.6605,-2.6157,-2.5895,-2.5895,-2.5874,-2.5448,-2.4574,-2.4486,-2.394,-2.3209,-2.3001,-2.3001,-2.3001,-2.3001,-2.3001,-2.3001,-2.3001,-2.3001,-2.3001,-2.3001,-2.3001,-2.3001,-2.3001,-2.3001,-2.3001,-2.3001,-2.3001,-2.3001,-2.3001,-2.3001,-2.3001,-2.2927,-2.2553,-2.179,-2.0851,-2.0015,-1.8942,-1.75,-1.6167,-1.5338,-1.4848,-1.4569,-1.4569,-1.4569,-1.4569,-1.4569,-1.4569,-1.4569,-1.4569,-1.4569,-1.4569,-1.4569,-1.4569,-1.4561,-1.4545,-1.4537,-1.4411,-1.3815,-1.3386,-1.3052,-1.2805,-1.2653,-1.2621,-1.2621,-1.2621,-1.2621,-1.2621,-1.2621,-1.2621,-1.2621,-1.2621,-1.2597,-1.2501,-1.2226,-1.1821,-1.1487,-1.1106,-1.0875,-1.0836,-1.0931,-1.0801,-3.251,-3.34,-3.3487,-3.4569,-3.6023,-3.6307,-3.6037,-3.5612,-3.4462,-3.3089,-3.1492,-3.0468,-2.9555,-2.8932,-2.8943,-2.885,-2.885,-2.885,-2.885,-2.885,-2.885,-2.885,-2.885,-2.885,-2.885,-2.885,-2.885,-2.885,-2.885,-2.885,-2.8549,-2.8134,-2.7621,-2.714,-2.6725,-2.6201,-2.5928,-2.5895,-2.5895,-2.5415,-2.4661,-2.4443,-2.3973,-2.3165,-2.3001,-2.3001,-2.3001,-2.3001,-2.3001,-2.3001,-2.3001,-2.3001,-2.3001,-2.3001,-2.3001,-2.3001,-2.3001,-2.3001,-2.3001,-2.3001,-2.3001,-2.3001,-2.3001,-2.3001,-2.2927,-2.2777,-2.2478,-2.1883,-2.1308,-2.0323,-1.8967,-1.708,-1.5893,-1.5196,-1.4848,-1.4569,-1.4569,-1.4569,-1.4569,-1.4569,-1.4569,-1.4569,-1.4569,-1.4569,-1.4569,-1.4569,-1.4569,-1.4569,-1.4569,-1.4553,-1.4275,-1.3719,-1.3378,-1.3132,-1.2838,-1.2629,-1.2621,-1.2621,-1.2621,-1.2621,-1.2621,-1.2621,-1.2621,-1.2621,-1.2621,-1.2621,-1.2528,-1.2194,-1.1781,-1.1447,-1.1209,-1.0836,-1.0558,-1.0764,-1.0785,-3.4288,-3.4483,-3.5259,-3.5833,-3.6225,-3.6307,-3.6472,-3.6367,-3.3683,-3.2967,-3.2527,-3.0388,-2.9566,-2.9806,-2.9198,-2.885,-2.8943,-2.885,-2.885,-2.885,-2.885,-2.885,-2.885,-2.885,-2.885,-2.885,-2.885,-2.885,-2.885,-2.885,-2.8724,-2.8506,-2.7785,-2.7272,-2.7064,-2.6354,-2.5906,-2.5895,-2.5895,-2.5426,-2.4727,-2.4508,-2.405,-2.3165,-2.3045,-2.3012,-2.3001,-2.3001,-2.3001,-2.3001,-2.3001,-2.3001,-2.3001,-2.3001,-2.3001,-2.3001,-2.3001,-2.3001,-2.3001,-2.3001,-2.3001,-2.3001,-2.3001,-2.2927,-2.2713,-2.2713,-2.2478,-2.2103,-2.167,-2.0824,-1.9332,-1.7404,-1.629,-1.5786,-1.5135,-1.4681,-1.4641,-1.4569,-1.4569,-1.4569,-1.4569,-1.4569,-1.4569,-1.4569,-1.4569,-1.4569,-1.4569,-1.4569,-1.4569,-1.4569,-1.4212,-1.3696,-1.3505,-1.3243,-1.2845,-1.2621,-1.2621,-1.2621,-1.2621,-1.2621,-1.2621,-1.2621,-1.2621,-1.2621,-1.2621,-1.2621,-1.2613,-1.2437,-1.2054,-1.1662,-1.1289,-1.0899,-1.0637,-1.074,-1.0724,-3.5066,-3.5547,-3.6118,-3.6615,-3.7015,-3.7002,-3.6621,-3.5801,-3.4607,-3.3379,-3.2616,-3.1151,-3.0609,-3.026,-3.0079,-2.9909,-2.9555,-2.9463,-2.9198,-2.8932,-2.885,-2.885,-2.885,-2.885,-2.885,-2.885,-2.885,-2.885,-2.885,-2.885,-2.885,-2.8713,-2.8003,-2.7555,-2.7272,-2.6594,-2.6157,-2.5939,-2.5895,-2.5535,-2.4934,-2.4792,-2.4344,-2.3547,-2.3329,-2.3252,-2.3023,-2.3001,-2.3001,-2.3001,-2.3001,-2.3001,-2.3001,-2.3001,-2.3001,-2.3001,-2.3001,-2.3001,-2.3001,-2.3001,-2.3001,-2.3001,-2.3001,-2.2852,-2.2703,-2.2628,-2.2478,-2.2285,-2.1924,-2.1198,-1.9495,-1.7678,-1.6756,-1.643,-1.5765,-1.5275,-1.5332,-1.4961,-1.4569,-1.4569,-1.4569,-1.4569,-1.4569,-1.4641,-1.4633,-1.4633,-1.4569,-1.4569,-1.4569,-1.4506,-1.422,-1.3831,-1.3656,-1.3338,-1.2861,-1.2621,-1.2621,-1.2621,-1.2621,-1.2621,-1.2621,-1.2621,-1.2621,-1.2621,-1.2621,-1.2621,-1.2589,-1.2414,-1.2142,-1.163,-1.1217,-1.0899,-1.0729,-1.0673,-1.0633,-3.5738,-3.6521,-3.6521,-3.707,-3.7678,-3.7547,-3.6456,-3.5277,-3.5263,-3.3997,-3.2535,-3.2785,-3.1665,-3.1057,-3.1223,-3.1045,-3.0351,-3.0091,-2.9646,-2.885,-2.885,-2.885,-2.885,-2.885,-2.885,-2.885,-2.885,-2.885,-2.885,-2.885,-2.885,-2.8669,-2.8276,-2.7752,-2.7293,-2.6846,-2.6354,-2.5961,-2.5895,-2.5655,-2.5207,-2.5098,-2.465,-2.4039,-2.3831,-2.3602,-2.3296,-2.3165,-2.3099,-2.3012,-2.3001,-2.3001,-2.3001,-2.3001,-2.3001,-2.3001,-2.3001,-2.3001,-2.3001,-2.3001,-2.3001,-2.3001,-2.2927,-2.2852,-2.2703,-2.2553,-2.2402,-2.2274,-2.1912,-2.1179,-1.9516,-1.8136,-1.7441,-1.7133,-1.6548,-1.6263,-1.6249,-1.5613,-1.5256,-1.4569,-1.4641,-1.4633,-1.4713,-1.4784,-1.4776,-1.4705,-1.4633,-1.4569,-1.4569,-1.4466,-1.4212,-1.387,-1.3656,-1.3282,-1.2821,-1.2621,-1.2621,-1.2621,-1.2621,-1.2621,-1.2621,-1.2621,-1.2621,-1.2621,-1.2621,-1.2621,-1.2501,-1.2202,-1.1884,-1.1479,-1.1153,-1.0844,-1.0645,-1.0545,-1.0561,-3.7505,-3.7611,-3.7611,-3.743,-3.7001,-3.6195,-3.5903,-3.5543,-3.397,-3.3695,-3.4353,-3.2773,-3.2289,-3.2202,-3.1765,-3.1146,-3.0531,-3.026,-2.9726,-2.8932,-2.885,-2.885,-2.885,-2.885,-2.885,-2.885,-2.885,-2.885,-2.885,-2.885,-2.885,-2.8659,-2.832,-2.7839,-2.7326,-2.6856,-2.6431,-2.5972,-2.5895,-2.5655,-2.536,-2.5207,-2.4989,-2.4421,-2.4355,-2.4082,-2.3733,-2.358,-2.3427,-2.3067,-2.3012,-2.3012,-2.3034,-2.3034,-2.3001,-2.3001,-2.3001,-2.3001,-2.3001,-2.3001,-2.3001,-2.3001,-2.2852,-2.2777,-2.2703,-2.2553,-2.2402,-2.2167,-2.1647,-2.092,-2.066,-1.9173,-1.861,-1.8332,-1.7988,-1.7582,-1.7158,-1.6881,-1.6249,-1.5265,-1.4984,-1.4919,-1.5196,-1.5267,-1.5133,-1.4991,-1.4776,-1.4713,-1.4569,-1.4451,-1.4307,-1.395,-1.3608,-1.3171,-1.2687,-1.2669,-1.2621,-1.2621,-1.2621,-1.2621,-1.2621,-1.2621,-1.2621,-1.2621,-1.2621,-1.2621,-1.2369,-1.2115,-1.1821,-1.1519,-1.1169,-1.082,-1.0669,-1.0609,-1.0724,-3.79,-3.79,-3.79,-3.756,-3.6974,-3.6431,-3.6018,-3.5531,-3.4386,-3.4206,-3.4379,-3.356,-3.2993,-3.3079,-3.3164,-3.2289,-3.1057,-3.0351,-2.9726,-2.8932,-2.885,-2.885,-2.885,-2.885,-2.885,-2.885,-2.885,-2.885,-2.885,-2.885,-2.885,-2.8806,-2.8495,-2.8047,-2.7435,-2.7108,-2.6573,-2.6103,-2.5884,-2.5797,-2.5568,-2.5535,-2.5295,-2.4978,-2.4825,-2.4585,-2.4224,-2.4115,-2.4028,-2.3787,-2.3525,-2.3416,-2.3307,-2.3143,-2.3001,-2.3001,-2.3001,-2.3001,-2.3001,-2.2927,-2.2852,-2.3001,-2.2852,-2.2703,-2.2628,-2.2553,-2.2402,-2.2048,-2.1435,-2.0843,-2.0777,-1.9763,-1.9402,-1.9459,-1.9193,-1.8797,-1.8574,-1.836,-1.7442,-1.6329,-1.6112,-1.6087,-1.6026,-1.5965,-1.5621,-1.5267,-1.4991,-1.4848,-1.4633,-1.4609,-1.452,-1.389,-1.3557,-1.3068,-1.2709,-1.2731,-1.2621,-1.2629,-1.2621,-1.2621,-1.2683,-1.2683,-1.2621,-1.2621,-1.2621,-1.2683,-1.2432,-1.2218,-1.1892,-1.159,-1.1352,-1.109,-1.0788,-1.0677,-1.0867,-3.79,-3.79,-3.7769,-3.7377,-3.6854,-3.6698,-3.6057,-3.5247,-3.5103,-3.4757,-3.445,-3.4314,-3.3869,-3.3518,-3.3518,-3.3079,-3.1311,-3.0429,-2.9738,-2.8932,-2.885,-2.885,-2.885,-2.885,-2.885,-2.885,-2.885,-2.885,-2.885,-2.885,-2.885,-2.8839,-2.8839,-2.8342,-2.7632,-2.7337,-2.6769,-2.6299,-2.5906,-2.5906,-2.5895,-2.5874,-2.5732,-2.5371,-2.5327,-2.5098,-2.4672,-2.4618,-2.4519,-2.4334,-2.4093,-2.3831,-2.3678,-2.3351,-2.311,-2.3023,-2.3001,-2.3001,-2.3001,-2.2852,-2.2852,-2.3001,-2.2767,-2.2703,-2.2628,-2.2553,-2.2327,-2.2025,-2.1614,-2.1115,-2.1008,-2.0333,-2.0246,-2.0391,-2.0275,-1.9839,-2.0002,-1.9785,-1.9081,-1.8231,-1.7689,-1.7278,-1.7065,-1.6237,-1.5754,-1.5692,-1.5409,-1.5133,-1.4991,-1.5062,-1.4792,-1.4022,-1.3445,-1.2869,-1.2707,-1.2891,-1.2744,-1.2629,-1.2629,-1.2621,-1.2683,-1.2805,-1.2805,-1.2797,-1.292,-1.2964,-1.2668,-1.2305,-1.1996,-1.1741,-1.1582,-1.1376,-1.1106,-1.0995,-1.1106,-3.79,-3.7848,-3.7325,-3.6763,-3.6175,-3.5744,-3.5155,-3.4593,-3.4554,-3.4476,-3.4397,-3.4397,-3.4301,-3.3953,-3.3335,-3.2103,-3.0789,-3.017,-2.9555,-2.8839,-2.885,-2.885,-2.885,-2.885,-2.885,-2.885,-2.885,-2.885,-2.885,-2.885,-2.885,-2.885,-2.8713,-2.8451,-2.7894,-2.7577,-2.7053,-2.6551,-2.6114,-2.5895,-2.5895,-2.5895,-2.5841,-2.5797,-2.5732,-2.5557,-2.5153,-2.5076,-2.4967,-2.4607,-2.4486,-2.4181,-2.382,-2.3689,-2.3394,-2.3154,-2.3001,-2.3001,-2.3001,-2.2927,-2.2927,-2.2927,-2.2852,-2.2703,-2.2628,-2.2478,-2.2252,-2.2101,-2.1873,-2.1721,-2.1568,-2.1492,-2.1568,-2.1482,-2.1242,-2.1231,-2.1329,-2.0793,-2.0222,-1.976,-1.9039,-1.8408,-1.7978,-1.6857,-1.5965,-1.5895,-1.5833,-1.5551,-1.5376,-1.5475,-1.5124,-1.4347,-1.3933,-1.3397,-1.3042,-1.3155,-1.3058,-1.2813,-1.2813,-1.2744,-1.292,-1.3094,-1.3155,-1.3216,-1.3277,-1.3155,-1.2854,-1.251,-1.2142,-1.1932,-1.1813,-1.1646,-1.1447,-1.1416,-1.1463,-3.6881,-3.6867,-3.6593,-3.6162,-3.5652,-3.5391,-3.4959,-3.4476,-3.4397,-3.4397,-3.4397,-3.4397,-3.4134,-3.3602,-3.2624,-3.1488,-3.0339,-2.9726,-2.9198,-2.8932,-2.885,-2.885,-2.885,-2.885,-2.885,-2.885,-2.885,-2.885,-2.885,-2.885,-2.885,-2.885,-2.8828,-2.8506,-2.8123,-2.785,-2.7293,-2.6704,-2.619,-2.5917,-2.5895,-2.5895,-2.5895,-2.5895,-2.5895,-2.5764,-2.5633,-2.5579,-2.5513,-2.524,-2.5087,-2.4803,-2.4443,-2.4104,-2.3689,-2.3886,-2.3274,-2.3034,-2.3001,-2.2938,-2.2927,-2.2927,-2.2852,-2.2703,-2.2542,-2.2327,-2.2176,-2.1949,-2.1949,-2.1883,-2.1807,-2.1807,-2.1807,-2.1807,-2.1807,-2.1807,-2.1787,-2.1683,-2.1234,-2.0769,-2.0267,-1.9394,-1.8498,-1.7439,-1.6612,-1.6524,-1.6455,-1.6306,-1.6113,-1.61,-1.5528,-1.4669,-1.4374,-1.4189,-1.3865,-1.3692,-1.3493,-1.3319,-1.3302,-1.3294,-1.3329,-1.345,-1.3631,-1.3631,-1.3631,-1.339,-1.3086,-1.2692,-1.2342,-1.217,-1.2067,-1.1908,-1.1789,-1.2019,-1.2051,-3.5822,-3.5691,-3.5835,-3.5665,-3.5286,-3.5142,-3.4829,-3.4437,-3.4397,-3.4397,-3.4397,-3.4397,-3.3869,-3.3079,-3.2277,-3.1488,-3.017,-2.9463,-2.9024,-2.885,-2.885,-2.885,-2.885,-2.885,-2.885,-2.885,-2.885,-2.885,-2.885,-2.885,-2.885,-2.885,-2.885,-2.8582,-2.8309,-2.8014,-2.7555,-2.6671,-2.631,-2.607,-2.5928,-2.5895,-2.5895,-2.5895,-2.5895,-2.5895,-2.5895,-2.5884,-2.5863,-2.5775,-2.5546,-2.5284,-2.5,-2.4552,-2.4257,-2.4213,-2.3656,-2.3263,-2.3187,-2.3057,-2.2874,-2.2852,-2.2777,-2.2553,-2.2327,-2.2187,-2.2035,-2.1797,-2.1807,-2.1807,-2.1807,-2.1807,-2.1807,-2.1807,-2.1807,-2.1807,-2.1797,-2.1725,-2.1411,-2.0874,-2.0298,-1.9707,-1.8854,-1.7908,-1.7401,-1.7226,-1.707,-1.707,-1.6921,-1.6794,-1.6381,-1.562,-1.5149,-1.5032,-1.4816,-1.4443,-1.4127,-1.3926,-1.3978,-1.3907,-1.395,-1.4172,-1.446,-1.4341,-1.4112,-1.3511,-1.3094,-1.2773,-1.2565,-1.2453,-1.2282,-1.2186,-1.2186,-1.2477,-1.2432,-3.5025,-3.4554,-3.5129,-3.5325,-3.5221,-3.4685,-3.445,-3.4397,-3.4397,-3.4397,-3.4397,-3.4314,-3.3869,-3.3079,-3.2636,-3.1665,-3.017,-3.017,-2.9463,-2.8932,-2.885,-2.885,-2.885,-2.885,-2.885,-2.885,-2.885,-2.885,-2.885,-2.885,-2.885,-2.885,-2.885,-2.8828,-2.8538,-2.82,-2.761,-2.6878,-2.654,-2.6245,-2.6016,-2.5895,-2.5895,-2.5895,-2.5895,-2.5895,-2.5895,-2.5895,-2.5895,-2.5895,-2.5797,-2.5611,-2.5295,-2.5,-2.4803,-2.4596,-2.3962,-2.3646,-2.3525,-2.3188,-2.2948,-2.2852,-2.2628,-2.2327,-2.2176,-2.1959,-2.1807,-2.1807,-2.1807,-2.1807,-2.1807,-2.1807,-2.1807,-2.1807,-2.1807,-2.1807,-2.1807,-2.1807,-2.1453,-2.0884,-2.0369,-1.994,-1.9465,-1.8636,-1.7861,-1.7657,-1.7696,-1.7619,-1.761,-1.7494,-1.7424,-1.6862,-1.6243,-1.5954,-1.5897,-1.5603,-1.5352,-1.513,-1.5028,-1.4731,-1.4565,-1.4852,-1.5245,-1.4942,-1.4647,-1.3812,-1.3155,-1.3199,-1.3078,-1.2736,-1.2557,-1.2437,-1.2406,-1.2541,-1.2401,-3.4607,-3.4424,-3.4646,-3.475,-3.4724,-3.4502,-3.4397,-3.4397,-3.4397,-3.4397,-3.4397,-3.4314,-3.3869,-3.3079,-3.2289,-3.1488,-3.026,-2.9555,-2.9198,-2.8932,-2.885,-2.885,-2.885,-2.885,-2.885,-2.885,-2.885,-2.885,-2.885,-2.885,-2.885,-2.885,-2.8828,-2.885,-2.8604,-2.8309,-2.7687,-2.7162,-2.6747,-2.6387,-2.6005,-2.5895,-2.5895,-2.5895,-2.5895,-2.5895,-2.5895,-2.5895,-2.5895,-2.5895,-2.5895,-2.5753,-2.5568,-2.536,-2.5251,-2.512,-2.4377,-2.4006,-2.3951,-2.3493,-2.2948,-2.2777,-2.2478,-2.2187,-2.2101,-2.1883,-2.1807,-2.1807,-2.1807,-2.1807,-2.1807,-2.1807,-2.1807,-2.1807,-2.1807,-2.1807,-2.1807,-2.1807,-2.1756,-2.1257,-2.0864,-2.0493,-1.9971,-1.9442,-1.8734,-1.8105,-1.8202,-1.8162,-1.816,-1.8168,-1.8045,-1.7895,-1.7282,-1.7047,-1.6978,-1.6811,-1.6572,-1.6296,-1.6082,-1.5747,-1.5484,-1.5682,-1.5904,-1.5604,-1.5245,-1.4706,-1.4231,-1.3932,-1.358,-1.2981,-1.2683,-1.2597,-1.2605,-1.2621,-1.244,-3.4397,-3.4397,-3.4397,-3.4397,-3.4397,-3.4397,-3.4397,-3.4397,-3.4397,-3.4397,-3.4397,-3.4397,-3.3869,-3.2993,-3.2376,-3.1311,-3.0339,-2.9635,-2.9106,-2.8943,-2.885,-2.885,-2.885,-2.885,-2.885,-2.885,-2.885,-2.885,-2.885,-2.885,-2.885,-2.8724,-2.8626,-2.8582,-2.868,-2.8429,-2.7949,-2.737,-2.7009,-2.6474,-2.6026,-2.5895,-2.5895,-2.5895,-2.5895,-2.5895,-2.5895,-2.5895,-2.5895,-2.5895,-2.5895,-2.5895,-2.5775,-2.5666,-2.5622,-2.5382,-2.4978,-2.4323,-2.4159,-2.3569,-2.2885,-2.2628,-2.2327,-2.2101,-2.1949,-2.1883,-2.1807,-2.1807,-2.1807,-2.1807,-2.1807,-2.1807,-2.1807,-2.1807,-2.1807,-2.1807,-2.1807,-2.1807,-2.1807,-2.1597,-2.1246,-2.073,-2.0175,-1.9671,-1.9124,-1.8569,-1.8607,-1.8654,-1.8633,-1.8572,-1.8578,-1.8512,-1.8293,-1.8145,-1.8152,-1.7907,-1.7684,-1.7382,-1.7089,-1.6808,-1.6618,-1.6639,-1.6436,-1.6077,-1.572,-1.5536,-1.5059,-1.4469,-1.3821,-1.3103,-1.292,-1.2744,-1.2621,-1.2621,-1.2621,-3.4397,-3.4397,-3.4397,-3.4397,-3.4397,-3.4397,-3.4397,-3.4397,-3.4397,-3.4397,-3.4397,-3.4397,-3.3856,-3.3164,-3.2809,-3.1753,-3.0441,-3.0079,-2.9646,-2.8932,-2.885,-2.885,-2.885,-2.885,-2.8702,-2.8735,-2.8828,-2.8839,-2.8691,-2.8839,-2.8839,-2.8659,-2.8495,-2.8331,-2.8713,-2.8735,-2.8222,-2.7424,-2.7228,-2.666,-2.6103,-2.5895,-2.5895,-2.5895,-2.5895,-2.5895,-2.5895,-2.5895,-2.5895,-2.5895,-2.5895,-2.5895,-2.5863,-2.5841,-2.583,-2.5786,-2.536,-2.488,-2.4443,-2.3373,-2.2724,-2.2434,-2.2239,-2.2129,-2.1915,-2.1807,-2.1807,-2.1807,-2.1807,-2.1807,-2.1807,-2.1807,-2.1807,-2.1807,-2.1807,-2.1807,-2.1807,-2.1807,-2.1807,-2.1807,-2.1404,-2.0928,-2.0338,-1.9789,-1.9354,-1.9039,-1.9075,-1.9065,-1.8931,-1.8911,-1.8926,-1.8885,-1.8781,-1.872,-1.8661,-1.8858,-1.874,-1.842,-1.8006,-1.7532,-1.7206,-1.6979,-1.6739,-1.6451,-1.6144,-1.5836,-1.5362,-1.4893,-1.435,-1.3812,-1.3155,-1.292,-1.2744,-1.2683,-1.2805,-3.4397,-3.4397,-3.4397,-3.4397,-3.4397,-3.4397,-3.4397,-3.4397,-3.4397,-3.4397,-3.4397,-3.4397,-3.3869,-3.325,-3.2759,-3.1867,-3.0429,-3.017,-2.9726,-2.8943,-2.8828,-2.885,-2.885,-2.8702,-2.8593,-2.8451,-2.8506,-2.856,-2.8265,-2.8582,-2.8746,-2.8669,-2.8517,-2.8233,-2.8036,-2.7981,-2.7807,-2.7031,-2.6791,-2.654,-2.5994,-2.5917,-2.5895,-2.5895,-2.5895,-2.5895,-2.5895,-2.5895,-2.5895,-2.5895,-2.5895,-2.5895,-2.5895,-2.5895,-2.5895,-2.5808,-2.5437,-2.4712,-2.3959,-2.2982,-2.2434,-2.2336,-2.2244,-2.2102,-2.188,-2.1818,-2.1807,-2.1807,-2.1807,-2.1807,-2.1807,-2.1807,-2.1807,-2.1807,-2.1807,-2.1807,-2.1807,-2.1807,-2.1807,-2.1797,-2.1559,-2.1269,-2.0783,-2.0048,-1.952,-1.937,-1.9349,-1.9127,-1.9008,-1.9065,-1.9044,-1.9044,-1.9003,-1.9034,-1.9131,-1.9131,-1.9007,-1.8589,-1.8319,-1.8018,-1.7688,-1.7502,-1.7067,-1.6736,-1.6424,-1.6077,-1.5662,-1.5303,-1.505,-1.4638,-1.4103,-1.3692,-1.3631,-1.3459,-1.3216,-3.3796,-3.3835,-3.4031,-3.411,-3.4149,-3.4319,-3.4397,-3.4397,-3.4397,-3.4397,-3.4358,-3.4214,-3.3714,-3.3013,-3.2178,-3.1646,-3.0168,-2.9398,-2.9431,-2.8729,-2.8549,-2.8484,-2.8506,-2.8648,-2.8484,-2.8298,-2.844,-2.8571,-2.8396,-2.8615,-2.8615,-2.8549,-2.8648,-2.8167,-2.7861,-2.7829,-2.7894,-2.7239,-2.6944,-2.6725,-2.6289,-2.6037,-2.5906,-2.5895,-2.5895,-2.5895,-2.5895,-2.5895,-2.5895,-2.5895,-2.5895,-2.5895,-2.5895,-2.5895,-2.5895,-2.5764,-2.524,-2.4491,-2.367,-2.3043,-2.2592,-2.2067,-2.2205,-2.2087,-2.1869,-2.1818,-2.1807,-2.1807,-2.1807,-2.1807,-2.1807,-2.1807,-2.1807,-2.1807,-2.1807,-2.1807,-2.1807,-2.1807,-2.1807,-2.1797,-2.1725,-2.1476,-2.1176,-2.0441,-1.9737,-1.9613,-1.9567,-1.9303,-1.9096,-1.9075,-1.9131,-1.9131,-1.9131,-1.9131,-1.9131,-1.9131,-1.8975,-1.8661,-1.8516,-1.8402,-1.8299,-1.8081,-1.7522,-1.7005,-1.6801,-1.6509,-1.608,-1.5768,-1.5536,-1.542,-1.5245,-1.4883,-1.4588,-1.4231,-1.3872,-3.2698,-3.2777,-3.3326,-3.3561,-3.3652,-3.4031,-3.4267,-3.4345,-3.4345,-3.4345,-3.4319,-3.377,-3.3193,-3.2544,-3.1027,-3.0209,-2.978,-2.8299,-2.8374,-2.8488,-2.8353,-2.8233,-2.8331,-2.8549,-2.8418,-2.8353,-2.844,-2.8669,-2.8691,-2.8735,-2.8528,-2.8353,-2.8615,-2.8178,-2.7981,-2.7971,-2.7905,-2.7293,-2.6998,-2.6736,-2.6343,-2.607,-2.5939,-2.5895,-2.5895,-2.5895,-2.5895,-2.5895,-2.5895,-2.5895,-2.5895,-2.5895,-2.5895,-2.5895,-2.5895,-2.5622,-2.4956,-2.4324,-2.3709,-2.3115,-2.2643,-2.2088,-2.1915,-2.1894,-2.1818,-2.1883,-2.1883,-2.1883,-2.1797,-2.1807,-2.1807,-2.1807,-2.1807,-2.1807,-2.1807,-2.1807,-2.1807,-2.1807,-2.1807,-2.1776,-2.1704,-2.1507,-2.1259,-2.0648,-2.0069,-1.9893,-1.9717,-1.9385,-1.9199,-1.9142,-1.9131,-1.9131,-1.9131,-1.9131,-1.9131,-1.9131,-1.909,-1.8827,-1.8889,-1.8816,-1.8744,-1.8557,-1.8061,-1.7595,-1.7284,-1.6886,-1.6471,-1.6199,-1.6019,-1.5961,-1.5836,-1.5662,-1.5245,-1.4824,-1.4401,-3.2672,-3.2698,-3.2868,-3.296,-3.2973,-3.3117,-3.3404,-3.3796,-3.3835,-3.3822,-3.3796,-3.3208,-3.2516,-3.1455,-3.1082,-2.9969,-2.916,-2.85,-2.86,-2.8473,-2.8189,-2.8309,-2.8451,-2.8571,-2.8418,-2.832,-2.8386,-2.856,-2.8396,-2.8528,-2.8746,-2.8648,-2.8669,-2.8309,-2.8145,-2.8102,-2.7599,-2.7162,-2.6944,-2.6638,-2.6321,-2.6016,-2.5917,-2.5895,-2.5895,-2.5895,-2.5895,-2.5895,-2.5895,-2.5895,-2.5895,-2.5895,-2.5895,-2.5884,-2.5819,-2.5349,-2.4803,-2.4187,-2.3474,-2.3035,-2.2562,-2.2229,-2.2101,-2.2101,-2.2035,-2.2035,-2.2035,-2.1959,-2.1873,-2.1807,-2.1807,-2.1807,-2.1807,-2.1807,-2.1807,-2.1807,-2.1807,-2.1807,-2.1807,-2.1776,-2.1694,-2.16,-2.1352,-2.0969,-2.0452,-2.0224,-1.9934,-1.9572,-1.9261,-1.9193,-1.9131,-1.9131,-1.9131,-1.9131,-1.9131,-1.9131,-1.9131,-1.911,-1.9131,-1.9121,-1.892,-1.8713,-1.8464,-1.8092,-1.7595,-1.7183,-1.6765,-1.6519,-1.6269,-1.6259,-1.6192,-1.6077,-1.5904,-1.542,-1.4942,-3.2019,-3.2045,-3.2267,-3.2476,-3.2659,-3.2685,-3.2816,-3.2947,-3.313,-3.3234,-3.3156,-3.2607,-3.2076,-3.158,-3.0679,-2.9796,-2.9519,-2.7985,-2.7863,-2.8813,-2.8061,-2.7927,-2.8123,-2.8331,-2.7992,-2.796,-2.8069,-2.8309,-2.8222,-2.8484,-2.8746,-2.8735,-2.885,-2.8582,-2.8386,-2.8145,-2.7654,-2.7151,-2.6747,-2.6474,-2.6234,-2.5994,-2.5917,-2.5895,-2.5895,-2.5895,-2.5895,-2.5895,-2.5895,-2.5895,-2.5895,-2.5895,-2.583,-2.5732,-2.5568,-2.5098,-2.4508,-2.3948,-2.3358,-2.2939,-2.2552,-2.2392,-2.2402,-2.2402,-2.2327,-2.2176,-2.2111,-2.1959,-2.1883,-2.1807,-2.1807,-2.1807,-2.1807,-2.1807,-2.1807,-2.1807,-2.1807,-2.1807,-2.1787,-2.1766,-2.1714,-2.1662,-2.1435,-2.1104,-2.0762,-2.0441,-2.01,-1.9748,-1.9385,-1.9173,-1.9131,-1.9131,-1.9131,-1.9131,-1.9131,-1.9131,-1.9131,-1.9131,-1.9131,-1.911,-1.9003,-1.8909,-1.8682,-1.8278,-1.7792,-1.7389,-1.6989,-1.6616,-1.6374,-1.6374,-1.6374,-1.6306,-1.6192,-1.6019,-1.5536,-3.1013,-3.1065,-3.1548,-3.2032,-3.2515,-3.2476,-3.2228,-3.1862,-3.2306,-3.2581,-3.2502,-3.2019,-3.1941,-3.1541,-3.0157,-2.9751,-2.9071,-2.7767,-2.748,-2.9056,-2.7833,-2.7381,-2.7599,-2.7752,-2.7785,-2.7446,-2.7588,-2.8342,-2.8298,-2.8517,-2.885,-2.885,-2.8659,-2.8528,-2.8429,-2.7916,-2.7424,-2.7053,-2.6671,-2.6387,-2.6343,-2.6136,-2.5895,-2.5895,-2.5895,-2.5895,-2.5895,-2.5895,-2.5895,-2.5895,-2.5895,-2.5895,-2.5666,-2.548,-2.5262,-2.4814,-2.4192,-2.3677,-2.3242,-2.2897,-2.2692,-2.2553,-2.2628,-2.2628,-2.2553,-2.2327,-2.2187,-2.2035,-2.1959,-2.1807,-2.1807,-2.1807,-2.1807,-2.1807,-2.1807,-2.1807,-2.1807,-2.1807,-2.1797,-2.1787,-2.1776,-2.1725,-2.1694,-2.1383,-2.1135,-2.0721,-2.042,-2.0089,-1.9624,-1.9328,-1.9183,-1.9183,-1.9131,-1.9131,-1.9131,-1.9131,-1.9131,-1.9131,-1.9131,-1.9131,-1.91,-1.9048,-1.8986,-1.8495,-1.8061,-1.7626,-1.7183,-1.6777,-1.6425,-1.6374,-1.6374,-1.6374,-1.6374,-1.6316,-1.5894,-3.0986,-3.0999,-3.113,-3.1274,-3.1392,-3.1392,-3.1352,-3.1196,-3.1313,-3.1666,-3.1875,-3.1459,-3.1113,-3.0874,-2.9886,-2.9328,-2.8351,-2.7598,-2.7375,-2.7587,-2.7119,-2.7097,-2.7315,-2.7665,-2.7719,-2.7992,-2.8244,-2.8429,-2.8473,-2.8626,-2.8724,-2.8691,-2.8462,-2.8211,-2.8156,-2.7523,-2.6998,-2.6846,-2.6441,-2.6179,-2.6103,-2.6048,-2.5895,-2.5895,-2.5895,-2.5895,-2.5895,-2.5895,-2.5895,-2.5895,-2.5895,-2.571,-2.536,-2.5218,-2.4781,-2.4203,-2.3875,-2.3406,-2.3145,-2.2961,-2.281,-2.2777,-2.2777,-2.2777,-2.2703,-2.2478,-2.2252,-2.2176,-2.2025,-2.1883,-2.1807,-2.1807,-2.1807,-2.1807,-2.1807,-2.1807,-2.1807,-2.1807,-2.1807,-2.1807,-2.1807,-2.1807,-2.1807,-2.1694,-2.1455,-2.1238,-2.1041,-2.0679,-2.0048,-1.9671,-1.9303,-1.9241,-1.9162,-1.9131,-1.9131,-1.9131,-1.9131,-1.9131,-1.9131,-1.9131,-1.9131,-1.9023,-1.8961,-1.8723,-1.8361,-1.7833,-1.7305,-1.6808,-1.6539,-1.6415,-1.6374,-1.6374,-1.6374,-1.6374,-1.5951,-3.0764,-3.0973,-3.0986,-3.0986,-3.0986,-3.0986,-3.0986,-3.0986,-3.0986,-3.1156,-3.1405,-3.1081,-3.0701,-3.0181,-2.9427,-2.901,-2.8035,-2.7005,-2.72,-2.7197,-2.6921,-2.7009,-2.725,-2.7403,-2.7282,-2.7534,-2.7894,-2.8112,-2.8386,-2.8429,-2.8396,-2.8353,-2.7992,-2.7697,-2.761,-2.7009,-2.6605,-2.6616,-2.6125,-2.5939,-2.5895,-2.5895,-2.5895,-2.5895,-2.5895,-2.5895,-2.5895,-2.5895,-2.5895,-2.5895,-2.5895,-2.5633,-2.5273,-2.4967,-2.4486,-2.394,-2.3547,-2.321,-2.3003,-2.2927,-2.2927,-2.2927,-2.2852,-2.2852,-2.2703,-2.2478,-2.2327,-2.2176,-2.1949,-2.1807,-2.1807,-2.1807,-2.1807,-2.1807,-2.1807,-2.1807,-2.1807,-2.1807,-2.1807,-2.1807,-2.1807,-2.1807,-2.1807,-2.1797,-2.1549,-2.1238,-2.1124,-2.0783,-2.0234,-1.9893,-1.9613,-1.9313,-1.9214,-1.9131,-1.9131,-1.9131,-1.9131,-1.9131,-1.9131,-1.9131,-1.9131,-1.9065,-1.8982,-1.8723,-1.8371,-1.7874,-1.7347,-1.687,-1.655,-1.6394,-1.6374,-1.6374,-1.6374,-1.6374,-1.6124,-3.0307,-3.0751,-3.0843,-3.0817,-3.079,-3.0843,-3.0856,-3.0856,-3.0869,-3.0856,-3.0908,-3.096,-3.0495,-2.9781,-2.9147,-2.8821,-2.8279,-2.7429,-2.7447,-2.7234,-2.6838,-2.6691,-2.6715,-2.6835,-2.6911,-2.7108,-2.7457,-2.7697,-2.7938,-2.8047,-2.808,-2.7804,-2.7566,-2.7217,-2.7097,-2.6802,-2.6463,-2.6365,-2.6103,-2.5939,-2.5895,-2.5895,-2.5895,-2.5895,-2.5895,-2.5895,-2.5895,-2.5895,-2.5895,-2.5895,-2.5874,-2.5568,-2.5185,-2.4781,-2.4181,-2.3678,-2.3263,-2.3099,-2.3001,-2.3001,-2.3001,-2.3001,-2.3001,-2.2852,-2.2703,-2.2478,-2.2327,-2.2101,-2.1959,-2.1807,-2.1807,-2.1807,-2.1807,-2.1883,-2.1883,-2.1883,-2.1883,-2.1883,-2.1883,-2.1807,-2.1807,-2.1807,-2.1807,-2.1807,-2.1631,-2.13,-2.099,-2.0545,-2.0203,-2.0038,-1.982,-1.9437,-1.9183,-1.9131,-1.9131,-1.9131,-1.9131,-1.9131,-1.9131,-1.9131,-1.9131,-1.9065,-1.8951,-1.8682,-1.8299,-1.7905,-1.744,-1.6964,-1.6674,-1.6405,-1.6374,-1.6374,-1.6374,-1.6374,-1.6374,-2.951,-2.964,-3.0098,-3.0045,-2.9732,-3.0098,-3.0307,-3.0294,-3.0307,-3.0294,-3.0385,-3.079,-3.0823,-3.0735,-3.0659,-3.0024,-2.8676,-2.7799,-2.7406,-2.7241,-2.6462,-2.6253,-2.6321,-2.6649,-2.6878,-2.7097,-2.7348,-2.7643,-2.7555,-2.7774,-2.7807,-2.7435,-2.6998,-2.6747,-2.6671,-2.6376,-2.6103,-2.6059,-2.6059,-2.5895,-2.5895,-2.5895,-2.5895,-2.5895,-2.5895,-2.5895,-2.5895,-2.5895,-2.5895,-2.5895,-2.5863,-2.5546,-2.5131,-2.4672,-2.4104,-2.3536,-2.3121,-2.3034,-2.3001,-2.3001,-2.3001,-2.3001,-2.2927,-2.2777,-2.2628,-2.2402,-2.2176,-2.2101,-2.1949,-2.1807,-2.1807,-2.1807,-2.1873,-2.2035,-2.2111,-2.2101,-2.2101,-2.2101,-2.2101,-2.2035,-2.1883,-2.1883,-2.1807,-2.1807,-2.1797,-2.158,-2.1569,-2.1114,-2.0493,-2.0255,-2.0038,-1.9582,-1.9225,-1.9131,-1.9131,-1.9131,-1.9131,-1.9131,-1.9131,-1.9131,-1.9131,-1.9131,-1.8975,-1.864,-1.8402,-1.8081,-1.7595,-1.6946,-1.6736,-1.6487,-1.6405,-1.6374,-1.6374,-1.6374,-1.6374]},{"header":{"parameterUnit":"m.s-1","parameterCategory":1,"la1":31.0,"la2":29.5877,"lo1":-88.7671,"lo2":-86.6584,"dy":0.0162,"dx":0.0185,"nx":115,"ny":88,"refTime":"2023-08-17T12:00:00:Z","depth":0,"parameterNumber":3,"parameterNumberName":"V-component_of_WINDS"},"data":[0.0,0.0,0.0,0.0,0.0,0.0,0.0,0.0,0.0,0.0,0.0,0.0,0.0,0.0,0.0,0.0,0.0,0.0,0.0,0.0,0.0,0.0,0.0,0.0,0.0,0.0,0.0,0.0,0.0,0.0,0.0,0.0,0.0,0.0,0.0,0.0,0.0,0.0,0.0,0.0,0.0,0.0,0.0,0.0,0.0,0.0,0.0,0.0,0.0,0.0,0.0,0.0,0.0,0.0,0.0,0.0,0.0,0.0,0.0,0.0,0.0,0.0,0.0,0.0,0.0,0.0,0.0,0.0,0.0,0.0,0.0,0.0,0.0,0.0,0.0,0.0,0.0,0.0,0.0,0.0,0.0,0.0,0.0,0.0,0.0,0.0,0.0,0.0,0.0,0.0,0.0,0.0,0.0,0.0,0.0,0.0,0.0,0.0,0.0,0.0,0.0,0.0,0.0,0.0,0.0,0.0,0.0,0.0,0.0,0.0,0.0,0.0,0.0,0.0,0.0,0.0,0.0,0.0,0.0,0.0,0.0,0.0,0.0,0.0,0.0,0.0,0.0,0.0,0.0,0.0,0.0,0.0,0.0,0.0,0.0,0.0,0.0,0.0,0.0,0.0,0.0,0.0,0.0,0.0,0.0,0.0,0.0,0.0,0.0,0.0,0.0,0.0,0.0,0.0,0.0,0.0,0.0,0.0,0.0,0.0,0.0,0.0,0.0,0.0,0.0,0.0,0.0,0.0,0.0,0.0,0.0,0.0,0.0,0.0,0.0,0.0,0.0,0.0,0.0,0.0,0.0,0.0,0.0,0.0,0.0,0.0,0.0,0.0,0.0,0.0,0.0,0.0,0.0,0.0,0.0,0.0,0.0,0.0,0.0,0.0,0.0,0.0,0.0,0.0,0.0,0.0,0.0,0.0,0.0,0.0,0.0,0.0,0.0,0.0,0.0,0.0,0.0,0.0,0.0,0.0,0.0,0.0,0.0,0.0,0.0,0.0,0.0,0.0,0.0,0.0,0.0,0.0,0.0,0.0,0.0,0.0,0.0,0.0,0.0,0.0,0.0,0.0,0.0,0.0,0.0,0.0,0.0,0.0,0.0,0.0,0.0,0.0,0.0,0.0,0.0,0.0,0.0,0.0,0.0,0.0,0.0,0.0,0.0,0.0,0.0,0.0,0.0,0.0,0.0,0.0,0.0,0.0,0.0,0.0,0.0,0.0,0.0,0.0,0.0,0.0,0.0,0.0,0.0,0.0,0.0,0.0,0.0,0.0,0.0,0.0,0.0,0.0,0.0,0.0,0.0,0.0,0.0,0.0,0.0,0.0,0.0,0.0,0.0,0.0,0.0,0.0,0.0,0.0,0.0,0.0,0.0,0.0,0.0,0.0,0.0,0.0,0.0,0.0,0.0,0.0,0.0,0.0,0.0,0.0,0.0,0.0,0.0,0.0,0.0,0.0,0.0,0.0,0.0,0.0,0.0,0.0,0.0,0.0,0.0,0.0,0.0,0.0,0.0,0.0,0.0,0.0,0.0,0.0,0.0,0.0,0.0,0.0,0.0,0.0,0.0,0.0,0.0,0.0,0.0,0.0,0.0,0.0,0.0,0.0,0.0,0.0,0.0,0.0,0.0,0.0,0.0,0.0,0.0,0.0,0.0,0.0,0.0,0.0,0.0,0.0,0.0,0.0,0.0,0.0,0.0,0.0,0.0,0.0,0.0,0.0,0.0,0.0,0.0,0.0,0.0,0.0,0.0,0.0,0.0,0.0,0.0,0.0,0.0,0.0,0.0,0.0,0.0,0.0,0.0,0.0,0.0,0.0,0.0,0.0,0.0,0.0,0.0,0.0,0.0,0.0,0.0,0.0,0.0,0.0,0.0,0.0,0.0,0.0,0.0,0.0,0.0,0.0,0.0,0.0,0.0,0.0,0.0,0.0,0.0,0.0,0.0,0.0,0.0,0.0,0.0,0.0,0.0,0.0,0.0,0.0,0.0,0.0,0.0,0.0,0.0,0.0,0.0,0.0,0.0,0.0,0.0,0.0,0.0,0.0,0.0,0.0,0.0,0.0,0.0,0.0,0.0,0.0,0.0,0.0,0.0,0.0,0.0,0.0,0.0,0.0,0.0,0.0,0.0,0.0,0.0,0.0,0.0,0.0,0.0,0.0,0.0,0.0,0.0,0.0,0.0,0.0,0.0,0.0,0.0,0.0,0.0,0.0,0.0,0.0,0.0,0.0,0.0,0.0,0.0,0.0,0.0,0.0,0.0,0.0,0.0,0.0,0.0,0.0,0.0,0.0,0.0,0.0,0.0,0.0,0.0,0.0,0.0,0.0,0.0,0.0,0.0,0.0,0.0,0.0,0.0,0.0,0.0,0.0,0.0,0.0,0.0,0.0,0.0,0.0,0.0,0.0,0.0,0.0,0.0,0.0,0.0,0.0,0.0,0.0,0.0,0.0,0.0,0.0,0.0,0.0,0.0,0.0,0.0,0.0,0.0,0.0,0.0,0.0,0.0,0.0,0.0,0.0,0.0,0.0,0.0,0.0,0.0,0.0,0.0,0.0,0.0,0.0,0.0,0.0,0.0,0.0,0.0,0.0,0.0,0.0,0.0,0.0,0.0,0.0,0.0,0.0,0.0,0.0,0.0,0.0,0.0,0.0,0.0,0.0,0.0,0.0,0.0,0.0,0.0,0.0,0.0,0.0,0.0,0.0,0.0,0.0,0.0,0.0,0.0,0.0,0.0,0.0,0.0,0.0,0.0,0.0,0.0,0.0,0.0,0.0,0.0,0.0,0.0,0.0,0.0,0.0,0.0,0.0,0.0,0.0,0.0,0.0,0.0,0.0,0.0,0.0,0.0,0.0,0.0,0.0,0.0,0.0,0.0,0.0,0.0,0.0,0.0,0.0,0.0,0.0,0.0,0.0,0.0,0.0,0.0,0.0,0.0,0.0,0.0,0.0,0.0,0.0,0.0,0.0,0.0,0.0,0.0,0.0,0.0,0.0,0.0,0.0,0.0,0.0,0.0,0.0,0.0,0.0,0.0,0.0,0.0,0.0,0.0,0.0,0.0,0.0,0.0,0.0,0.0,0.0,0.0,0.0,0.0,0.0,0.0,0.0,0.0,0.0,0.0,0.0,0.0,0.0,0.0,0.0,0.0,0.0,0.0,0.0,0.0,0.0,0.0,0.0,0.0,0.0,0.0,0.0,0.0,0.0,0.0,0.0,0.0,0.0,0.0,0.0,0.0,0.0,0.0,0.0,0.0,0.0,0.0,0.0,0.0,0.0,0.0,0.0,0.0,0.0,0.0,0.0,0.0,0.0,0.0,0.0,0.0,0.0,0.0,0.0,0.0,0.0,0.0,0.0,0.0,0.0,0.0,0.0,0.0,0.0,0.0,0.0,0.0,0.0,0.0,0.0,0.0,0.0,0.0,0.0,0.0,0.0,0.0,0.0,0.0,0.0,0.0,0.0,0.0,0.0,0.0,0.0,0.0,0.0,0.0,0.0,0.0,0.0,0.0,0.0,0.0,0.0,0.0,0.0,0.0,0.0,0.0,0.0,0.0,0.0,0.0,0.0,0.0,0.0,0.0,0.0,0.0,0.0,0.0,0.0,0.0,0.0,0.0,0.0,0.0,0.0,0.0,0.0,0.0,0.0,0.0,0.0,0.0,0.0,0.0,0.0,0.0,0.0,0.0,0.0,0.0,0.0,0.0,0.0,0.0,0.0,0.0,0.0,0.0,0.0,0.0,0.0,0.0,0.0,0.0,0.0,0.0,0.0,0.0,0.0,0.0,0.0,0.0,0.0,0.0,0.0,0.0,0.0,0.0,0.0,0.0,0.0,0.0,0.0,0.0,0.0,0.0,0.0,0.0,0.0,0.0,0.0,0.0,0.0,0.0,0.0,0.0,0.0,0.0,0.0,0.0,0.0,0.0,0.0,0.0,0.0,0.0,0.0,0.0,0.0,0.0,0.0,0.0,0.0,0.0,0.0,0.0,0.0,0.0,0.0,0.0,0.0,0.0,0.0,0.0,0.0,0.0,0.0,0.0,0.0,0.0,0.0,0.0,0.0,0.0,0.0,0.0,0.0,0.0,0.0,0.0,0.0,0.0,0.0,0.0,0.0,0.0,0.0,0.0,0.0,0.0,0.0,0.0,0.0,0.0,0.0,0.0,0.0,0.0,0.0,0.0,0.0,0.0,0.0,0.0,0.0,0.0,0.0,0.0,0.0,0.0,0.0,0.0,0.0,0.0,0.0,0.0,0.0,-1.0777,0.0,0.0,0.0,0.0,0.0,0.0,0.0,0.0,0.0,0.0,0.0,0.0,0.0,0.0,0.0,0.0,0.0,0.0,0.0,0.0,0.0,0.0,0.0,0.0,0.0,0.0,0.0,0.0,0.0,0.0,0.0,0.0,0.0,0.0,0.0,0.0,0.0,0.0,0.0,0.0,0.0,0.0,0.0,0.0,0.0,0.0,0.0,0.0,0.0,0.0,0.0,0.0,0.0,0.0,0.0,0.0,0.0,0.0,0.0,0.0,0.0,0.0,0.0,0.0,0.0,0.0,0.0,0.0,0.0,0.0,0.0,0.0,0.0,0.0,0.0,0.0,0.0,0.0,0.0,0.0,0.0,0.0,0.0,0.0,0.0,0.0,0.0,0.0,0.0,0.0,0.0,0.0,0.0,0.0,0.0,0.0,0.0,0.0,0.0,0.0,0.0,0.0,0.0,0.0,0.0,0.0,0.0,0.0,0.0,0.0,-1.1062,-1.1605,-1.0623,-1.0552,-1.1617,0.0,0.0,0.0,0.0,0.0,0.0,0.0,0.0,0.0,0.0,0.0,0.0,0.0,0.0,0.0,0.0,0.0,0.0,0.0,0.0,0.0,0.0,0.0,0.0,0.0,0.0,0.0,0.0,0.0,0.0,0.0,0.0,0.0,0.0,0.0,0.0,0.0,0.0,0.0,0.0,0.0,0.0,0.0,0.0,0.0,0.0,0.0,0.0,0.0,0.0,0.0,0.0,0.0,0.0,0.0,0.0,0.0,0.0,0.0,0.0,0.0,0.0,0.0,0.0,0.0,0.0,0.0,0.0,0.0,0.0,0.0,0.0,0.0,0.0,0.0,0.0,0.0,0.0,0.0,0.0,0.0,0.0,0.0,0.0,0.0,0.0,0.0,0.0,0.0,0.0,0.0,0.0,0.0,0.0,0.0,0.0,0.0,0.0,0.0,0.0,0.0,0.0,0.0,0.0,0.0,0.0,0.0,0.0,0.0,0.0,0.0,0.0,-1.1344,-1.1308,-1.2603,0.0,0.0,0.0,0.0,0.0,0.0,0.0,0.0,0.0,0.0,0.0,0.0,0.0,0.0,0.0,0.0,0.0,0.0,0.0,0.0,0.0,0.0,0.0,0.0,0.0,0.0,0.0,0.0,0.0,0.0,0.0,0.0,0.0,0.0,0.0,0.0,0.0,0.0,0.0,0.0,0.0,0.0,0.0,0.0,0.0,0.0,0.0,0.0,0.0,0.0,0.0,0.0,0.0,0.0,0.0,0.0,0.0,0.0,0.0,0.0,0.0,0.0,0.0,0.0,0.0,0.0,0.0,0.0,0.0,0.0,0.0,0.0,0.0,0.0,0.0,0.0,0.0,0.0,0.0,0.0,0.0,0.0,0.0,0.0,0.0,0.0,0.0,0.0,0.0,0.0,0.0,0.0,0.0,0.0,0.0,0.0,0.0,0.0,0.0,0.0,0.0,0.0,0.0,0.0,0.0,0.0,0.0,0.0,0.0,0.0,-1.2995,-1.3521,-1.3806,0.0,-1.4018,0.0,0.0,0.0,0.0,0.0,0.0,0.0,0.0,0.0,0.0,0.0,0.0,0.0,0.0,0.0,0.0,0.0,0.0,0.0,0.0,0.0,0.0,0.0,0.0,0.0,0.0,0.0,0.0,0.0,0.0,0.0,0.0,0.0,0.0,0.0,0.0,0.0,0.0,0.0,0.0,0.0,0.0,0.0,0.0,0.0,0.0,0.0,0.0,0.0,0.0,0.0,0.0,0.0,0.0,0.0,0.0,0.0,0.0,0.0,0.0,0.0,0.0,0.0,0.0,0.0,0.0,0.0,0.0,0.0,0.0,0.0,0.0,0.0,0.0,0.0,0.0,0.0,0.0,0.0,0.0,0.0,0.0,0.0,0.0,0.0,0.0,0.0,0.0,0.0,0.0,0.0,0.0,0.0,0.0,0.0,0.0,0.0,0.0,0.0,0.0,0.0,0.0,0.0,0.0,0.0,0.0,0.0,0.0,0.0,0.0,-1.3212,-1.3457,-1.3889,-1.4006,0.0,0.0,0.0,0.0,0.0,0.0,0.0,0.0,0.0,0.0,0.0,0.0,0.0,0.0,0.0,0.0,0.0,0.0,0.0,0.0,0.0,0.0,0.0,0.0,0.0,0.0,0.0,0.0,0.0,0.0,0.0,0.0,0.0,0.0,0.0,0.0,0.0,0.0,0.0,0.0,0.0,0.0,0.0,0.0,0.0,0.0,0.0,0.0,0.0,0.0,0.0,0.0,0.0,0.0,0.0,0.0,0.0,0.0,0.0,0.0,0.0,0.0,0.0,0.0,0.0,0.0,0.0,0.0,0.0,0.0,0.0,0.0,0.0,0.0,0.0,0.0,0.0,0.0,0.0,0.0,0.0,0.0,0.0,0.0,0.0,0.0,0.0,0.0,0.0,0.0,0.0,0.0,0.0,0.0,0.0,0.0,0.0,0.0,0.0,0.0,0.0,0.0,0.0,0.0,0.0,0.0,0.0,0.0,0.0,0.0,-1.351,-1.3654,-1.3912,-1.4006,-1.4015,-1.4018,0.0,0.0,0.0,0.0,0.0,0.0,0.0,0.0,0.0,0.0,0.0,0.0,0.0,0.0,0.0,0.0,0.0,0.0,0.0,0.0,0.0,0.0,0.0,0.0,0.0,0.0,0.0,0.0,0.0,0.0,0.0,0.0,0.0,0.0,0.0,0.0,0.0,0.0,0.0,0.0,0.0,0.0,0.0,0.0,0.0,0.0,0.0,0.0,0.0,0.0,0.0,0.0,0.0,0.0,0.0,0.0,0.0,0.0,0.0,0.0,0.0,0.0,0.0,0.0,0.0,0.0,0.0,0.0,0.0,0.0,0.0,0.0,0.0,0.0,0.0,0.0,0.0,0.0,0.0,0.0,0.0,0.0,0.0,0.0,0.0,0.0,0.0,0.0,0.0,0.0,0.0,0.0,0.0,0.0,0.0,0.0,0.0,0.0,0.0,0.0,0.0,0.0,0.0,0.0,0.0,0.0,0.0,0.0,-1.4401,-1.4306,-1.4684,-1.5466,-1.4725,-1.4618,0.0,0.0,0.0,0.0,0.0,0.0,0.0,0.0,0.0,0.0,0.0,0.0,0.0,0.0,0.0,0.0,0.0,0.0,0.0,0.0,0.0,0.0,0.0,0.0,0.0,0.0,0.0,0.0,0.0,0.0,0.0,0.0,0.0,0.0,0.0,0.0,0.0,0.0,0.0,0.0,0.0,0.0,0.0,0.0,0.0,0.0,0.0,0.0,0.0,0.0,0.0,0.0,0.0,0.0,0.0,0.0,0.0,0.0,0.0,0.0,0.0,0.0,0.0,0.0,0.0,0.0,0.0,0.0,0.0,0.0,0.0,0.0,0.0,0.0,0.0,0.0,0.0,0.0,0.0,0.0,0.0,0.0,0.0,0.0,0.0,0.0,0.0,0.0,0.0,0.0,0.0,0.0,0.0,0.0,0.0,0.0,0.0,0.0,0.0,0.0,0.0,0.0,0.0,0.0,0.0,0.0,0.0,0.0,0.0,-1.4366,-1.439,-1.4424,-1.4433,-1.4661,-1.4789,0.0,0.0,0.0,0.0,0.0,0.0,0.0,0.0,0.0,0.0,0.0,0.0,0.0,0.0,0.0,0.0,0.0,0.0,0.0,0.0,0.0,0.0,0.0,0.0,0.0,0.0,0.0,0.0,0.0,0.0,0.0,0.0,0.0,0.0,0.0,0.0,0.0,0.0,0.0,0.0,0.0,0.0,0.0,0.0,0.0,0.0,0.0,0.0,0.0,0.0,0.0,0.0,0.0,0.0,0.0,0.0,0.0,0.0,0.0,0.0,0.0,0.0,0.0,0.0,0.0,0.0,0.0,0.0,0.0,0.0,0.0,0.0,0.0,0.0,0.0,0.0,0.0,0.0,0.0,0.0,0.0,0.0,0.0,0.0,0.0,0.0,0.0,0.0,0.0,0.0,0.0,0.0,0.0,0.0,0.0,0.0,0.0,0.0,0.0,0.0,0.0,0.0,0.0,0.0,0.0,0.0,0.0,0.0,0.0,-1.4475,0.0,-1.4446,-1.4105,-1.468,-1.484,0.0,0.0,0.0,0.0,0.0,0.0,0.0,0.0,0.0,0.0,0.0,0.0,0.0,0.0,0.0,0.0,0.0,0.0,0.0,0.0,0.0,0.0,0.0,0.0,0.0,0.0,0.0,0.0,0.0,0.0,0.0,0.0,0.0,0.0,0.0,0.0,0.0,0.0,0.0,0.0,0.0,0.0,0.0,0.0,0.0,0.0,0.0,0.0,0.0,0.0,0.0,0.0,0.0,0.0,0.0,0.0,0.0,0.0,0.0,0.0,0.0,0.0,0.0,0.0,0.0,0.0,0.0,0.0,0.0,0.0,0.0,0.0,0.0,0.0,0.0,0.0,0.0,0.0,0.0,0.0,0.0,0.0,0.0,0.0,0.0,0.0,0.0,0.0,0.0,0.0,0.0,0.0,0.0,0.0,0.0,0.0,0.0,0.0,0.0,0.0,0.0,0.0,0.0,0.0,0.0,0.0,0.0,0.0,-1.4822,-1.4808,-1.4805,-1.4816,-1.4836,-1.4819,-1.4805,0.0,0.0,0.0,0.0,0.0,0.0,0.0,0.0,0.0,0.0,0.0,0.0,0.0,0.0,0.0,0.0,0.0,0.0,0.0,0.0,0.0,0.0,0.0,0.0,0.0,0.0,0.0,0.0,0.0,0.0,0.0,0.0,0.0,0.0,0.0,0.0,0.0,0.0,0.0,0.0,0.0,0.0,0.0,0.0,0.0,0.0,0.0,0.0,0.0,0.0,0.0,0.0,0.0,0.0,0.0,0.0,0.0,0.0,0.0,0.0,0.0,0.0,0.0,0.0,0.0,0.0,0.0,0.0,0.0,0.0,0.0,0.0,0.0,0.0,0.0,0.0,0.0,0.0,0.0,0.0,0.0,0.0,0.0,0.0,0.0,0.0,0.0,0.0,0.0,0.0,0.0,0.0,0.0,0.0,0.0,0.0,0.0,0.0,0.0,0.0,0.0,0.0,0.0,0.0,0.0,0.0,0.0,0.0,0.0,-1.4913,-1.5216,-1.5618,-1.6045,-1.5258,-1.5412,0.0,0.0,0.0,0.0,0.0,0.0,0.0,0.0,0.0,0.0,0.0,0.0,0.0,0.0,0.0,0.0,0.0,0.0,0.0,0.0,0.0,0.0,0.0,0.0,0.0,0.0,0.0,0.0,0.0,0.0,0.0,0.0,0.0,0.0,0.0,0.0,0.0,0.0,0.0,0.0,0.0,0.0,0.0,0.0,0.0,0.0,0.0,0.0,0.0,0.0,0.0,0.0,0.0,0.0,0.0,0.0,0.0,0.0,0.0,0.0,0.0,0.0,0.0,0.0,0.0,0.0,0.0,0.0,0.0,0.0,0.0,0.0,0.0,0.0,0.0,0.0,0.0,0.0,0.0,0.0,0.0,0.0,0.0,0.0,0.0,0.0,0.0,0.0,0.0,0.0,0.0,0.0,0.0,0.0,0.0,0.0,0.0,0.0,0.0,0.0,0.0,0.0,0.0,0.0,0.0,0.0,0.0,0.0,0.0,-1.5909,-1.6236,-1.6607,-1.7014,-1.6255,-1.6283,-1.7197,0.0,0.0,0.0,0.0,0.0,0.0,0.0,0.0,0.0,0.0,0.0,0.0,0.0,0.0,0.0,0.0,0.0,0.0,0.0,0.0,0.0,0.0,0.0,0.0,0.0,0.0,0.0,0.0,0.0,0.0,0.0,0.0,0.0,0.0,0.0,0.0,0.0,0.0,0.0,0.0,0.0,0.0,0.0,0.0,0.0,0.0,0.0,0.0,0.0,0.0,0.0,0.0,0.0,0.0,0.0,0.0,0.0,0.0,0.0,0.0,0.0,0.0,0.0,0.0,0.0,0.0,0.0,0.0,0.0,0.0,0.0,0.0,0.0,0.0,0.0,0.0,0.0,0.0,0.0,0.0,0.0,0.0,0.0,0.0,0.0,0.0,0.0,0.0,0.0,0.0,0.0,0.0,0.0,0.0,0.0,0.0,0.0,0.0,0.0,0.0,0.0,0.0,0.0,0.0,0.0,0.0,0.0,0.0,-1.7707,-1.782,-1.7852,-1.7702,-1.766,-1.7407,0.0,0.0,0.0,0.0,0.0,0.0,0.0,0.0,0.0,0.0,0.0,0.0,0.0,0.0,0.0,0.0,0.0,0.0,0.0,0.0,0.0,0.0,0.0,0.0,0.0,0.0,0.0,0.0,0.0,0.0,0.0,0.0,0.0,0.0,0.0,0.0,0.0,0.0,0.0,0.0,0.0,0.0,0.0,0.0,0.0,0.0,0.0,0.0,0.0,0.0,0.0,0.0,0.0,0.0,0.0,0.0,0.0,0.0,0.0,0.0,0.0,0.0,0.0,0.0,0.0,0.0,0.0,0.0,0.0,0.0,0.0,0.0,0.0,0.0,0.0,0.0,0.0,0.0,0.0,0.0,0.0,0.0,0.0,0.0,0.0,0.0,0.0,0.0,0.0,0.0,0.0,0.0,0.0,0.0,0.0,0.0,0.0,0.0,0.0,0.0,0.0,0.0,0.0,0.0,0.0,0.0,0.0,0.0,0.0,-2.0182,-2.0881,-2.0599,-1.9129,-1.8764,-1.865,0.0,0.0,0.0,0.0,0.0,0.0,0.0,0.0,0.0,0.0,0.0,0.0,0.0,0.0,0.0,0.0,0.0,0.0,0.0,0.0,0.0,0.0,0.0,0.0,0.0,0.0,0.0,0.0,0.0,0.0,0.0,0.0,0.0,0.0,0.0,0.0,0.0,0.0,0.0,0.0,0.0,0.0,0.0,0.0,0.0,0.0,0.0,0.0,0.0,0.0,0.0,0.0,0.0,0.0,0.0,0.0,0.0,0.0,0.0,0.0,0.0,0.0,0.0,0.0,0.0,0.0,0.0,0.0,0.0,0.0,0.0,0.0,0.0,0.0,0.0,0.0,0.0,0.0,0.0,0.0,0.0,0.0,0.0,0.0,0.0,0.0,0.0,0.0,0.0,0.0,0.0,0.0,0.0,0.0,0.0,0.0,0.0,0.0,0.0,0.0,0.0,0.0,0.0,0.0,0.0,0.0,0.0,0.0,-2.1061,-2.1486,-2.2775,-2.2743,-2.1355,-2.1541,-2.1005,0.0,0.0,0.0,0.0,0.0,0.0,0.0,0.0,0.0,0.0,0.0,0.0,0.0,0.0,0.0,0.0,0.0,0.0,0.0,0.0,0.0,0.0,0.0,0.0,0.0,0.0,0.0,0.0,0.0,0.0,0.0,0.0,0.0,0.0,0.0,0.0,0.0,0.0,0.0,0.0,0.0,0.0,0.0,0.0,0.0,0.0,0.0,0.0,0.0,0.0,0.0,0.0,0.0,0.0,0.0,0.0,0.0,0.0,0.0,0.0,0.0,0.0,0.0,0.0,0.0,0.0,0.0,0.0,0.0,0.0,0.0,0.0,0.0,0.0,0.0,0.0,0.0,0.0,0.0,0.0,0.0,0.0,0.0,0.0,0.0,0.0,0.0,0.0,0.0,0.0,0.0,0.0,0.0,0.0,0.0,0.0,0.0,0.0,0.0,0.0,0.0,0.0,0.0,0.0,0.0,0.0,0.0,0.0,-2.1707,-2.2194,-2.3814,-2.4473,-2.4032,-2.4746,-2.351,0.0,0.0,0.0,0.0,0.0,0.0,0.0,0.0,0.0,0.0,0.0,0.0,0.0,0.0,0.0,0.0,0.0,0.0,0.0,0.0,0.0,0.0,0.0,0.0,0.0,0.0,0.0,0.0,0.0,0.0,0.0,0.0,0.0,0.0,0.0,0.0,0.0,0.0,0.0,0.0,0.0,0.0,0.0,0.0,0.0,0.0,0.0,0.0,0.0,0.0,0.0,0.0,0.0,0.0,0.0,0.0,0.0,0.0,0.0,0.0,0.0,0.0,0.0,0.0,0.0,0.0,0.0,0.0,0.0,0.0,0.0,0.0,0.0,0.0,0.0,0.0,0.0,0.0,0.0,0.0,0.0,0.0,0.0,0.0,0.0,0.0,0.0,0.0,0.0,0.0,0.0,0.0,0.0,0.0,0.0,0.0,0.0,0.0,0.0,0.0,0.0,0.0,0.0,0.0,0.0,0.0,0.0,0.0,-2.276,-2.3335,-2.4622,-2.5506,-2.5949,-2.4317,-2.2659,0.0,0.0,0.0,0.0,0.0,0.0,0.0,0.0,0.0,0.0,0.0,0.0,0.0,0.0,0.0,0.0,0.0,0.0,0.0,0.0,0.0,0.0,0.0,0.0,0.0,0.0,0.0,0.0,0.0,0.0,0.0,0.0,0.0,0.0,0.0,0.0,0.0,0.0,0.0,0.0,0.0,0.0,0.0,0.0,0.0,0.0,0.0,0.0,-1.2707,0.0,0.0,0.0,0.0,0.0,0.0,0.0,0.0,0.0,0.0,0.0,0.0,0.0,0.0,0.0,0.0,0.0,0.0,0.0,0.0,0.0,0.0,0.0,0.0,0.0,0.0,0.0,0.0,0.0,0.0,0.0,0.0,0.0,0.0,0.0,0.0,0.0,0.0,0.0,0.0,0.0,0.0,0.0,0.0,0.0,0.0,0.0,0.0,0.0,0.0,0.0,0.0,0.0,0.0,0.0,0.0,0.0,0.0,0.0,-2.3978,-2.4736,-2.5768,-2.6509,-2.6935,-2.4875,-2.3304,0.0,0.0,0.0,0.0,0.0,0.0,0.0,0.0,0.0,0.0,0.0,0.0,0.0,0.0,0.0,0.0,0.0,0.0,0.0,0.0,0.0,0.0,0.0,0.0,0.0,0.0,0.0,0.0,0.0,0.0,0.0,0.0,0.0,0.0,0.0,0.0,0.0,0.0,0.0,0.0,0.0,0.0,0.0,0.0,0.0,0.0,0.0,0.0,0.0,0.0,0.0,0.0,0.0,0.0,0.0,0.0,0.0,0.0,0.0,0.0,0.0,0.0,0.0,0.0,0.0,0.0,0.0,0.0,0.0,0.0,0.0,0.0,0.0,0.0,0.0,0.0,0.0,0.0,0.0,0.0,0.0,0.0,0.0,0.0,0.0,0.0,0.0,0.0,0.0,0.0,0.0,0.0,0.0,0.0,0.0,0.0,0.0,0.0,0.0,0.0,0.0,0.0,0.0,0.0,0.0,0.0,0.0,-2.39,-2.5104,-2.6018,-2.6865,-2.7454,-2.7705,-2.5875,-2.4626,-2.4126,0.0,0.0,0.0,0.0,0.0,0.0,0.0,0.0,0.0,0.0,0.0,0.0,0.0,0.0,0.0,0.0,0.0,0.0,0.0,0.0,0.0,0.0,0.0,0.0,0.0,0.0,0.0,0.0,0.0,0.0,0.0,0.0,0.0,0.0,0.0,0.0,0.0,0.0,-1.5068,-1.6396,0.0,0.0,0.0,0.0,0.0,0.0,0.0,0.0,-1.3797,0.0,0.0,0.0,0.0,0.0,0.0,0.0,0.0,0.0,0.0,0.0,0.0,0.0,0.0,0.0,0.0,0.0,0.0,0.0,0.0,0.0,0.0,0.0,0.0,0.0,0.0,0.0,0.0,0.0,0.0,0.0,0.0,0.0,0.0,0.0,0.0,0.0,0.0,0.0,0.0,0.0,0.0,0.0,0.0,0.0,0.0,0.0,0.0,0.0,0.0,0.0,0.0,0.0,0.0,0.0,0.0,-2.241,-2.4401,-2.5805,-2.655,-2.7406,-2.8166,-2.8763,-2.7025,-2.6101,-2.6217,0.0,0.0,0.0,0.0,0.0,0.0,0.0,0.0,0.0,0.0,0.0,0.0,0.0,0.0,0.0,0.0,0.0,0.0,0.0,0.0,0.0,0.0,0.0,0.0,0.0,0.0,0.0,0.0,0.0,0.0,0.0,0.0,0.0,0.0,0.0,0.0,0.0,0.0,0.0,-1.6886,-1.7594,0.0,0.0,0.0,0.0,0.0,0.0,0.0,0.0,-1.538,0.0,0.0,0.0,0.0,0.0,0.0,0.0,0.0,0.0,0.0,0.0,0.0,0.0,0.0,0.0,0.0,0.0,0.0,0.0,0.0,0.0,0.0,0.0,0.0,0.0,0.0,0.0,0.0,0.0,0.0,0.0,0.0,0.0,0.0,0.0,0.0,0.0,0.0,0.0,0.0,0.0,0.0,0.0,0.0,0.0,0.0,0.0,0.0,0.0,0.0,0.0,0.0,0.0,0.0,0.0,-2.3527,-2.4903,-2.6134,-2.7219,-2.8108,-2.8568,-2.8505,-2.6917,-2.6213,0.0,0.0,0.0,0.0,0.0,0.0,0.0,0.0,0.0,0.0,0.0,0.0,0.0,0.0,0.0,0.0,0.0,0.0,0.0,0.0,0.0,0.0,0.0,0.0,0.0,0.0,0.0,0.0,0.0,0.0,0.0,0.0,0.0,0.0,0.0,0.0,0.0,0.0,0.0,0.0,-1.7576,-1.7753,-1.8164,0.0,0.0,0.0,0.0,0.0,0.0,-1.6986,-1.6576,0.0,0.0,0.0,0.0,0.0,0.0,0.0,0.0,0.0,0.0,0.0,0.0,0.0,0.0,0.0,0.0,0.0,0.0,0.0,0.0,0.0,0.0,0.0,0.0,0.0,0.0,0.0,0.0,0.0,0.0,0.0,0.0,0.0,0.0,0.0,0.0,0.0,0.0,0.0,0.0,0.0,0.0,0.0,0.0,0.0,0.0,0.0,0.0,0.0,0.0,0.0,0.0,0.0,0.0,0.0,-2.4466,-2.5243,-2.6215,-2.7478,-2.8382,-2.8529,-2.7957,-2.6598,-2.5891,0.0,0.0,0.0,0.0,0.0,0.0,0.0,0.0,0.0,0.0,0.0,0.0,0.0,0.0,0.0,0.0,0.0,0.0,0.0,0.0,0.0,0.0,0.0,0.0,0.0,0.0,0.0,0.0,0.0,0.0,0.0,0.0,0.0,0.0,0.0,0.0,0.0,0.0,0.0,0.0,0.0,-1.8253,-1.8734,-1.9609,0.0,0.0,0.0,0.0,-1.9841,-1.8235,0.0,0.0,0.0,0.0,0.0,0.0,0.0,0.0,0.0,0.0,0.0,0.0,0.0,0.0,0.0,0.0,0.0,0.0,0.0,0.0,0.0,0.0,0.0,0.0,0.0,0.0,0.0,0.0,0.0,0.0,0.0,0.0,0.0,0.0,0.0,0.0,0.0,0.0,0.0,0.0,0.0,0.0,0.0,0.0,0.0,0.0,0.0,0.0,0.0,0.0,0.0,0.0,0.0,0.0,0.0,0.0,-2.4482,-2.5243,-2.5988,-2.6798,-2.7518,-2.7833,-2.772,-2.638,-2.596,0.0,0.0,0.0,0.0,0.0,0.0,0.0,0.0,0.0,0.0,0.0,0.0,0.0,0.0,0.0,0.0,0.0,0.0,0.0,0.0,0.0,0.0,0.0,0.0,0.0,0.0,0.0,0.0,0.0,0.0,0.0,0.0,0.0,0.0,0.0,0.0,0.0,0.0,0.0,0.0,0.0,-1.9502,-1.8877,-2.0055,-2.0751,0.0,0.0,-2.0519,-2.0073,-1.9163,0.0,0.0,0.0,0.0,0.0,0.0,0.0,0.0,0.0,0.0,0.0,0.0,0.0,0.0,0.0,0.0,0.0,0.0,0.0,0.0,0.0,0.0,0.0,0.0,0.0,0.0,0.0,0.0,0.0,0.0,0.0,0.0,0.0,0.0,0.0,0.0,0.0,0.0,0.0,0.0,0.0,0.0,0.0,0.0,0.0,0.0,0.0,0.0,0.0,0.0,0.0,0.0,0.0,0.0,0.0,-2.4064,-2.5082,-2.5033,-2.5535,-2.6668,-2.7365,-2.7527,-2.7154,-2.5729,-2.5324,0.0,0.0,0.0,0.0,0.0,0.0,0.0,0.0,0.0,0.0,0.0,0.0,0.0,0.0,0.0,0.0,0.0,0.0,0.0,0.0,0.0,0.0,0.0,0.0,0.0,0.0,0.0,0.0,0.0,0.0,0.0,0.0,0.0,0.0,0.0,0.0,0.0,0.0,0.0,0.0,0.0,0.0,-1.9484,-2.018,0.0,0.0,0.0,-2.2036,-2.0822,0.0,0.0,0.0,0.0,0.0,0.0,0.0,0.0,0.0,0.0,0.0,0.0,0.0,0.0,0.0,0.0,0.0,0.0,0.0,0.0,0.0,0.0,0.0,0.0,0.0,0.0,0.0,0.0,0.0,0.0,0.0,0.0,0.0,0.0,0.0,0.0,0.0,0.0,0.0,0.0,0.0,0.0,0.0,0.0,0.0,0.0,0.0,0.0,0.0,0.0,0.0,0.0,0.0,0.0,0.0,0.0,0.0,-2.553,-2.4871,-2.5114,-2.6377,-2.6911,-2.6944,-2.6426,-2.5163,0.0,0.0,0.0,0.0,0.0,0.0,0.0,0.0,0.0,0.0,0.0,0.0,0.0,0.0,0.0,0.0,0.0,0.0,0.0,0.0,0.0,0.0,0.0,0.0,0.0,0.0,0.0,-1.6987,0.0,0.0,0.0,0.0,0.0,0.0,0.0,0.0,0.0,0.0,0.0,0.0,0.0,0.0,-1.9538,-1.9948,-2.0234,-2.0376,0.0,0.0,-2.2763,-2.1857,-2.1197,-2.1233,0.0,0.0,0.0,0.0,0.0,0.0,0.0,0.0,0.0,0.0,0.0,0.0,0.0,0.0,0.0,0.0,0.0,0.0,0.0,0.0,0.0,0.0,0.0,0.0,0.0,0.0,0.0,0.0,0.0,0.0,0.0,0.0,0.0,0.0,0.0,0.0,0.0,0.0,0.0,0.0,0.0,0.0,0.0,0.0,0.0,0.0,0.0,0.0,0.0,0.0,0.0,0.0,0.0,0.0,0.0,-2.5551,-2.4871,-2.4887,-2.5664,-2.5729,-2.5729,-2.5664,-2.492,-2.4839,0.0,0.0,0.0,0.0,0.0,0.0,0.0,0.0,0.0,0.0,0.0,0.0,0.0,0.0,0.0,0.0,0.0,0.0,0.0,0.0,0.0,0.0,0.0,0.0,0.0,0.0,0.0,0.0,0.0,0.0,0.0,0.0,0.0,0.0,0.0,0.0,0.0,0.0,0.0,0.0,0.0,-2.0715,-2.0091,-2.0234,-2.0555,0.0,0.0,-2.2299,-2.3191,-2.1483,-2.084,-2.303,0.0,0.0,0.0,0.0,0.0,0.0,0.0,0.0,0.0,0.0,0.0,0.0,0.0,0.0,0.0,0.0,0.0,0.0,0.0,0.0,0.0,0.0,0.0,0.0,0.0,0.0,0.0,0.0,0.0,0.0,0.0,0.0,0.0,0.0,0.0,0.0,0.0,0.0,0.0,0.0,0.0,0.0,0.0,0.0,0.0,0.0,0.0,0.0,0.0,0.0,0.0,0.0,0.0,-2.4855,-2.5546,-2.4871,-2.4855,-2.5584,-2.5616,-2.5616,-2.5616,-2.4887,-2.4628,0.0,0.0,0.0,0.0,0.0,0.0,0.0,0.0,0.0,0.0,0.0,0.0,0.0,0.0,0.0,0.0,0.0,0.0,0.0,0.0,0.0,0.0,0.0,0.0,0.0,0.0,0.0,0.0,-1.6559,-1.6872,-1.7688,0.0,0.0,0.0,0.0,0.0,0.0,0.0,0.0,0.0,0.0,-2.0483,-2.0644,-1.9966,0.0,0.0,-2.0662,-2.1215,-2.0677,-2.1072,-2.1554,-2.1964,-2.2339,0.0,0.0,0.0,0.0,0.0,0.0,0.0,0.0,0.0,0.0,0.0,0.0,0.0,0.0,0.0,0.0,0.0,0.0,0.0,0.0,0.0,0.0,0.0,0.0,0.0,0.0,0.0,0.0,0.0,0.0,0.0,0.0,0.0,0.0,0.0,0.0,0.0,0.0,0.0,0.0,0.0,0.0,0.0,0.0,0.0,0.0,0.0,0.0,0.0,0.0,0.0,0.0,-2.5082,-2.5616,-2.5098,-2.5082,-2.5616,-2.5616,-2.5616,-2.56,-2.5098,-2.4839,0.0,0.0,0.0,0.0,0.0,0.0,0.0,0.0,0.0,0.0,0.0,0.0,0.0,0.0,0.0,0.0,0.0,0.0,0.0,0.0,0.0,0.0,0.0,0.0,0.0,0.0,0.0,0.0,-1.7203,-1.7804,-1.9129,0.0,0.0,0.0,0.0,0.0,0.0,0.0,0.0,0.0,0.0,-2.0519,-2.1019,-2.0303,-1.9859,-2.0143,-2.1661,-2.225,-2.0766,-2.175,-2.2535,-2.2232,0.0,0.0,0.0,0.0,0.0,0.0,0.0,0.0,0.0,0.0,0.0,0.0,0.0,0.0,0.0,0.0,0.0,0.0,0.0,0.0,0.0,0.0,0.0,0.0,0.0,0.0,0.0,0.0,0.0,0.0,-2.7242,0.0,0.0,0.0,0.0,0.0,0.0,0.0,0.0,0.0,0.0,0.0,0.0,0.0,0.0,0.0,0.0,0.0,0.0,0.0,0.0,0.0,0.0,-2.56,-2.5616,-2.5584,-2.56,-2.5616,-2.5616,-2.5616,-2.5616,-2.56,-2.5584,-2.5567,0.0,0.0,0.0,0.0,0.0,0.0,0.0,0.0,0.0,0.0,0.0,0.0,0.0,0.0,0.0,0.0,0.0,0.0,0.0,0.0,0.0,0.0,0.0,0.0,0.0,0.0,-1.9241,-1.9118,-1.9559,0.0,0.0,0.0,0.0,0.0,0.0,0.0,0.0,0.0,0.0,-2.1607,-2.109,-2.1144,-2.1515,-2.2121,-2.3119,-2.5027,-2.5936,-2.4569,-2.3873,-2.3749,0.0,0.0,0.0,0.0,0.0,0.0,0.0,0.0,0.0,0.0,0.0,0.0,0.0,0.0,0.0,0.0,0.0,0.0,0.0,0.0,0.0,0.0,0.0,0.0,0.0,0.0,0.0,-2.9808,-2.9064,0.0,0.0,0.0,0.0,0.0,0.0,0.0,0.0,0.0,0.0,0.0,-2.7031,-2.7455,0.0,0.0,0.0,0.0,0.0,0.0,0.0,0.0,0.0,0.0,0.0,0.0,-2.5616,-2.5616,-2.5616,-2.5616,-2.5616,-2.5616,-2.5616,-2.5616,-2.5616,-2.5616,-2.5616,0.0,0.0,0.0,0.0,0.0,0.0,0.0,0.0,0.0,0.0,0.0,0.0,0.0,0.0,0.0,0.0,0.0,0.0,0.0,0.0,0.0,0.0,0.0,0.0,0.0,-1.9951,0.0,0.0,0.0,0.0,0.0,0.0,0.0,0.0,0.0,0.0,0.0,-2.3606,-2.3873,-2.2732,-2.2089,-2.262,-2.2852,-2.2727,0.0,0.0,0.0,0.0,0.0,0.0,0.0,0.0,0.0,0.0,0.0,0.0,0.0,0.0,-2.5852,-2.4283,-2.3709,-2.3506,-2.3694,0.0,0.0,0.0,0.0,0.0,0.0,0.0,0.0,0.0,0.0,0.0,0.0,0.0,0.0,-3.1052,0.0,-3.0561,0.0,0.0,0.0,0.0,0.0,0.0,0.0,0.0,-2.8194,-2.8694,-2.9122,-2.9887,-3.015,0.0,-3.0393,-3.0134,0.0,0.0,0.0,0.0,0.0,0.0,0.0,0.0,-2.6474,-2.6021,-2.6215,-2.6215,-2.6005,-2.5988,-2.5875,-2.5632,-2.5616,-2.5616,-2.5616,-2.5146,-2.4887,0.0,0.0,0.0,0.0,0.0,0.0,0.0,0.0,0.0,0.0,0.0,0.0,0.0,0.0,0.0,0.0,0.0,0.0,0.0,0.0,0.0,0.0,0.0,-2.0762,0.0,0.0,0.0,0.0,0.0,0.0,0.0,0.0,0.0,-2.4373,-2.4296,-2.4385,-2.4659,-2.3802,-2.332,-2.3856,0.0,0.0,0.0,0.0,0.0,0.0,0.0,-2.4105,-2.4641,-2.4926,-2.532,-2.6085,-2.6082,-2.6118,-2.6457,0.0,0.0,-2.5467,-2.519,-2.5227,-2.5335,-2.5441,-2.5714,-2.6287,-2.6449,-2.6346,0.0,0.0,0.0,0.0,0.0,0.0,0.0,0.0,-3.1205,-3.2288,0.0,-3.1916,0.0,0.0,0.0,0.0,0.0,-2.7964,0.0,0.0,-2.9729,-3.0376,-3.1108,-3.2481,-3.2773,-3.2206,-3.3437,-3.334,-3.1898,-2.9227,0.0,0.0,0.0,0.0,0.0,0.0,-2.8077,-2.6798,-2.7348,-2.7381,-2.6749,-2.6733,-2.6393,-2.5745,-2.5664,-2.5681,-2.5664,-2.5616,-2.5616,-2.5616,-2.56,0.0,0.0,0.0,0.0,0.0,0.0,0.0,0.0,0.0,0.0,0.0,0.0,0.0,0.0,0.0,0.0,0.0,0.0,0.0,0.0,-2.1991,0.0,0.0,0.0,0.0,0.0,0.0,0.0,0.0,0.0,0.0,-2.589,-2.5818,-2.5551,-2.4873,0.0,0.0,0.0,0.0,-2.6086,-2.6764,-2.762,-2.7835,-2.6996,-2.6889,-2.6889,-2.6925,0.0,0.0,-2.6409,-2.6567,-2.6705,-2.6907,-2.7061,-2.6986,-2.6722,-2.6765,-2.6897,-2.6934,-2.7025,-2.7226,-2.7226,-2.7301,-2.7336,-3.6643,0.0,0.0,0.0,0.0,-3.4991,-3.5542,-3.6222,-3.572,-3.525,-3.4797,-3.368,0.0,0.0,0.0,0.0,0.0,0.0,-3.1931,-3.2579,-3.2789,-3.3259,-3.3971,-3.4392,-3.4473,-3.4295,-3.4683,-3.4133,-3.2757,-3.1429,-3.0716,-3.0603,0.0,0.0,0.0,0.0,-2.7818,-2.7462,-2.7608,-2.7608,-2.7429,-2.7413,-2.7316,-2.7106,-2.6636,-2.6393,-2.6377,-2.5891,-2.5616,-2.5616,-2.5616,0.0,0.0,0.0,0.0,0.0,0.0,0.0,0.0,0.0,0.0,0.0,0.0,0.0,0.0,0.0,0.0,0.0,0.0,0.0,-2.3384,-2.383,-2.399,0.0,0.0,0.0,0.0,0.0,0.0,0.0,0.0,0.0,-2.7397,-2.6496,-2.5943,0.0,0.0,-2.5693,-2.6264,-2.6514,-2.6532,-2.6193,-2.6835,0.0,0.0,-2.6157,-2.6336,-2.6907,-2.7281,-2.7558,-2.7645,-2.771,-2.7745,-2.7825,-2.7958,-2.8069,-2.8127,-2.7461,-2.6991,-2.6972,-2.7419,-2.7867,-2.7979,-2.8428,-2.869,-4.0075,-3.8003,-3.6448,-3.6157,-3.6724,-3.7015,-3.7452,-3.7938,-3.7517,-3.7307,-3.7177,-3.5655,-3.4797,-3.4457,-3.2902,0.0,0.0,0.0,-3.3874,-3.4538,-3.4829,-3.5364,-3.6027,-3.6319,-3.6303,-3.6027,-3.6027,-3.5445,-3.436,-3.3323,-3.2773,-3.2546,0.0,0.0,-2.9227,-2.9065,-2.8692,-2.8174,-2.8417,-2.8433,-2.8142,-2.785,-2.7721,-2.7705,-2.73,-2.6976,-2.6717,-2.628,-2.5907,-2.5632,-2.5616,-2.5616,0.0,0.0,0.0,0.0,0.0,0.0,0.0,0.0,0.0,0.0,0.0,-2.3687,0.0,0.0,0.0,0.0,-2.4637,-2.4912,-2.4298,-2.4735,0.0,0.0,0.0,0.0,0.0,0.0,0.0,-2.7388,-2.7478,-2.7674,-2.8093,-2.7371,-2.6942,-2.7406,-2.7067,-2.6942,-2.7406,0.0,-2.7317,-2.6835,-2.7157,-2.7299,-2.6835,-2.6764,-2.6925,-2.7388,-2.787,-2.8219,-2.8318,-2.8264,-2.8246,-2.8406,-2.851,-2.8594,-2.8773,-2.8154,-2.7721,-2.7862,-2.8292,-2.8628,-2.8724,-2.9116,-2.9342,-4.2749,-4.2472,-3.9897,-3.8375,-3.7728,-3.8375,-3.8311,-3.7744,-3.7711,-3.8715,-4.0254,-3.7711,-3.7209,-3.8132,-3.5542,0.0,-3.436,-3.436,-3.4764,-3.5445,-3.6157,-3.6805,-3.742,-3.8068,-3.8051,-3.7404,-3.7404,-3.7048,-3.6319,-3.4959,-3.4554,-3.5007,-3.2417,-3.0781,-3.0226,-3.0668,-3.0279,-2.9,-2.9594,-2.9594,-2.8887,-2.8223,-2.7883,-2.7883,-2.7818,-2.7478,-2.683,-2.6717,-2.6345,-2.5681,-2.5616,-2.5616,-2.5616,0.0,0.0,0.0,0.0,0.0,0.0,0.0,0.0,0.0,0.0,0.0,0.0,0.0,0.0,0.0,-2.4706,0.0,-2.4993,-2.5121,0.0,0.0,0.0,-2.6162,-2.6943,-2.7059,-2.7371,-2.8093,0.0,0.0,-2.8182,-2.8182,-2.8182,-2.8182,-2.8182,-2.8182,-2.8182,-2.8164,-2.8182,-2.8093,-2.8164,-2.8182,-2.8039,-2.8057,-2.8057,-2.8093,-2.8182,-2.8264,-2.8406,-2.8345,-2.8353,-2.8644,-2.8644,-2.8576,-2.8743,-2.8694,-2.891,-2.9169,-2.931,-2.9349,-2.9351,-2.937,-2.939,-4.4431,-4.3411,-4.2731,-4.1727,-4.0577,-4.0739,-4.1031,-4.1306,-4.0804,-4.0545,-4.0415,-3.925,-3.8294,-3.7533,-3.6869,-3.6546,-3.6546,-3.6562,-3.6934,-3.763,-3.7809,-3.7987,-3.8149,-3.8327,-3.8311,-3.8149,-3.8149,-3.7776,-3.7064,-3.6206,-3.5299,-3.4343,-3.3161,-3.2481,-3.2303,-3.1396,-3.0703,-3.0409,-3.0053,-2.9837,-2.9659,-2.948,-2.9416,-2.9399,-2.8822,-2.819,-2.7494,-2.696,-2.6361,-2.5664,-2.5616,-2.5616,-2.5632,-2.6134,0.0,0.0,0.0,0.0,0.0,0.0,0.0,0.0,0.0,-2.5392,-2.521,0.0,-2.606,0.0,-2.5942,-2.6173,-2.5855,-2.6472,0.0,0.0,-2.672,-2.7285,-2.7467,-2.7611,-2.7885,-2.8164,-2.8182,-2.8182,-2.8182,-2.8182,-2.8182,-2.8182,-2.8182,-2.8182,-2.8182,-2.8182,-2.8182,-2.8182,-2.8182,-2.8182,-2.8182,-2.8182,-2.8182,-2.8182,-2.8182,-2.8209,-2.8246,-2.8237,-2.8237,-2.83,-2.8327,-2.83,-2.8353,-2.8569,-2.8767,-2.8815,-2.8998,-2.9218,-2.9365,-2.9388,-2.9388,-4.5354,-4.4593,-4.3978,-4.3249,-4.2504,-4.218,-4.2278,-4.2601,-4.2213,-4.1824,-4.1403,-4.0723,-3.9784,-3.8732,-3.8424,-3.8278,-3.8278,-3.8278,-3.8505,-3.8877,-3.8877,-3.8877,-3.8861,-3.8553,-3.8391,-3.8391,-3.8391,-3.8197,-3.7776,-3.7096,-3.6319,-3.5525,-3.4522,-3.402,-3.3955,-3.2287,-3.1413,-3.1413,-3.07,-3.0198,-2.9935,-2.9918,-2.9918,-2.9902,-2.9529,-2.8919,-2.8207,-2.7818,-2.73,-2.6587,-2.6539,-2.6539,-2.6555,-2.6927,-2.6976,0.0,0.0,0.0,0.0,0.0,0.0,0.0,0.0,0.0,0.0,0.0,-2.7855,-2.7178,-2.736,-2.7356,-2.6981,-2.7355,-2.7425,-2.7081,-2.7542,-2.7911,-2.7853,-2.8014,-2.8144,-2.8182,-2.8182,-2.8182,-2.8182,-2.8182,-2.8182,-2.8182,-2.8182,-2.8182,-2.8182,-2.8182,-2.8182,-2.8182,-2.8182,-2.8182,-2.8182,-2.8182,-2.8182,-2.8182,-2.8182,-2.8182,-2.8182,-2.8182,-2.8182,-2.8182,-2.8182,-2.8182,-2.8209,-2.8458,-2.8669,-2.8688,-2.8599,-2.8684,-2.906,-2.8839,-2.8673,-4.5872,-4.5678,-4.4399,-4.3783,-4.3654,-4.2925,-4.2571,-4.2571,-4.2571,-4.2571,-4.2601,-4.1986,-4.1355,-4.0723,-4.0059,-3.9752,-3.9752,-3.9557,-3.9476,-3.9476,-3.9476,-3.9428,-3.9314,-3.8796,-3.8489,-3.8391,-3.8391,-3.8391,-3.8375,-3.776,-3.742,-3.7274,-3.5979,-3.5266,-3.5104,-3.3242,-3.2174,-3.1996,-3.1334,-3.0716,-3.0064,-3.0048,-2.9972,-2.9918,-2.9918,-2.9578,-2.8838,-2.8806,-2.845,-2.7769,-2.7721,-2.7721,-2.7721,-2.7786,-2.7802,0.0,-2.7802,0.0,0.0,0.0,0.0,0.0,0.0,0.0,0.0,-2.9403,-2.9547,-2.8994,-2.8687,-2.8459,-2.8223,-2.8029,-2.8076,-2.8355,-2.8401,-2.833,-2.8208,-2.8314,-2.8368,-2.82,-2.8388,-2.8495,-2.8378,-2.8342,-2.837,-2.8405,-2.8271,-2.8182,-2.8182,-2.8182,-2.8182,-2.8182,-2.8182,-2.8182,-2.8182,-2.8182,-2.8182,-2.8182,-2.8182,-2.8182,-2.8182,-2.8182,-2.8182,-2.8182,-2.8182,-2.8146,-2.8021,-2.8156,-2.8308,-2.8252,-2.7785,-2.7699,-2.8425,-2.8215,-2.7853,-4.6342,-4.5743,-4.4933,-4.4253,-4.3654,-4.2925,-4.2571,-4.2571,-4.2571,-4.2571,-4.2618,-4.2488,-4.2359,-4.218,-4.1484,-4.1177,-4.1112,-3.9994,-3.9476,-3.9476,-3.9476,-3.9169,-3.8651,-3.9072,-3.8958,-3.8424,-3.8391,-3.8391,-3.8391,-3.8262,-3.7906,-3.7307,-3.6513,-3.5801,-3.5221,0.0,0.0,0.0,-3.1882,-3.1461,-3.0765,-3.0733,-3.0441,-2.9951,-2.9918,0.0,-2.8838,-2.8806,-2.845,-2.7769,-2.7721,0.0,0.0,0.0,0.0,0.0,0.0,0.0,0.0,0.0,0.0,0.0,-2.9237,-2.9394,-2.9333,-2.9472,-2.9523,-2.9418,-2.9316,-2.9264,-2.9226,-2.9176,-2.9258,-2.947,-2.9373,-2.8935,-2.8111,-2.8959,-2.9306,-2.8314,-2.9298,-2.9833,-2.9262,-2.9191,-2.9155,-2.9101,-2.862,-2.8217,-2.8182,-2.8182,-2.8182,-2.8182,-2.8182,-2.8182,-2.8182,-2.8182,-2.8182,-2.8182,-2.8182,-2.8182,-2.8182,-2.8182,-2.8182,-2.8182,-2.8182,-2.7897,-2.7094,-2.7223,-2.7367,-2.6541,-2.6046,-2.6206,-2.7851,-2.7972,-2.7647,-4.6666,0.0,-4.5581,-4.4885,0.0,-4.3476,-4.2958,-4.2571,-4.2571,-4.2571,-4.2571,-4.2571,-4.2571,-4.2585,-4.1889,-4.1626,-4.1533,-4.082,-4.0513,-4.0513,-4.0513,-4.0318,-3.9946,-3.9622,-3.9298,-3.8942,-3.857,-3.8391,-3.8391,-3.8391,-3.8213,-3.7841,-3.7145,-3.6448,-3.572,-3.4651,-3.3582,-3.2562,-3.253,-3.219,-3.1494,-3.1461,-3.1121,-3.0425,0.0,0.0,0.0,0.0,0.0,0.0,0.0,0.0,0.0,0.0,0.0,-2.8806,-2.9113,-2.9162,-2.8822,-2.8942,-2.9264,-2.9978,-3.0465,-3.0657,-3.0429,-3.052,-3.0489,-3.0127,-3.0093,-2.9972,-2.966,-2.9659,-2.9709,-2.9874,-2.9809,-2.958,-2.9341,-2.9653,-2.9888,-2.9715,-3.0059,-3.0279,-2.9993,-2.9601,-2.9405,-2.9351,-2.8727,-2.8182,-2.8182,-2.8182,-2.8182,-2.8182,-2.8182,-2.8182,-2.8182,-2.8182,-2.8182,-2.8182,-2.8182,-2.8182,-2.8182,-2.8182,-2.8182,-2.8182,-2.8182,-2.7772,-2.6586,-2.6774,-2.7024,-2.6159,-2.5552,-2.5481,-2.6493,-2.6497,-2.6358,-4.6876,-4.6811,-4.6099,-4.5403,-4.4739,-4.4026,-4.3298,-4.2571,0.0,0.0,0.0,-4.2571,-4.2571,-4.2585,-4.2019,-4.1776,-4.1743,-4.163,-4.1626,-4.1626,-4.1626,-4.1517,-4.1322,-4.0205,-3.959,-3.9444,-3.8748,-3.8391,-3.8391,-3.8391,-3.8391,-3.8327,-3.7679,-3.6918,-3.6092,-3.4894,-3.3955,-3.3307,-3.3259,-3.2919,-3.2222,-3.2206,-3.185,-3.1092,-3.1075,-3.0846,-3.0324,-3.0247,-3.0226,-3.0069,-3.0069,-3.0113,-3.0053,-2.9983,-2.9983,-3.0036,-2.9939,-2.9918,-2.9918,-2.9918,-3.0103,-3.0617,-3.1179,-3.1504,-3.1372,-3.1634,-3.1541,-3.0938,-3.0886,-3.0698,-3.0213,-3.0143,-3.0193,-3.0342,-3.0374,-3.0499,-3.0693,-3.0635,-3.0624,-3.0843,-3.0831,-3.0721,-3.0695,-3.0083,-2.9601,-2.9476,-2.8834,-2.8182,-2.8182,-2.8182,-2.8182,-2.8182,-2.8182,-2.8182,-2.8182,-2.8182,-2.8182,-2.8182,-2.8182,-2.8182,-2.8182,-2.8182,-2.8182,-2.8182,-2.811,-2.7371,-2.6193,-2.6283,-2.6549,-2.5793,-2.5284,-2.492,-2.4896,-2.4809,-2.4874,-4.6876,-4.6811,-4.6099,-4.5419,-4.4739,-4.401,-4.3314,-4.2587,-4.2571,-4.2571,-4.2571,-4.2571,-4.2571,-4.2571,-4.252,-4.2488,-4.2439,-4.184,-4.1626,0.0,-4.1626,-4.1241,-4.0658,-4.0448,-4.0043,-3.946,-3.8748,-3.8391,-3.8391,-3.8391,-3.8391,-3.8311,-3.7663,-3.6659,-3.5428,-3.5137,-3.4667,-3.3987,-3.3939,-3.3631,-3.2951,-3.2919,-3.2579,-3.1915,-3.185,-3.1817,-3.1704,-3.1688,-3.1413,-3.083,-3.0781,-3.0781,-3.0765,-3.0214,-3.0134,-3.0684,-3.0214,-2.9918,-2.9935,-2.9918,-2.9946,-3.0017,-3.0326,-3.0845,-3.1671,-3.1763,-3.1748,-3.1627,-3.161,-3.161,-3.1526,-3.1457,-3.1513,-3.1725,-3.1777,-3.1672,-3.1346,-3.1782,-3.1738,-3.0866,-3.1782,-3.2192,-3.1581,-3.085,-3.0332,-3.0136,-2.9066,-2.8182,-2.8182,-2.8182,-2.8182,-2.8182,-2.8182,-2.8182,-2.8182,-2.8182,-2.8182,-2.8182,-2.8182,-2.8182,-2.8182,-2.8128,-2.8093,-2.8146,-2.7656,-2.6853,-2.589,-2.5361,-2.501,-2.4354,-2.406,-2.4035,-2.3943,-2.3894,-2.3941,-4.6876,-4.6795,-4.6115,-4.5629,-4.5257,-4.4172,-4.3298,-4.2587,-4.2571,-4.2571,-4.2571,-4.2571,-4.2571,-4.2571,-4.2571,-4.2571,-4.2555,-4.2294,-4.2148,-4.2148,-4.2148,-4.197,-4.1598,-4.0853,-4.0318,-3.9978,-3.891,-3.8391,-3.8391,-3.8391,-3.8391,-3.8359,-3.7679,-3.6805,-3.5833,-3.538,-3.4813,-3.4117,-3.4101,-3.3939,-3.3647,-3.3631,-3.3291,-3.2611,-3.2595,-3.24,-3.2028,-3.2028,-3.1866,-3.151,-3.1526,-3.151,-3.1494,-3.1218,-3.117,-3.1477,-3.1202,-3.0846,-3.0457,-3.0212,-3.013,-3.013,-3.0393,-3.0747,-3.1201,-3.1411,-3.1579,-3.18,-3.18,-3.18,-3.18,-3.18,-3.1837,-3.1946,-3.1946,-3.1881,-3.1863,-3.2055,-3.2139,-3.1785,-3.2275,-3.2627,-3.2384,-3.1653,-3.0957,-3.0511,-2.9173,-2.8217,-2.8182,-2.8182,-2.8182,-2.8182,-2.8182,-2.8182,-2.8182,-2.8182,-2.8182,-2.8182,-2.8182,-2.8182,-2.8146,-2.7924,-2.7549,-2.7362,-2.7103,-2.6336,-2.5015,-2.5426,-2.5122,-2.3873,-2.3937,-2.4032,-2.37,-2.3549,-2.3594,-4.6876,-4.6828,-4.6277,-4.5953,-4.5662,-4.4318,-4.3379,-4.2877,-4.2652,-4.2571,-4.2571,-4.2571,-4.2571,-4.2571,-4.2571,-4.2571,-4.2571,-4.2571,-4.2571,-4.2571,-4.2571,-4.2571,-4.2488,-4.116,-4.0496,-4.0335,-3.9055,-3.8391,-3.8391,-3.8391,-3.8391,-3.8343,-3.7841,-3.7226,-3.6546,-3.5801,-3.5072,-3.4392,-3.4198,-3.4101,-3.4101,-3.4101,-3.3841,-3.3372,-3.3307,-3.3048,-3.2514,-3.2481,-3.24,-3.2255,-3.2238,-3.2238,-3.2238,-3.2093,-3.2077,-3.2206,-3.2093,-3.1769,-3.1186,-3.068,-3.0428,-3.0428,-3.0601,-3.0707,-3.0845,-3.1083,-3.1428,-3.1634,-3.1763,-3.18,-3.18,-3.18,-3.18,-3.18,-3.1837,-3.1965,-3.2108,-3.2179,-3.2335,-3.2606,-3.2672,-3.2737,-3.2709,-3.2188,-3.1314,-3.0261,-2.9066,-2.8253,-2.8182,-2.8182,-2.8182,-2.8182,-2.8182,-2.8182,-2.8182,-2.8182,-2.8182,-2.8182,-2.8182,-2.8182,-2.8102,-2.7531,-2.68,-2.6478,-2.6336,-2.58,-2.4403,-2.5122,-2.5551,-2.4427,-2.4444,-2.4373,-2.3677,-2.3517,-2.3499,-4.6876,-4.6876,-4.6779,-4.6407,-4.5646,-4.4318,-4.367,-4.3508,-4.2925,-4.2571,-4.2571,-4.2571,-4.2571,-4.2571,-4.2571,-4.2571,-4.2571,-4.2571,-4.2571,-4.2571,-4.2571,-4.2571,-4.252,-4.1177,-4.0496,-4.0351,-3.912,-3.8505,-3.8472,-3.8408,-3.8391,-3.8391,-3.8327,-3.7922,-3.7226,-3.6529,-3.5817,-3.5088,-3.4441,-3.4101,-3.4101,-3.4101,-3.4084,-3.402,-3.3987,-3.3971,-3.3809,-3.3906,-3.3615,-3.3064,-3.2983,-3.2983,-3.2935,-3.2384,-3.2319,-3.2902,-3.24,-3.1963,-3.1882,-3.1235,-3.0859,-3.081,-3.0533,-3.051,-3.0781,-3.11,-3.1312,-3.1389,-3.1634,-3.18,-3.18,-3.18,-3.18,-3.18,-3.1946,-3.2144,-3.2266,-3.242,-3.2639,-3.2834,-3.2852,-3.2866,-3.2795,-3.2135,-3.1082,-2.9797,-2.8834,-2.8182,-2.8182,-2.8182,-2.8182,-2.8182,-2.8182,-2.8182,-2.8182,-2.8182,-2.8182,-2.8182,-2.8182,-2.8182,-2.8021,-2.7513,-2.671,-2.6086,-2.539,-2.5194,-2.5015,-2.5087,-2.5265,-2.5283,-2.4962,-2.4462,-2.3749,-2.3494,-2.3494,-4.6876,-4.6844,-4.6423,-4.584,-4.516,-4.4577,-4.4107,-4.3638,-4.2941,-4.2571,-4.2571,-4.2571,-4.2571,-4.2571,-4.2571,-4.2571,-4.2571,-4.2571,-4.2571,-4.2571,-4.2571,-4.2571,-4.252,-4.1614,-4.1128,-4.1063,-4.0108,-3.9444,-3.9023,-3.8602,-3.8391,-3.8391,-3.8391,-3.8035,-3.7307,-3.6643,-3.5946,-3.5202,-3.4473,-3.4101,-3.4101,-3.4101,-3.4101,-3.4101,-3.4101,-3.4101,-3.4101,-3.4101,-3.3971,-3.3712,-3.368,-3.3696,-3.368,-3.3404,-3.3372,-3.3615,-3.3032,-3.2643,-3.2643,-3.1979,-3.1558,-3.1575,-3.1014,-3.0724,-3.0822,-3.0784,-3.0788,-3.1044,-3.1487,-3.18,-3.18,-3.18,-3.18,-3.18,-3.1856,-3.2001,-3.2161,-3.2335,-3.2506,-3.2705,-3.282,-3.2916,-3.2719,-3.176,-3.0618,-2.9547,-2.8727,-2.8217,-2.8182,-2.8182,-2.8182,-2.8182,-2.8182,-2.8182,-2.8182,-2.8182,-2.8182,-2.8182,-2.8182,-2.8182,-2.8093,-2.7531,-2.6764,-2.6247,-2.5997,-2.5711,-2.5551,-2.63,-2.6728,-2.6247,-2.5212,-2.4462,-2.3659,-2.3494,-2.3494,-4.6876,-4.6811,-4.6293,-4.5694,-4.5063,-4.4868,-4.4383,-4.3654,-4.2941,-4.2571,-4.2571,-4.2571,-4.2571,-4.2571,-4.2571,-4.2571,-4.2571,-4.2571,-4.2571,-4.2571,-4.2571,-4.2571,-4.2569,-4.1905,-4.1626,-4.1452,-4.082,-4.0237,-3.9703,-3.9055,-3.8683,-3.8683,-3.8505,-3.8149,-3.7582,-3.6788,-3.6044,-3.5461,-3.4603,-3.4101,-3.4101,-3.4101,-3.4101,-3.4101,-3.4101,-3.4101,-3.4101,-3.4101,-3.4101,-3.4101,-3.4101,-3.4101,-3.4101,-3.4101,-3.4101,-3.4068,-3.3647,-3.3372,-3.3372,-3.2708,-3.2287,-3.2255,-3.167,-3.1258,-3.1043,-3.0919,-3.0899,-3.0965,-3.1449,-3.18,-3.18,-3.18,-3.18,-3.18,-3.1837,-3.1965,-3.2144,-3.2283,-3.2454,-3.2672,-3.2834,-3.2916,-3.2702,-3.1581,-3.0315,-2.9797,-2.8841,-2.8182,-2.8182,-2.8182,-2.8182,-2.8182,-2.8182,-2.8182,-2.8182,-2.8182,-2.8182,-2.8182,-2.8182,-2.8182,-2.8128,-2.7496,-2.6996,-2.6639,-2.6764,-2.671,-2.6336,-2.7103,-2.7496,-2.6264,-2.5354,-2.4641,-2.3695,-2.3547,-2.3494,-4.6876,-4.6876,-4.6844,-4.639,-4.571,-4.5063,-4.4383,-4.3654,-4.2941,-4.2571,-4.2571,-4.2571,-4.2571,-4.2571,-4.2571,-4.2571,-4.2571,-4.2571,-4.2571,-4.2571,-4.2571,-4.2571,-4.2569,-4.1905,-4.1598,-4.1614,-4.1031,-4.0594,-4.0432,-3.9735,-3.9428,-3.9379,-3.8732,-3.8375,-3.8116,-3.6999,-3.6303,-3.6125,-3.4943,-3.4149,-3.4133,-3.4133,-3.4133,-3.4101,-3.4101,-3.4101,-3.4101,-3.4101,-3.4101,-3.4101,-3.4101,-3.4101,-3.4101,-3.4101,-3.4101,-3.4084,-3.4052,-3.402,-3.3939,-3.3388,-3.3032,-3.2983,-3.2569,-3.2114,-3.1588,-3.1809,-3.177,-3.1342,-3.1606,-3.1795,-3.18,-3.18,-3.18,-3.1837,-3.1965,-3.2126,-3.2249,-3.2438,-3.2672,-3.2802,-3.2884,-3.2862,-3.2795,-3.151,-3.0689,-3.0154,-2.9155,-2.8217,-2.8182,-2.8182,-2.8182,-2.8182,-2.8182,-2.8182,-2.8182,-2.8182,-2.8182,-2.8182,-2.8182,-2.8182,-2.7942,-2.762,-2.7281,-2.6942,-2.671,-2.6675,-2.6871,-2.6889,-2.6817,-2.6247,-2.5872,-2.514,-2.4034,-2.3642,-2.3494,-4.6876,-4.6876,-4.6876,-4.6455,-4.5759,-4.5079,-4.4366,-4.3654,-4.2941,-4.2571,-4.2571,-4.2571,-4.2571,-4.2571,-4.2571,-4.2571,-4.2571,-4.2571,-4.2571,-4.2571,-4.2571,-4.2571,-4.2601,-4.2359,-4.2245,-4.2197,-4.1986,-4.163,-4.1079,-4.0043,-3.9476,-3.9363,-3.8748,-3.8391,-3.8213,-3.7452,-3.695,-3.6853,-3.5979,-3.5283,-3.4813,-3.4797,-3.457,-3.4133,-3.4101,-3.4101,-3.4101,-3.4101,-3.4101,-3.4101,-3.4101,-3.4101,-3.4101,-3.4101,-3.4101,-3.4101,-3.4101,-3.4101,-3.4068,-3.3874,-3.3744,-3.3697,-3.2976,-3.2561,-3.2403,-3.2078,-3.1708,-3.1698,-3.177,-3.1873,-3.1829,-3.18,-3.1856,-3.1965,-3.2037,-3.2179,-3.2283,-3.2454,-3.2639,-3.2705,-3.2802,-3.2737,-3.2224,-3.1599,-3.1082,-3.0511,-2.9619,-2.8869,-2.8334,-2.82,-2.8235,-2.82,-2.8182,-2.8182,-2.8182,-2.8182,-2.8182,-2.8182,-2.8182,-2.8182,-2.8021,-2.7968,-2.7727,-2.7674,-2.721,-2.7192,-2.7585,-2.7567,-2.7246,-2.655,-2.6193,-2.5408,-2.448,-2.3838,-2.3547,-4.6876,-4.6876,-4.6876,-4.6342,-4.5467,-4.4998,-4.4237,-4.3362,-4.2844,-4.2571,-4.2571,-4.2571,-4.2571,-4.2571,-4.2571,-4.2571,-4.2571,-4.2571,-4.2571,-4.2571,-4.2571,-4.2571,-4.2571,-4.2571,-4.2571,-4.2571,-4.2571,-4.2375,-4.184,-4.0723,-4.0043,-3.9768,-3.9088,-3.8618,-3.8327,-3.7679,-3.7323,-3.7193,-3.6659,-3.593,-3.5283,-3.5185,-3.4845,-3.423,-3.4101,-3.4101,-3.4101,-3.4101,-3.4101,-3.4101,-3.4101,-3.4101,-3.4101,-3.4101,-3.4101,-3.4101,-3.4101,-3.4101,-3.4101,-3.4101,-3.4101,-3.4068,-3.3469,-3.3094,-3.3064,-3.2469,-3.2221,-3.2243,-3.2135,-3.2083,-3.2097,-3.1955,-3.1873,-3.2073,-3.2144,-3.2232,-3.2386,-3.2588,-3.2672,-3.2737,-3.2802,-3.2616,-3.217,-3.1867,-3.1457,-3.0921,-3.0243,-2.9476,-2.8798,-2.8673,-2.8503,-2.8271,-2.82,-2.8182,-2.8182,-2.8182,-2.8182,-2.8182,-2.8182,-2.8182,-2.8182,-2.8182,-2.8182,-2.8182,-2.8182,-2.8182,-2.8182,-2.8182,-2.7674,-2.6889,-2.6175,-2.5426,-2.4623,-2.3856,-2.3624,-4.6876,-4.6876,-4.6876,-4.6147,-4.5046,-4.477,-4.3913,-4.2862,-4.2603,-4.2492,-4.2571,-4.2571,-4.2571,-4.2571,-4.2571,-4.2571,-4.2571,-4.2571,-4.2571,-4.2571,-4.2571,-4.2571,-4.2571,-4.2571,-4.2571,-4.2571,-4.2571,-4.2571,-4.2488,-4.1727,-4.1047,-4.0432,-3.9719,-3.9007,-3.8408,-3.7776,-3.7388,-3.729,-3.6821,-3.6076,-3.5315,-3.5283,-3.491,-3.4198,-3.4101,-3.4101,-3.4101,-3.4101,-3.4101,-3.4101,-3.4101,-3.4101,-3.4101,-3.4101,-3.4101,-3.4101,-3.4101,-3.4101,-3.4101,-3.4101,-3.4101,-3.4052,-3.4037,-3.3681,-3.334,-3.3239,-3.3201,-3.3004,-3.2681,-3.2531,-3.2672,-3.2216,-3.1929,-3.2073,-3.2197,-3.2352,-3.2573,-3.277,-3.2916,-3.2866,-3.2916,-3.2916,-3.2737,-3.2277,-3.1831,-3.1617,-3.1028,-3.0332,-2.969,-2.9583,-2.9244,-2.8602,-2.8235,-2.8182,-2.8182,-2.8182,-2.8182,-2.8182,-2.8182,-2.8182,-2.8182,-2.8182,-2.8182,-2.8182,-2.8182,-2.8182,-2.8128,-2.8057,-2.7603,-2.6871,-2.6175,-2.5515,-2.4855,-2.4195,-2.3677,-4.6876,-4.6876,-4.6876,-4.6358,-4.5384,-4.4481,-4.3728,-4.3202,-4.2317,-4.2158,-4.2508,-4.2571,-4.2571,-4.2571,-4.2571,-4.2571,-4.2571,-4.2571,-4.2571,-4.2571,-4.2571,-4.2571,-4.2571,-4.2571,-4.2571,-4.2571,-4.2571,-4.2571,-4.2504,-4.1921,-4.1193,-4.0496,-3.9816,-3.9104,-3.8424,-3.8165,-3.8068,-3.8035,-3.7857,-3.7193,-3.6092,-3.5963,-3.5364,-3.4246,-3.4101,-3.4101,-3.4101,-3.4101,-3.4101,-3.4101,-3.4101,-3.4101,-3.4101,-3.4101,-3.4101,-3.4101,-3.4101,-3.4101,-3.4101,-3.4101,-3.4101,-3.4053,-3.386,-3.3763,-3.3762,-3.3582,-3.3614,-3.3629,-3.3253,-3.2978,-3.2827,-3.2472,-3.2179,-3.2214,-3.2283,-3.2454,-3.2737,-3.2834,-3.2884,-3.2916,-3.2916,-3.2916,-3.288,-3.2577,-3.2456,-3.2384,-3.1796,-3.1171,-3.0939,-3.0332,-2.9708,-2.9119,-2.8727,-2.82,-2.8182,-2.8182,-2.8182,-2.8182,-2.8182,-2.8182,-2.8182,-2.8182,-2.8182,-2.8182,-2.8182,-2.8164,-2.8093,-2.7799,-2.7317,-2.6817,-2.6139,-2.5586,-2.508,-2.4456,-2.3761,-4.6876,-4.6876,-4.6876,-4.6318,-4.5282,-4.4389,-4.3696,-4.3135,-4.2287,-4.2119,-4.2494,-4.2589,-4.2571,-4.2571,-4.2571,-4.2571,-4.2571,-4.2571,-4.2571,-4.2571,-4.2571,-4.2571,-4.2571,-4.2571,-4.2571,-4.2571,-4.2571,-4.2571,-4.2601,-4.2164,-4.1468,-4.0561,-4.0059,-3.9347,-3.8505,-3.8391,-3.8391,-3.8391,-3.8359,-3.7728,-3.6594,-3.6303,-3.559,-3.4343,-3.4101,-3.4101,-3.4101,-3.4101,-3.4101,-3.4101,-3.4101,-3.4101,-3.4101,-3.4101,-3.4101,-3.4101,-3.4101,-3.4101,-3.4101,-3.4101,-3.4101,-3.4053,-3.386,-3.3844,-3.4022,-3.3844,-3.3952,-3.4301,-3.3644,-3.3211,-3.3283,-3.2647,-3.2319,-3.2386,-3.242,-3.2555,-3.2834,-3.2916,-3.2916,-3.2916,-3.2916,-3.2916,-3.2916,-3.2916,-3.2916,-3.2827,-3.2456,-3.1938,-3.1742,-3.1314,-3.0618,-2.9708,-2.8709,-2.837,-2.8217,-2.8182,-2.8182,-2.8182,-2.8182,-2.8182,-2.8182,-2.8182,-2.8182,-2.8182,-2.8182,-2.8182,-2.811,-2.7513,-2.6978,-2.6496,-2.6015,-2.5158,-2.4456,-2.4064,-2.3512,-4.6876,-4.6892,-4.6807,-4.6003,-4.4764,-4.4409,-4.3597,-4.2618,-4.2341,-4.2307,-4.2417,-4.2527,-4.2571,-4.2571,-4.2571,-4.2571,-4.2571,-4.2571,-4.2571,-4.2571,-4.2571,-4.2571,-4.2571,-4.2571,-4.2571,-4.2571,-4.2571,-4.2571,-4.2555,-4.2553,-4.1921,-4.0756,-4.0448,-3.9816,-3.878,-3.8456,-3.8391,-3.8391,-3.8391,-3.7711,-3.64,-3.6303,-3.5606,-3.4198,-3.4101,-3.4101,-3.4101,-3.4101,-3.4101,-3.4101,-3.4101,-3.4101,-3.4101,-3.4101,-3.4101,-3.4101,-3.4101,-3.4101,-3.4101,-3.4101,-3.4101,-3.4084,-3.4036,-3.4101,-3.4052,-3.4053,-3.4284,-3.4838,-3.3807,-3.3313,-3.368,-3.2906,-3.2319,-3.2488,-3.2555,-3.2705,-3.2866,-3.2916,-3.2916,-3.2916,-3.2916,-3.2916,-3.2916,-3.2916,-3.2916,-3.2898,-3.2844,-3.2456,-3.2188,-3.1885,-3.151,-3.0457,-2.9119,-2.853,-2.8378,-2.8182,-2.8182,-2.8182,-2.8182,-2.8182,-2.8182,-2.8182,-2.8182,-2.8182,-2.8182,-2.8182,-2.7986,-2.7424,-2.6907,-2.6478,-2.5693,-2.4587,-2.4088,-2.3886,-2.3618,-4.6876,-4.6807,-4.6285,-4.573,-4.5205,-4.3694,-4.2799,-4.2375,-4.1913,-4.1788,-4.1857,-4.2382,-4.2571,-4.2571,-4.2571,-4.2571,-4.2571,-4.2571,-4.2571,-4.2571,-4.2571,-4.2571,-4.2571,-4.2571,-4.2571,-4.2571,-4.2571,-4.2571,-4.2571,-4.2571,-4.2148,-4.129,-4.0691,-4.0075,-3.9266,-3.8651,-3.8424,-3.8391,-3.8391,-3.7711,-3.6529,-3.6303,-3.559,-3.4279,-3.4101,-3.4101,-3.4101,-3.4101,-3.4101,-3.4101,-3.4101,-3.4101,-3.4101,-3.4101,-3.4101,-3.4101,-3.4101,-3.4101,-3.4101,-3.4101,-3.4101,-3.4101,-3.4101,-3.4101,-3.4101,-3.4101,-3.4382,-3.4618,-3.3768,-3.3143,-3.3342,-3.2569,-3.2124,-3.2352,-3.2639,-3.2852,-3.2866,-3.2916,-3.2916,-3.2916,-3.2916,-3.2916,-3.2916,-3.2916,-3.2916,-3.2916,-3.2898,-3.283,-3.2612,-3.2474,-3.2117,-3.0921,-2.9744,-2.903,-2.852,-2.8307,-2.8182,-2.8182,-2.8182,-2.8182,-2.8182,-2.8182,-2.8182,-2.8182,-2.8182,-2.8182,-2.7914,-2.7531,-2.7032,-2.6354,-2.539,-2.4391,-2.448,-2.4391,-2.3939,-4.6738,-4.6372,-4.5913,-4.5332,-4.46,-4.3302,-4.262,-4.2272,-4.1663,-4.1564,-4.1881,-4.2044,-4.2302,-4.2571,-4.2571,-4.2571,-4.2571,-4.2571,-4.2571,-4.2571,-4.2571,-4.2571,-4.2571,-4.2571,-4.2571,-4.2571,-4.2571,-4.2571,-4.2571,-4.2571,-4.2245,-4.1549,-4.0836,-4.0156,-3.9444,-3.878,-3.8391,-3.8391,-3.8359,-3.7728,-3.6432,-3.6303,-3.5493,-3.4408,-3.4101,-3.4101,-3.4101,-3.4101,-3.4101,-3.4101,-3.4101,-3.4101,-3.4101,-3.4101,-3.4101,-3.4101,-3.4101,-3.4101,-3.4101,-3.4101,-3.4101,-3.4101,-3.4101,-3.4101,-3.4101,-3.4151,-3.4399,-3.4703,-3.386,-3.3477,-3.3311,-3.2569,-3.2249,-3.2521,-3.277,-3.2916,-3.2916,-3.2916,-3.2916,-3.2916,-3.2916,-3.2916,-3.2916,-3.2916,-3.2916,-3.2916,-3.2916,-3.2898,-3.2862,-3.2844,-3.2367,-3.1028,-3.0065,-2.9315,-2.8592,-2.8253,-2.8182,-2.8182,-2.8182,-2.8182,-2.8182,-2.8182,-2.8182,-2.8182,-2.8182,-2.8128,-2.7914,-2.746,-2.655,-2.58,-2.4944,-2.4427,-2.4337,-2.4551,-2.4118,-4.6214,-4.5551,-4.5463,-4.4646,-4.3506,-4.3269,-4.2757,-4.2067,-4.1806,-4.1786,-4.1981,-4.1743,-4.2013,-4.2492,-4.2508,-4.2571,-4.2571,-4.2571,-4.2571,-4.2571,-4.2571,-4.2571,-4.2571,-4.2571,-4.2571,-4.2571,-4.2571,-4.2571,-4.2571,-4.2571,-4.2326,-4.1711,-4.095,-4.0237,-3.9622,-3.8845,-3.844,-3.8391,-3.8391,-3.7679,-3.6562,-3.6238,-3.5542,-3.4343,-3.4101,-3.4101,-3.4101,-3.4101,-3.4101,-3.4101,-3.4101,-3.4101,-3.4101,-3.4101,-3.4101,-3.4101,-3.4101,-3.4101,-3.4101,-3.4101,-3.4101,-3.4101,-3.4101,-3.4101,-3.4151,-3.425,-3.4448,-3.4851,-3.4267,-3.3656,-3.3185,-3.2637,-3.2406,-3.2588,-3.277,-3.2916,-3.2916,-3.2916,-3.2916,-3.2916,-3.2916,-3.2916,-3.2916,-3.2916,-3.2916,-3.2916,-3.2916,-3.2916,-3.2916,-3.288,-3.2063,-3.0814,-3.0047,-2.9494,-2.8834,-2.82,-2.8182,-2.8182,-2.8182,-2.8182,-2.8182,-2.8182,-2.8182,-2.8182,-2.8182,-2.8182,-2.8138,-2.7388,-2.6461,-2.5711,-2.5176,-2.4337,-2.3713,-2.4177,-2.4082,-4.4887,-4.4737,-4.4128,-4.3663,-4.3364,-4.3269,-4.2515,-4.1469,-4.2536,-4.2007,-4.126,-4.1825,-4.2029,-4.1787,-4.2285,-4.2571,-4.2508,-4.2571,-4.2571,-4.2571,-4.2571,-4.2571,-4.2571,-4.2571,-4.2571,-4.2571,-4.2571,-4.2571,-4.2571,-4.2571,-4.2585,-4.2261,-4.1193,-4.0432,-4.0124,-3.9072,-3.8408,-3.8391,-3.8391,-3.7695,-3.6659,-3.6335,-3.5655,-3.4343,-3.4165,-3.4117,-3.4101,-3.4101,-3.4101,-3.4101,-3.4101,-3.4101,-3.4101,-3.4101,-3.4101,-3.4101,-3.4101,-3.4101,-3.4101,-3.4101,-3.4101,-3.4101,-3.4101,-3.4151,-3.4316,-3.4316,-3.4448,-3.4528,-3.4016,-3.3326,-3.2656,-3.2221,-3.2318,-3.2546,-3.2831,-3.2973,-3.2884,-3.2916,-3.2916,-3.2916,-3.2916,-3.2916,-3.2916,-3.2916,-3.2916,-3.2916,-3.2916,-3.2916,-3.2916,-3.2916,-3.192,-3.0761,-3.0332,-2.9744,-2.8681,-2.8182,-2.8182,-2.8182,-2.8182,-2.8182,-2.8182,-2.8182,-2.8182,-2.8182,-2.8182,-2.8182,-2.8164,-2.7772,-2.6916,-2.6193,-2.5354,-2.448,-2.3891,-2.4123,-2.4088,-4.4282,-4.3897,-4.3427,-4.3061,-4.2769,-4.2754,-4.2128,-4.1366,-4.161,-4.1404,-4.0639,-4.0966,-4.1178,-4.1459,-4.1591,-4.1738,-4.2013,-4.2077,-4.2285,-4.2492,-4.2571,-4.2571,-4.2571,-4.2571,-4.2571,-4.2571,-4.2571,-4.2571,-4.2571,-4.2571,-4.2571,-4.2569,-4.1517,-4.0853,-4.0432,-3.9428,-3.878,-3.8456,-3.8391,-3.7857,-3.6967,-3.6756,-3.6092,-3.491,-3.4586,-3.4473,-3.4133,-3.4101,-3.4101,-3.4101,-3.4101,-3.4101,-3.4101,-3.4101,-3.4101,-3.4101,-3.4101,-3.4101,-3.4101,-3.4101,-3.4101,-3.4101,-3.4101,-3.4201,-3.43,-3.4349,-3.4448,-3.448,-3.4248,-3.376,-3.3262,-3.3248,-3.3242,-3.3317,-3.3616,-3.3713,-3.3257,-3.3019,-3.2916,-3.2916,-3.2916,-3.2916,-3.2916,-3.2884,-3.2866,-3.2866,-3.2916,-3.2916,-3.2916,-3.2773,-3.1938,-3.1064,-3.0672,-2.9958,-2.8717,-2.8182,-2.8182,-2.8182,-2.8182,-2.8182,-2.8182,-2.8182,-2.8182,-2.8182,-2.8182,-2.8182,-2.811,-2.7718,-2.7112,-2.6122,-2.5194,-2.448,-2.3957,-2.3832,-2.3743,-4.3741,-4.314,-4.314,-4.2644,-4.2029,-4.2068,-4.1754,-4.0941,-4.0566,-4.0516,-4.0178,-3.9595,-4.0347,-4.0842,-4.069,-4.0826,-4.1393,-4.1607,-4.1948,-4.2571,-4.2571,-4.2571,-4.2571,-4.2571,-4.2571,-4.2571,-4.2571,-4.2571,-4.2571,-4.2571,-4.2571,-4.2504,-4.1921,-4.1144,-4.0464,-3.98,-3.9072,-3.8489,-3.8391,-3.8035,-3.7371,-3.7209,-3.6546,-3.5639,-3.5331,-3.4991,-3.4538,-3.4343,-3.4246,-3.4117,-3.4101,-3.4101,-3.4101,-3.4101,-3.4101,-3.4101,-3.4101,-3.4101,-3.4101,-3.4101,-3.4101,-3.4101,-3.4151,-3.4201,-3.43,-3.4399,-3.4497,-3.4464,-3.4394,-3.4392,-3.467,-3.4288,-3.4231,-3.4364,-3.4693,-3.4482,-3.3688,-3.3104,-3.2905,-3.2916,-3.2884,-3.2866,-3.2852,-3.282,-3.2802,-3.2834,-3.2866,-3.2916,-3.2916,-3.2684,-3.192,-3.1153,-3.0672,-2.9833,-2.8627,-2.8182,-2.8182,-2.8182,-2.8182,-2.8182,-2.8182,-2.8182,-2.8182,-2.8182,-2.8182,-2.8182,-2.7914,-2.7406,-2.6693,-2.5783,-2.5051,-2.4355,-2.3909,-2.3547,-2.3583,-4.2392,-4.2325,-4.2325,-4.1936,-4.1456,-4.2006,-4.1484,-4.0529,-4.0845,-4.0514,-3.9519,-3.9934,-3.9874,-3.9945,-4.0293,-4.0774,-4.126,-4.1459,-4.1868,-4.2492,-4.2571,-4.2571,-4.2571,-4.2571,-4.2571,-4.2571,-4.2571,-4.2571,-4.2571,-4.2571,-4.2571,-4.2488,-4.1986,-4.1274,-4.0513,-3.9816,-3.9185,-3.8505,-3.8391,-3.8035,-3.7598,-3.7371,-3.7048,-3.6206,-3.6108,-3.5704,-3.5185,-3.4959,-3.4732,-3.4198,-3.4117,-3.4117,-3.4149,-3.4149,-3.4101,-3.4101,-3.4101,-3.4101,-3.4101,-3.4101,-3.4101,-3.4101,-3.4201,-3.425,-3.43,-3.4399,-3.4497,-3.4463,-3.4308,-3.4139,-3.4046,-3.4235,-3.3922,-3.394,-3.4189,-3.4137,-3.3674,-3.331,-3.2949,-3.2922,-3.2879,-3.2737,-3.2588,-3.2555,-3.2639,-3.2705,-3.2802,-3.2852,-3.2916,-3.2648,-3.2135,-3.1332,-3.0564,-2.9583,-2.8495,-2.8289,-2.8182,-2.8182,-2.8182,-2.8182,-2.8182,-2.8182,-2.8182,-2.8182,-2.8182,-2.8182,-2.7781,-2.721,-2.655,-2.5872,-2.5087,-2.4302,-2.3963,-2.369,-2.4088,-4.2092,-4.2092,-4.2092,-4.1715,-4.1244,-4.1542,-4.0891,-3.9809,-4.0084,-3.9698,-3.9029,-3.912,-3.932,-3.9247,-3.9175,-3.9874,-4.0842,-4.1393,-4.1868,-4.2492,-4.2571,-4.2571,-4.2571,-4.2571,-4.2571,-4.2571,-4.2571,-4.2571,-4.2571,-4.2571,-4.2571,-4.2506,-4.2245,-4.1581,-4.0675,-4.0189,-3.9395,-3.8699,-3.8375,-3.8246,-3.7906,-3.7857,-3.7501,-3.7031,-3.6805,-3.6448,-3.5914,-3.5752,-3.5623,-3.5266,-3.4878,-3.4716,-3.4554,-3.4311,-3.4101,-3.4101,-3.4101,-3.4101,-3.4101,-3.4151,-3.4201,-3.4101,-3.4201,-3.43,-3.4349,-3.4399,-3.4497,-3.4609,-3.4808,-3.4688,-3.4751,-3.4754,-3.4823,-3.4746,-3.4805,-3.4621,-3.4209,-3.3991,-3.3505,-3.2931,-3.2494,-3.2267,-3.2144,-3.2197,-3.2386,-3.2555,-3.2705,-3.277,-3.2866,-3.262,-3.2232,-3.1016,-3.0095,-2.918,-2.8378,-2.8261,-2.8182,-2.82,-2.8182,-2.8182,-2.8154,-2.8154,-2.8182,-2.8182,-2.8182,-2.8154,-2.7924,-2.7442,-2.671,-2.6032,-2.5497,-2.4908,-2.423,-2.3981,-2.4409,-4.2092,-4.2092,-4.1947,-4.1512,-4.0931,-4.0757,-4.0046,-3.9146,-3.8986,-3.8772,-3.826,-3.8277,-3.862,-3.8899,-3.8899,-3.9247,-4.0622,-4.1311,-4.1884,-4.2492,-4.2571,-4.2571,-4.2571,-4.2571,-4.2571,-4.2571,-4.2571,-4.2571,-4.2571,-4.2571,-4.2571,-4.2555,-4.2555,-4.2019,-4.0966,-4.0529,-3.9687,-3.8991,-3.8408,-3.8408,-3.8391,-3.8359,-3.8149,-3.7614,-3.7549,-3.7209,-3.6578,-3.6497,-3.6351,-3.6076,-3.572,-3.5331,-3.5104,-3.4619,-3.4262,-3.4133,-3.4101,-3.4101,-3.4101,-3.4201,-3.4201,-3.4101,-3.4234,-3.43,-3.4349,-3.4399,-3.4546,-3.4739,-3.4927,-3.514,-3.5136,-3.5576,-3.5603,-3.5497,-3.5474,-3.5608,-3.482,-3.4269,-3.3726,-3.306,-3.2244,-3.1823,-3.176,-3.2039,-3.23,-3.2352,-3.2488,-3.2639,-3.2705,-3.2672,-3.2086,-3.0592,-2.9503,-2.8734,-2.8208,-2.8124,-2.8126,-2.82,-2.82,-2.8182,-2.8154,-2.8099,-2.8099,-2.8081,-2.8025,-2.7961,-2.7796,-2.7638,-2.6942,-2.6371,-2.6015,-2.5551,-2.4944,-2.4694,-2.4944,-4.2092,-4.2034,-4.1453,-4.0829,-4.0176,-3.9697,-3.9044,-3.842,-3.8376,-3.8289,-3.8202,-3.8202,-3.8263,-3.8546,-3.903,-3.9999,-4.1044,-4.1525,-4.2013,-4.2555,-4.2571,-4.2571,-4.2571,-4.2571,-4.2571,-4.2571,-4.2571,-4.2571,-4.2571,-4.2571,-4.2571,-4.2571,-4.2569,-4.218,-4.1355,-4.0885,-4.0108,-3.9363,-3.8715,-3.8391,-3.8391,-3.8391,-3.8311,-3.8246,-3.8149,-3.789,-3.729,-3.7177,-3.7015,-3.6481,-3.6303,-3.5849,-3.5315,-3.5121,-3.4683,-3.4327,-3.4101,-3.4101,-3.4101,-3.4151,-3.4151,-3.4151,-3.4201,-3.43,-3.4349,-3.4448,-3.4594,-3.4691,-3.4835,-3.493,-3.5024,-3.5071,-3.5024,-3.5055,-3.5178,-3.5161,-3.4805,-3.4605,-3.399,-3.3379,-3.2647,-3.1884,-3.1455,-3.1871,-3.2197,-3.2231,-3.2283,-3.242,-3.2417,-3.2262,-3.1888,-3.0419,-2.9211,-2.8405,-2.7968,-2.7893,-2.8003,-2.8116,-2.8116,-2.8126,-2.8025,-2.7922,-2.7893,-2.7864,-2.7836,-2.7893,-2.7883,-2.761,-2.7112,-2.68,-2.6532,-2.6157,-2.5711,-2.564,-2.5747,-4.096,-4.0945,-4.0641,-4.0162,-3.9596,-3.9305,-3.8826,-3.8289,-3.8202,-3.8202,-3.8202,-3.8202,-3.8412,-3.8826,-3.9576,-4.0485,-4.1377,-4.1868,-4.2285,-4.2492,-4.2571,-4.2571,-4.2571,-4.2571,-4.2571,-4.2571,-4.2571,-4.2571,-4.2571,-4.2571,-4.2571,-4.2571,-4.2539,-4.2261,-4.1695,-4.129,-4.0464,-3.959,-3.8829,-3.8424,-3.8391,-3.8391,-3.8391,-3.8391,-3.8391,-3.8197,-3.8003,-3.7922,-3.7825,-3.742,-3.7193,-3.6772,-3.6238,-3.5736,-3.5121,-3.5412,-3.4505,-3.4149,-3.4101,-3.4167,-3.4151,-3.4151,-3.4201,-3.43,-3.4382,-3.4546,-3.4643,-3.4787,-3.4787,-3.4851,-3.4899,-3.4899,-3.4899,-3.4899,-3.4899,-3.4899,-3.4866,-3.47,-3.4313,-3.3727,-3.3073,-3.2278,-3.1561,-3.1623,-3.1912,-3.1913,-3.1949,-3.2003,-3.1795,-3.1429,-3.0974,-3.0243,-2.9148,-2.815,-2.7809,-2.7612,-2.7818,-2.7924,-2.7888,-2.7871,-2.7789,-2.773,-2.7642,-2.7642,-2.7642,-2.776,-2.7904,-2.785,-2.7558,-2.7335,-2.7103,-2.6746,-2.6478,-2.6996,-2.7067,-3.9784,-3.9639,-3.9799,-3.961,-3.9189,-3.903,-3.8681,-3.8246,-3.8202,-3.8202,-3.8202,-3.8202,-3.862,-3.9247,-3.9859,-4.0485,-4.1525,-4.2077,-4.2429,-4.2571,-4.2571,-4.2571,-4.2571,-4.2571,-4.2571,-4.2571,-4.2571,-4.2571,-4.2571,-4.2571,-4.2571,-4.2571,-4.2571,-4.2375,-4.197,-4.1533,-4.0853,-3.9541,-3.9007,-3.8651,-3.844,-3.8391,-3.8391,-3.8391,-3.8391,-3.8391,-3.8391,-3.8375,-3.8343,-3.8213,-3.7873,-3.7485,-3.7064,-3.64,-3.5963,-3.5898,-3.5072,-3.4489,-3.4376,-3.4345,-3.4233,-3.4201,-3.425,-3.4399,-3.4546,-3.4659,-3.4756,-3.4883,-3.4899,-3.4899,-3.4899,-3.4899,-3.4899,-3.4899,-3.4899,-3.4899,-3.4883,-3.4767,-3.4432,-3.3732,-3.3123,-3.2637,-3.2008,-3.1652,-3.1555,-3.1562,-3.1603,-3.1603,-3.1328,-3.093,-3.0487,-3.0006,-2.9414,-2.8572,-2.831,-2.8042,-2.8028,-2.7779,-2.7731,-2.7592,-2.7526,-2.7369,-2.7195,-2.7258,-2.74,-2.7701,-2.7922,-2.8027,-2.8057,-2.7807,-2.7585,-2.7371,-2.7371,-2.7861,-2.7924,-3.8899,-3.8376,-3.9015,-3.9233,-3.9117,-3.8522,-3.826,-3.8202,-3.8202,-3.8202,-3.8202,-3.8277,-3.862,-3.9247,-3.9591,-4.0347,-4.1525,-4.1525,-4.2077,-4.2492,-4.2571,-4.2571,-4.2571,-4.2571,-4.2571,-4.2571,-4.2571,-4.2571,-4.2571,-4.2571,-4.2571,-4.2571,-4.2571,-4.2539,-4.231,-4.1808,-4.0934,-3.9849,-3.9347,-3.891,-3.857,-3.8391,-3.8391,-3.8391,-3.8391,-3.8391,-3.8391,-3.8391,-3.8391,-3.8391,-3.8246,-3.797,-3.7501,-3.7064,-3.6772,-3.6465,-3.5525,-3.5056,-3.5043,-3.454,-3.4183,-3.4201,-3.4349,-3.4546,-3.4643,-3.4804,-3.4899,-3.4899,-3.4899,-3.4899,-3.4899,-3.4899,-3.4899,-3.4899,-3.4899,-3.4899,-3.4899,-3.4899,-3.4499,-3.3748,-3.324,-3.2861,-3.2235,-3.1796,-3.1409,-3.1368,-3.1278,-3.13,-3.1125,-3.0764,-3.0332,-2.9955,-2.9607,-2.923,-2.9128,-2.8887,-2.8423,-2.8011,-2.7822,-2.756,-2.725,-2.7072,-2.6808,-2.6956,-2.7117,-2.7552,-2.7893,-2.7829,-2.7886,-2.8109,-2.8039,-2.7772,-2.77,-2.8004,-2.7852,-3.8434,-3.8231,-3.8478,-3.8594,-3.8565,-3.8318,-3.8202,-3.8202,-3.8202,-3.8202,-3.8202,-3.8277,-3.862,-3.9247,-3.9874,-4.0485,-4.1459,-4.2013,-4.2285,-4.2492,-4.2571,-4.2571,-4.2571,-4.2571,-4.2571,-4.2571,-4.2571,-4.2571,-4.2571,-4.2571,-4.2571,-4.2571,-4.2539,-4.2571,-4.2407,-4.197,-4.1047,-4.027,-3.9654,-3.912,-3.8553,-3.8391,-3.8391,-3.8391,-3.8391,-3.8391,-3.8391,-3.8391,-3.8391,-3.8391,-3.8391,-3.8181,-3.7906,-3.7598,-3.7436,-3.7242,-3.6141,-3.559,-3.5509,-3.4829,-3.4183,-3.425,-3.4448,-3.4659,-3.4691,-3.4851,-3.4899,-3.4899,-3.4899,-3.4899,-3.4899,-3.4899,-3.4899,-3.4899,-3.4899,-3.4899,-3.4899,-3.4899,-3.4816,-3.4184,-3.3715,-3.3278,-3.259,-3.1883,-3.1489,-3.1202,-3.1055,-3.0988,-3.083,-3.069,-3.0331,-3.0079,-2.9783,-2.9377,-2.9259,-2.8972,-2.8704,-2.8367,-2.7995,-2.7691,-2.7369,-2.6623,-2.6468,-2.6623,-2.6808,-2.7085,-2.7338,-2.7491,-2.7689,-2.7996,-2.8154,-2.8128,-2.8146,-2.8182,-2.7942,-3.8202,-3.8202,-3.8202,-3.8202,-3.8202,-3.8202,-3.8202,-3.8202,-3.8202,-3.8202,-3.8202,-3.8202,-3.862,-3.932,-3.9804,-4.0622,-4.1377,-4.1933,-4.2349,-4.2508,-4.2571,-4.2571,-4.2571,-4.2571,-4.2571,-4.2571,-4.2571,-4.2571,-4.2571,-4.2571,-4.2571,-4.2585,-4.2439,-4.2375,-4.252,-4.2148,-4.1436,-4.0577,-4.0043,-3.925,-3.8586,-3.8391,-3.8391,-3.8391,-3.8391,-3.8391,-3.8391,-3.8391,-3.8391,-3.8391,-3.8391,-3.8391,-3.8213,-3.8051,-3.7987,-3.763,-3.7031,-3.606,-3.5817,-3.5107,-3.4249,-3.4349,-3.4546,-3.4691,-3.4787,-3.4851,-3.4899,-3.4899,-3.4899,-3.4899,-3.4899,-3.4899,-3.4899,-3.4899,-3.4899,-3.4899,-3.4899,-3.4899,-3.4899,-3.4731,-3.4167,-3.3499,-3.2602,-3.1788,-3.1208,-3.0905,-3.0814,-3.074,-3.0707,-3.0606,-3.0466,-3.0209,-2.9999,-2.9609,-2.9191,-2.9365,-2.9432,-2.8929,-2.8582,-2.8112,-2.7657,-2.6889,-2.6303,-2.6364,-2.6555,-2.664,-2.6891,-2.7213,-2.7569,-2.794,-2.8025,-2.8126,-2.8182,-2.8182,-2.8182,-3.8202,-3.8202,-3.8202,-3.8202,-3.8202,-3.8202,-3.8202,-3.8202,-3.8202,-3.8202,-3.8202,-3.8202,-3.8605,-3.9175,-3.9448,-4.0278,-4.1327,-4.1591,-4.1948,-4.2492,-4.2571,-4.2571,-4.2571,-4.2571,-4.2553,-4.2601,-4.2539,-4.2555,-4.2537,-4.2555,-4.2555,-4.2488,-4.2245,-4.2002,-4.2569,-4.2601,-4.184,-4.0658,-4.0367,-3.9525,-3.8699,-3.8391,-3.8391,-3.8391,-3.8391,-3.8391,-3.8391,-3.8391,-3.8391,-3.8391,-3.8391,-3.8391,-3.8343,-3.8311,-3.8294,-3.823,-3.7598,-3.6886,-3.6238,-3.498,-3.4496,-3.4546,-3.4741,-3.4904,-3.4901,-3.4899,-3.4899,-3.4899,-3.4899,-3.4899,-3.4899,-3.4899,-3.4899,-3.4899,-3.4899,-3.4899,-3.4899,-3.4899,-3.4899,-3.4899,-3.4253,-3.3491,-3.2547,-3.1669,-3.0974,-3.0618,-3.0526,-3.051,-3.0593,-3.0559,-3.0435,-3.0369,-3.0203,-3.0103,-2.9864,-3.0179,-3.0137,-2.9622,-2.9098,-2.861,-2.8077,-2.7437,-2.6919,-2.6455,-2.6345,-2.6486,-2.6742,-2.7006,-2.7276,-2.7552,-2.7893,-2.8025,-2.8126,-2.8154,-2.8099,-3.8202,-3.8202,-3.8202,-3.8202,-3.8202,-3.8202,-3.8202,-3.8202,-3.8202,-3.8202,-3.8202,-3.8202,-3.862,-3.9103,-3.9388,-4.0063,-4.1311,-4.1525,-4.1868,-4.2508,-4.2539,-4.2571,-4.2571,-4.2553,-4.2391,-4.218,-4.2261,-4.2342,-4.1905,-4.2375,-4.2618,-4.2504,-4.2278,-4.1857,-4.1565,-4.1484,-4.1225,-4.0075,-3.9719,-3.9347,-3.8537,-3.8424,-3.8391,-3.8391,-3.8391,-3.8391,-3.8391,-3.8391,-3.8391,-3.8391,-3.8391,-3.8391,-3.8391,-3.8391,-3.8391,-3.8262,-3.7711,-3.681,-3.5857,-3.4888,-3.4546,-3.4726,-3.5086,-3.5199,-3.5015,-3.4916,-3.4899,-3.4899,-3.4899,-3.4899,-3.4899,-3.4899,-3.4899,-3.4899,-3.4899,-3.4899,-3.4899,-3.4899,-3.4899,-3.4883,-3.4502,-3.4038,-3.3259,-3.2083,-3.1239,-3.0849,-3.0815,-3.0609,-3.0568,-3.051,-3.0477,-3.0477,-3.041,-3.046,-3.0468,-3.0468,-3.027,-2.9748,-2.9317,-2.8976,-2.8445,-2.8009,-2.7313,-2.6783,-2.654,-2.6364,-2.6589,-2.6775,-2.6873,-2.71,-2.7382,-2.7612,-2.7642,-2.7748,-2.7864,-3.7535,-3.7578,-3.7796,-3.7883,-3.7926,-3.8115,-3.8202,-3.8202,-3.8202,-3.8202,-3.8159,-3.7999,-3.8444,-3.8996,-3.9209,-3.9964,-4.1333,-4.1215,-4.1837,-4.2393,-4.2326,-4.2229,-4.2261,-4.2472,-4.2229,-4.1954,-4.2164,-4.2359,-4.2099,-4.2423,-4.2423,-4.2326,-4.2472,-4.1759,-4.1306,-4.1257,-4.1355,-4.0383,-3.9946,-3.9622,-3.8974,-3.8602,-3.8408,-3.8391,-3.8391,-3.8391,-3.8391,-3.8391,-3.8391,-3.8391,-3.8391,-3.8391,-3.8391,-3.8391,-3.8391,-3.8197,-3.742,-3.6653,-3.5932,-3.5315,-3.4956,-3.4805,-3.5364,-3.5346,-3.4998,-3.4916,-3.4899,-3.4899,-3.4899,-3.4899,-3.4899,-3.4899,-3.4899,-3.4899,-3.4899,-3.4899,-3.4899,-3.4899,-3.4899,-3.4883,-3.4767,-3.4369,-3.3889,-3.2713,-3.1586,-3.1388,-3.1163,-3.0891,-3.0559,-3.0526,-3.0468,-3.0468,-3.0468,-3.0468,-3.0468,-3.0468,-3.022,-2.9864,-2.9632,-2.945,-2.9284,-2.8936,-2.8042,-2.7214,-2.7018,-2.6809,-2.6499,-2.6504,-2.664,-2.6708,-2.6808,-2.6989,-2.7149,-2.7338,-2.7522,-3.6315,-3.6402,-3.7012,-3.7273,-3.7375,-3.7796,-3.8057,-3.8144,-3.8144,-3.8144,-3.8115,-3.7506,-3.8017,-3.8957,-3.8659,-3.9548,-4.0988,-4.0793,-4.1477,-4.2037,-4.2035,-4.1857,-4.2002,-4.2326,-4.2132,-4.2035,-4.2164,-4.2504,-4.2537,-4.2601,-4.2294,-4.2035,-4.2423,-4.1776,-4.1484,-4.1468,-4.1371,-4.0464,-4.0027,-3.9638,-3.9055,-3.8651,-3.8456,-3.8391,-3.8391,-3.8391,-3.8391,-3.8391,-3.8391,-3.8391,-3.8391,-3.8391,-3.8391,-3.8391,-3.8391,-3.7987,-3.6999,-3.6576,-3.6163,-3.5594,-3.5202,-3.4838,-3.4901,-3.4868,-3.4916,-3.4851,-3.4851,-3.4851,-3.4883,-3.4899,-3.4899,-3.4899,-3.4899,-3.4899,-3.4899,-3.4899,-3.4899,-3.4899,-3.4899,-3.4849,-3.4733,-3.4419,-3.4021,-3.3044,-3.2116,-3.1835,-3.1553,-3.1023,-3.0725,-3.0485,-3.0468,-3.0468,-3.0468,-3.0468,-3.0468,-3.0468,-3.0402,-3.0129,-3.0228,-3.0112,-2.9996,-2.9698,-2.8903,-2.8158,-2.7661,-2.7288,-2.6878,-2.6564,-2.6399,-2.6434,-2.6486,-2.6589,-2.6808,-2.7021,-2.7227,-3.6286,-3.6315,-3.6504,-3.6606,-3.662,-3.678,-3.7099,-3.7535,-3.7578,-3.7564,-3.7535,-3.6881,-3.7571,-3.9192,-3.8213,-3.9411,-4.0135,-4.0702,-4.1227,-4.1623,-4.1792,-4.197,-4.218,-4.2359,-4.2132,-4.1986,-4.2083,-4.2342,-4.2099,-4.2294,-4.2618,-4.2472,-4.2504,-4.197,-4.1727,-4.1662,-4.0917,-4.027,-3.9946,-3.9493,-3.9023,-3.857,-3.8424,-3.8391,-3.8391,-3.8391,-3.8391,-3.8391,-3.8391,-3.8391,-3.8391,-3.8391,-3.8391,-3.8375,-3.8278,-3.7582,-3.6772,-3.6198,-3.5803,-3.5134,-3.4743,-3.4725,-3.4691,-3.4691,-3.4756,-3.4756,-3.4756,-3.4804,-3.4835,-3.4899,-3.4899,-3.4899,-3.4899,-3.4899,-3.4899,-3.4899,-3.4899,-3.4899,-3.4899,-3.4849,-3.4717,-3.4568,-3.417,-3.3557,-3.2729,-3.2365,-3.1901,-3.1321,-3.0824,-3.0567,-3.0468,-3.0468,-3.0468,-3.0468,-3.0468,-3.0468,-3.0468,-3.0435,-3.0468,-3.0452,-3.0278,-2.9947,-2.9549,-2.8953,-2.8158,-2.7632,-2.7225,-2.6825,-2.6291,-2.6274,-2.6293,-2.6364,-2.6468,-2.6708,-2.6956,-3.5561,-3.559,-3.5836,-3.6069,-3.6272,-3.6301,-3.6446,-3.6591,-3.6794,-3.691,-3.6823,-3.6214,-3.6737,-3.7803,-3.7382,-3.7966,-3.9531,-3.9415,-3.9978,-4.1149,-4.1407,-4.1403,-4.1695,-4.2002,-4.15,-4.1452,-4.1614,-4.197,-4.184,-4.2229,-4.2618,-4.2601,-4.2571,-4.2375,-4.2083,-4.1727,-4.0998,-4.0254,-3.9654,-3.925,-3.8893,-3.8537,-3.8424,-3.8391,-3.8391,-3.8391,-3.8391,-3.8391,-3.8391,-3.8391,-3.8391,-3.8391,-3.8294,-3.8149,-3.7906,-3.7209,-3.6335,-3.5841,-3.5459,-3.4822,-3.4562,-3.448,-3.4497,-3.4497,-3.4546,-3.4643,-3.4707,-3.4804,-3.4851,-3.4899,-3.4899,-3.4899,-3.4899,-3.4899,-3.4899,-3.4899,-3.4899,-3.4899,-3.4866,-3.4833,-3.475,-3.4667,-3.4303,-3.3773,-3.3226,-3.2713,-3.2166,-3.1603,-3.1023,-3.0534,-3.0468,-3.0468,-3.0468,-3.0468,-3.0468,-3.0468,-3.0468,-3.0468,-3.0468,-3.0435,-3.041,-3.0261,-2.9897,-2.9251,-2.8472,-2.7964,-2.7454,-2.672,-2.6203,-2.6203,-2.6203,-2.6222,-2.6293,-2.6399,-2.664,-3.4443,-3.4501,-3.5038,-3.5575,-3.6112,-3.6069,-3.5793,-3.5386,-3.588,-3.6185,-3.6098,-3.5561,-3.5787,-3.6606,-3.6421,-3.6903,-3.8058,-3.8394,-3.9246,-4.0547,-4.0498,-4.0594,-4.0917,-4.1144,-4.1193,-4.0691,-4.0901,-4.2019,-4.1954,-4.2278,-4.2571,-4.2571,-4.2488,-4.2294,-4.2148,-4.1387,-4.0658,-4.0108,-3.9541,-3.912,-3.9055,-3.8748,-3.8391,-3.8391,-3.8391,-3.8391,-3.8391,-3.8391,-3.8391,-3.8391,-3.8391,-3.8391,-3.8051,-3.7776,-3.7452,-3.6788,-3.5866,-3.5435,-3.5114,-3.4593,-3.4447,-3.4399,-3.4349,-3.4349,-3.4399,-3.4546,-3.4659,-3.4756,-3.4804,-3.4899,-3.4899,-3.4899,-3.4899,-3.4899,-3.4899,-3.4899,-3.4899,-3.4899,-3.4883,-3.4866,-3.4849,-3.4767,-3.4717,-3.422,-3.3822,-3.316,-3.268,-3.215,-3.1404,-3.0782,-3.0551,-3.0551,-3.0468,-3.0468,-3.0468,-3.0468,-3.0468,-3.0468,-3.0468,-3.0468,-3.0418,-3.0336,-3.0237,-2.9599,-2.8903,-2.8207,-2.7632,-2.6849,-2.6286,-2.6203,-2.6203,-2.6203,-2.6203,-2.6239,-2.6452,-3.4414,-3.4428,-3.4574,-3.4733,-3.4864,-3.4864,-3.482,-3.4646,-3.4777,-3.5169,-3.5401,-3.5092,-3.5321,-3.6149,-3.5934,-3.6542,-3.7794,-3.7986,-3.8914,-3.9766,-4.0016,-4.0173,-4.0496,-4.1015,-4.1096,-4.15,-4.1873,-4.2148,-4.2213,-4.2439,-4.2585,-4.2537,-4.2197,-4.1824,-4.1743,-4.0804,-4.0027,-3.98,-3.9201,-3.8812,-3.8699,-3.8618,-3.8391,-3.8391,-3.8391,-3.8391,-3.8391,-3.8391,-3.8391,-3.8391,-3.8391,-3.8116,-3.7598,-3.7388,-3.674,-3.5882,-3.5396,-3.5029,-3.4639,-3.4363,-3.4299,-3.425,-3.425,-3.425,-3.43,-3.4448,-3.4594,-3.4643,-3.4739,-3.4851,-3.4899,-3.4899,-3.4899,-3.4899,-3.4899,-3.4899,-3.4899,-3.4899,-3.4899,-3.4899,-3.4899,-3.4899,-3.4899,-3.4717,-3.4336,-3.3988,-3.3673,-3.3094,-3.2083,-3.1328,-3.0891,-3.0791,-3.0518,-3.0468,-3.0468,-3.0468,-3.0468,-3.0468,-3.0468,-3.0468,-3.0468,-3.0444,-3.0344,-2.9963,-2.9383,-2.8539,-2.7694,-2.6899,-2.6468,-2.627,-2.6203,-2.6203,-2.6203,-2.6203,-2.6417,-3.4167,-3.4399,-3.4414,-3.4414,-3.4414,-3.4414,-3.4414,-3.4414,-3.4414,-3.4603,-3.4878,-3.467,-3.5007,-3.5968,-3.5857,-3.6146,-3.7543,-3.7859,-3.8487,-3.9205,-3.9725,-4.0043,-4.0399,-4.0626,-4.0448,-4.082,-4.1355,-4.1678,-4.2083,-4.2148,-4.2099,-4.2035,-4.15,-4.1063,-4.0934,-4.0043,-3.9444,-3.946,-3.8732,-3.8456,-3.8391,-3.8391,-3.8391,-3.8391,-3.8391,-3.8391,-3.8391,-3.8391,-3.8391,-3.8391,-3.8391,-3.8003,-3.7469,-3.7015,-3.6303,-3.5493,-3.491,-3.4572,-3.4264,-3.4151,-3.4151,-3.4151,-3.4201,-3.4201,-3.43,-3.4448,-3.4546,-3.4643,-3.4787,-3.4899,-3.4899,-3.4899,-3.4899,-3.4899,-3.4899,-3.4899,-3.4899,-3.4899,-3.4899,-3.4899,-3.4899,-3.4899,-3.4899,-3.4883,-3.4485,-3.3988,-3.3806,-3.3259,-3.2381,-3.1835,-3.1388,-3.0907,-3.06,-3.0468,-3.0468,-3.0468,-3.0468,-3.0468,-3.0468,-3.0468,-3.0468,-3.051,-3.0377,-2.9963,-2.94,-2.8605,-2.776,-2.6998,-2.6485,-2.6236,-2.6203,-2.6203,-2.6203,-2.6203,-2.6312,-3.3659,-3.4153,-3.4254,-3.4225,-3.4196,-3.4254,-3.4269,-3.4269,-3.4283,-3.4269,-3.4327,-3.4385,-3.4773,-3.5335,-3.5834,-3.6072,-3.6523,-3.7238,-3.7951,-3.8535,-3.9049,-3.9386,-3.9606,-3.9784,-3.9897,-4.0189,-4.0707,-4.1063,-4.1419,-4.1581,-4.163,-4.1415,-4.0869,-4.0351,-4.0173,-3.9735,-3.9233,-3.9088,-3.8699,-3.8456,-3.8391,-3.8391,-3.8391,-3.8391,-3.8391,-3.8391,-3.8391,-3.8391,-3.8391,-3.8391,-3.8359,-3.7906,-3.7339,-3.674,-3.5849,-3.5104,-3.4489,-3.4246,-3.4101,-3.4101,-3.4101,-3.4101,-3.4101,-3.4201,-3.43,-3.4448,-3.4546,-3.4691,-3.4804,-3.4899,-3.4899,-3.4899,-3.4899,-3.4851,-3.4851,-3.4851,-3.4851,-3.4851,-3.4851,-3.4899,-3.4899,-3.4899,-3.4899,-3.4899,-3.4618,-3.4087,-3.3591,-3.2878,-3.2332,-3.2067,-3.1719,-3.1106,-3.0551,-3.0468,-3.0468,-3.0468,-3.0468,-3.0468,-3.0468,-3.0468,-3.0468,-3.051,-3.0328,-2.9897,-2.9284,-2.8655,-2.7909,-2.7147,-2.6684,-2.6253,-2.6203,-2.6203,-2.6203,-2.6203,-2.6203,-3.2774,-3.2919,-3.3427,-3.3369,-3.3021,-3.3427,-3.3659,-3.3645,-3.3659,-3.3645,-3.3746,-3.4196,-3.4534,-3.4587,-3.4654,-3.5154,-3.6212,-3.689,-3.7207,-3.7666,-3.8502,-3.8739,-3.9023,-3.9509,-3.9849,-4.0173,-4.0545,-4.0982,-4.0853,-4.1177,-4.1225,-4.0675,-4.0027,-3.9654,-3.9541,-3.9104,-3.8699,-3.8634,-3.8634,-3.8391,-3.8391,-3.8391,-3.8391,-3.8391,-3.8391,-3.8391,-3.8391,-3.8391,-3.8391,-3.8391,-3.8343,-3.7873,-3.7258,-3.6578,-3.5736,-3.4894,-3.4279,-3.4149,-3.4101,-3.4101,-3.4101,-3.4101,-3.4151,-3.425,-3.4349,-3.4497,-3.4643,-3.4691,-3.4787,-3.4899,-3.4899,-3.4899,-3.4835,-3.4756,-3.4707,-3.4691,-3.4691,-3.4691,-3.4691,-3.4756,-3.4851,-3.4851,-3.4899,-3.4899,-3.4883,-3.4535,-3.4518,-3.3789,-3.2796,-3.2415,-3.2067,-3.1338,-3.0617,-3.0468,-3.0468,-3.0468,-3.0468,-3.0468,-3.0468,-3.0468,-3.0468,-3.0468,-3.022,-2.9831,-2.945,-2.8936,-2.8158,-2.7251,-2.6783,-2.6385,-2.6253,-2.6203,-2.6203,-2.6203,-2.6203]}]]